<?xml version="1.0" encoding="UTF-8" standalone="no" ?>
<gpx xmlns="http://www.topografix.com/GPX/1/1" xmlns:xsi="http://www.w3.org/2001/XMLSchema-instance" xsi:schemaLocation="http://www.topografix.com/GPX/1/1 http://www.topografix.com/GPX/1/1/gpx.xsd" version="1.1" creator="VisuGPX - https://www.visugpx.com">
  <metadata>
    <name>L'Experte</name>
  </metadata>
  <wpt lat="45.7827" lon="6.52566">
    <ele>1562.1</ele>
    <name><![CDATA[Ravitaillement]]></name>
    <desc><![CDATA[]]></desc>
  </wpt>
  <wpt lat="45.7765" lon="6.59309">
    <ele>1961</ele>
    <name><![CDATA[Ravitaillement]]></name>
    <desc><![CDATA[]]></desc>
  </wpt>
  <wpt lat="45.73253" lon="6.50612">
    <ele>1312.3</ele>
    <name><![CDATA[Ravitaillement]]></name>
    <desc><![CDATA[]]></desc>
  </wpt>
  <wpt lat="45.7765" lon="6.59287">
    <ele>1959.6</ele>
    <name><![CDATA[Ravitaillement]]></name>
    <desc><![CDATA[]]></desc>
  </wpt>
  <wpt lat="45.78578" lon="6.53154">
    <ele>1522.7</ele>
    <name><![CDATA[Signaleur]]></name>
    <desc><![CDATA[]]></desc>
  </wpt>
  <wpt lat="45.73355" lon="6.50003">
    <ele>1464.3</ele>
    <name><![CDATA[Signaleur]]></name>
    <desc><![CDATA[]]></desc>
  </wpt>
  <trk>
    <name><![CDATA[Diamant VTT 2025 - 45km v4-21461181]]></name>
    <trkseg>
      <trkpt lat="45.76012" lon="6.53369">
        <ele>1660</ele>
        <time>2025-06-05T13:40:52Z</time>
      </trkpt>
      <trkpt lat="45.76032" lon="6.53359">
        <ele>1660</ele>
        <time>2025-06-05T13:40:57Z</time>
      </trkpt>
      <trkpt lat="45.76035" lon="6.53358">
        <ele>1660</ele>
        <time>2025-06-05T13:40:58Z</time>
      </trkpt>
      <trkpt lat="45.76039" lon="6.53378">
        <ele>1661</ele>
        <time>2025-06-05T13:41:01Z</time>
      </trkpt>
      <trkpt lat="45.76037" lon="6.53386">
        <ele>1661</ele>
        <time>2025-06-05T13:41:02Z</time>
      </trkpt>
      <trkpt lat="45.76031" lon="6.53396">
        <ele>1661</ele>
        <time>2025-06-05T13:41:05Z</time>
      </trkpt>
      <trkpt lat="45.76023" lon="6.53406">
        <ele>1661</ele>
        <time>2025-06-05T13:41:07Z</time>
      </trkpt>
      <trkpt lat="45.76006" lon="6.53421">
        <ele>1661</ele>
        <time>2025-06-05T13:41:12Z</time>
      </trkpt>
      <trkpt lat="45.76" lon="6.53427">
        <ele>1661</ele>
        <time>2025-06-05T13:41:13Z</time>
      </trkpt>
      <trkpt lat="45.75997" lon="6.53432">
        <ele>1661</ele>
        <time>2025-06-05T13:41:15Z</time>
      </trkpt>
      <trkpt lat="45.75993" lon="6.5344">
        <ele>1661</ele>
        <time>2025-06-05T13:41:16Z</time>
      </trkpt>
      <trkpt lat="45.7599" lon="6.53453">
        <ele>1661</ele>
        <time>2025-06-05T13:41:18Z</time>
      </trkpt>
      <trkpt lat="45.7599" lon="6.5346">
        <ele>1661</ele>
        <time>2025-06-05T13:41:19Z</time>
      </trkpt>
      <trkpt lat="45.7599" lon="6.53466">
        <ele>1662</ele>
        <time>2025-06-05T13:41:20Z</time>
      </trkpt>
      <trkpt lat="45.75992" lon="6.53477">
        <ele>1662</ele>
        <time>2025-06-05T13:41:22Z</time>
      </trkpt>
      <trkpt lat="45.75981" lon="6.53491">
        <ele>1662</ele>
        <time>2025-06-05T13:41:26Z</time>
      </trkpt>
      <trkpt lat="45.75976" lon="6.53507">
        <ele>1662</ele>
        <time>2025-06-05T13:41:29Z</time>
      </trkpt>
      <trkpt lat="45.75972" lon="6.53511">
        <ele>1662</ele>
        <time>2025-06-05T13:41:30Z</time>
      </trkpt>
      <trkpt lat="45.75963" lon="6.53542">
        <ele>1662</ele>
        <time>2025-06-05T13:41:35Z</time>
      </trkpt>
      <trkpt lat="45.7596" lon="6.53547">
        <ele>1662</ele>
        <time>2025-06-05T13:41:36Z</time>
      </trkpt>
      <trkpt lat="45.75945" lon="6.53576">
        <ele>1662</ele>
        <time>2025-06-05T13:41:42Z</time>
      </trkpt>
      <trkpt lat="45.7594" lon="6.53583">
        <ele>1662</ele>
        <time>2025-06-05T13:41:44Z</time>
      </trkpt>
      <trkpt lat="45.75926" lon="6.5359">
        <ele>1660</ele>
        <time>2025-06-05T13:41:47Z</time>
      </trkpt>
      <trkpt lat="45.75922" lon="6.5359">
        <ele>1660</ele>
        <time>2025-06-05T13:41:48Z</time>
      </trkpt>
      <trkpt lat="45.75928" lon="6.536">
        <ele>1661</ele>
        <time>2025-06-05T13:41:50Z</time>
      </trkpt>
      <trkpt lat="45.75933" lon="6.53616">
        <ele>1663</ele>
        <time>2025-06-05T13:41:53Z</time>
      </trkpt>
      <trkpt lat="45.75932" lon="6.53626">
        <ele>1663</ele>
        <time>2025-06-05T13:41:55Z</time>
      </trkpt>
      <trkpt lat="45.75933" lon="6.53639">
        <ele>1664</ele>
        <time>2025-06-05T13:41:57Z</time>
      </trkpt>
      <trkpt lat="45.75936" lon="6.53648">
        <ele>1665</ele>
        <time>2025-06-05T13:41:59Z</time>
      </trkpt>
      <trkpt lat="45.75937" lon="6.53661">
        <ele>1666</ele>
        <time>2025-06-05T13:42:01Z</time>
      </trkpt>
      <trkpt lat="45.75939" lon="6.53691">
        <ele>1669</ele>
        <time>2025-06-05T13:42:06Z</time>
      </trkpt>
      <trkpt lat="45.7594" lon="6.53702">
        <ele>1670</ele>
        <time>2025-06-05T13:42:07Z</time>
      </trkpt>
      <trkpt lat="45.75948" lon="6.53722">
        <ele>1672</ele>
        <time>2025-06-05T13:42:11Z</time>
      </trkpt>
      <trkpt lat="45.75951" lon="6.53733">
        <ele>1674</ele>
        <time>2025-06-05T13:42:13Z</time>
      </trkpt>
      <trkpt lat="45.7595" lon="6.53747">
        <ele>1675</ele>
        <time>2025-06-05T13:42:15Z</time>
      </trkpt>
      <trkpt lat="45.7595" lon="6.53765">
        <ele>1676</ele>
        <time>2025-06-05T13:42:18Z</time>
      </trkpt>
      <trkpt lat="45.75946" lon="6.53804">
        <ele>1679</ele>
        <time>2025-06-05T13:42:25Z</time>
      </trkpt>
      <trkpt lat="45.75943" lon="6.53829">
        <ele>1681</ele>
        <time>2025-06-05T13:42:29Z</time>
      </trkpt>
      <trkpt lat="45.75934" lon="6.53862">
        <ele>1683</ele>
        <time>2025-06-05T13:42:35Z</time>
      </trkpt>
      <trkpt lat="45.75927" lon="6.53891">
        <ele>1684</ele>
        <time>2025-06-05T13:42:40Z</time>
      </trkpt>
      <trkpt lat="45.75919" lon="6.53917">
        <ele>1685</ele>
        <time>2025-06-05T13:42:44Z</time>
      </trkpt>
      <trkpt lat="45.75919" lon="6.53953">
        <ele>1688</ele>
        <time>2025-06-05T13:42:50Z</time>
      </trkpt>
      <trkpt lat="45.7592" lon="6.53973">
        <ele>1690</ele>
        <time>2025-06-05T13:42:53Z</time>
      </trkpt>
      <trkpt lat="45.75921" lon="6.54028">
        <ele>1693</ele>
        <time>2025-06-05T13:43:02Z</time>
      </trkpt>
      <trkpt lat="45.75928" lon="6.54046">
        <ele>1696</ele>
        <time>2025-06-05T13:43:06Z</time>
      </trkpt>
      <trkpt lat="45.75939" lon="6.54114">
        <ele>1703</ele>
        <time>2025-06-05T13:43:17Z</time>
      </trkpt>
      <trkpt lat="45.75942" lon="6.54126">
        <ele>1704</ele>
        <time>2025-06-05T13:43:19Z</time>
      </trkpt>
      <trkpt lat="45.75935" lon="6.54182">
        <ele>1705</ele>
        <time>2025-06-05T13:43:28Z</time>
      </trkpt>
      <trkpt lat="45.7594" lon="6.5421">
        <ele>1709</ele>
        <time>2025-06-05T13:43:33Z</time>
      </trkpt>
      <trkpt lat="45.75941" lon="6.54249">
        <ele>1711</ele>
        <time>2025-06-05T13:43:40Z</time>
      </trkpt>
      <trkpt lat="45.7594" lon="6.54274">
        <ele>1713</ele>
        <time>2025-06-05T13:43:44Z</time>
      </trkpt>
      <trkpt lat="45.75937" lon="6.54301">
        <ele>1714</ele>
        <time>2025-06-05T13:43:48Z</time>
      </trkpt>
      <trkpt lat="45.75942" lon="6.54324">
        <ele>1718</ele>
        <time>2025-06-05T13:43:52Z</time>
      </trkpt>
      <trkpt lat="45.75948" lon="6.54379">
        <ele>1722</ele>
        <time>2025-06-05T13:44:01Z</time>
      </trkpt>
      <trkpt lat="45.7596" lon="6.54465">
        <ele>1732</ele>
        <time>2025-06-05T13:44:15Z</time>
      </trkpt>
      <trkpt lat="45.75963" lon="6.54499">
        <ele>1736</ele>
        <time>2025-06-05T13:44:21Z</time>
      </trkpt>
      <trkpt lat="45.75965" lon="6.54538">
        <ele>1741</ele>
        <time>2025-06-05T13:44:27Z</time>
      </trkpt>
      <trkpt lat="45.75962" lon="6.54557">
        <ele>1743</ele>
        <time>2025-06-05T13:44:31Z</time>
      </trkpt>
      <trkpt lat="45.75962" lon="6.54574">
        <ele>1745</ele>
        <time>2025-06-05T13:44:33Z</time>
      </trkpt>
      <trkpt lat="45.75958" lon="6.54588">
        <ele>1745</ele>
        <time>2025-06-05T13:44:36Z</time>
      </trkpt>
      <trkpt lat="45.75957" lon="6.54598">
        <ele>1746</ele>
        <time>2025-06-05T13:44:37Z</time>
      </trkpt>
      <trkpt lat="45.75955" lon="6.54632">
        <ele>1749</ele>
        <time>2025-06-05T13:44:43Z</time>
      </trkpt>
      <trkpt lat="45.75954" lon="6.54664">
        <ele>1752</ele>
        <time>2025-06-05T13:44:48Z</time>
      </trkpt>
      <trkpt lat="45.75956" lon="6.5466">
        <ele>1752</ele>
        <time>2025-06-05T13:44:49Z</time>
      </trkpt>
      <trkpt lat="45.75954" lon="6.54664">
        <ele>1752</ele>
        <time>2025-06-05T13:44:50Z</time>
      </trkpt>
      <trkpt lat="45.75954" lon="6.54686">
        <ele>1753</ele>
        <time>2025-06-05T13:44:53Z</time>
      </trkpt>
      <trkpt lat="45.75956" lon="6.54709">
        <ele>1754</ele>
        <time>2025-06-05T13:44:57Z</time>
      </trkpt>
      <trkpt lat="45.75961" lon="6.54733">
        <ele>1756</ele>
        <time>2025-06-05T13:45:01Z</time>
      </trkpt>
      <trkpt lat="45.75985" lon="6.54806">
        <ele>1762</ele>
        <time>2025-06-05T13:45:14Z</time>
      </trkpt>
      <trkpt lat="45.75992" lon="6.54824">
        <ele>1764</ele>
        <time>2025-06-05T13:45:18Z</time>
      </trkpt>
      <trkpt lat="45.76001" lon="6.54853">
        <ele>1766</ele>
        <time>2025-06-05T13:45:23Z</time>
      </trkpt>
      <trkpt lat="45.76013" lon="6.54916">
        <ele>1769</ele>
        <time>2025-06-05T13:45:34Z</time>
      </trkpt>
      <trkpt lat="45.76011" lon="6.54924">
        <ele>1770</ele>
        <time>2025-06-05T13:45:35Z</time>
      </trkpt>
      <trkpt lat="45.76009" lon="6.54936">
        <ele>1770</ele>
        <time>2025-06-05T13:45:37Z</time>
      </trkpt>
      <trkpt lat="45.76006" lon="6.54975">
        <ele>1771</ele>
        <time>2025-06-05T13:45:43Z</time>
      </trkpt>
      <trkpt lat="45.76004" lon="6.54988">
        <ele>1772</ele>
        <time>2025-06-05T13:45:45Z</time>
      </trkpt>
      <trkpt lat="45.76001" lon="6.54999">
        <ele>1772</ele>
        <time>2025-06-05T13:45:47Z</time>
      </trkpt>
      <trkpt lat="45.76" lon="6.55009">
        <ele>1773</ele>
        <time>2025-06-05T13:45:49Z</time>
      </trkpt>
      <trkpt lat="45.75992" lon="6.5502">
        <ele>1773</ele>
        <time>2025-06-05T13:45:52Z</time>
      </trkpt>
      <trkpt lat="45.75987" lon="6.5502">
        <ele>1773</ele>
        <time>2025-06-05T13:45:53Z</time>
      </trkpt>
      <trkpt lat="45.75973" lon="6.55041">
        <ele>1774</ele>
        <time>2025-06-05T13:45:58Z</time>
      </trkpt>
      <trkpt lat="45.75958" lon="6.55041">
        <ele>1774</ele>
        <time>2025-06-05T13:46:01Z</time>
      </trkpt>
      <trkpt lat="45.75918" lon="6.55034">
        <ele>1772</ele>
        <time>2025-06-05T13:46:10Z</time>
      </trkpt>
      <trkpt lat="45.75905" lon="6.55038">
        <ele>1772</ele>
        <time>2025-06-05T13:46:14Z</time>
      </trkpt>
      <trkpt lat="45.75895" lon="6.55044">
        <ele>1772</ele>
        <time>2025-06-05T13:46:16Z</time>
      </trkpt>
      <trkpt lat="45.75878" lon="6.55065">
        <ele>1773</ele>
        <time>2025-06-05T13:46:21Z</time>
      </trkpt>
      <trkpt lat="45.75872" lon="6.5507">
        <ele>1773</ele>
        <time>2025-06-05T13:46:23Z</time>
      </trkpt>
      <trkpt lat="45.75864" lon="6.55077">
        <ele>1774</ele>
        <time>2025-06-05T13:46:25Z</time>
      </trkpt>
      <trkpt lat="45.75855" lon="6.55091">
        <ele>1774</ele>
        <time>2025-06-05T13:46:28Z</time>
      </trkpt>
      <trkpt lat="45.75846" lon="6.55108">
        <ele>1775</ele>
        <time>2025-06-05T13:46:32Z</time>
      </trkpt>
      <trkpt lat="45.75835" lon="6.55118">
        <ele>1775</ele>
        <time>2025-06-05T13:46:35Z</time>
      </trkpt>
      <trkpt lat="45.7583" lon="6.55126">
        <ele>1775</ele>
        <time>2025-06-05T13:46:37Z</time>
      </trkpt>
      <trkpt lat="45.75817" lon="6.55133">
        <ele>1774</ele>
        <time>2025-06-05T13:46:40Z</time>
      </trkpt>
      <trkpt lat="45.75806" lon="6.55136">
        <ele>1773</ele>
        <time>2025-06-05T13:46:42Z</time>
      </trkpt>
      <trkpt lat="45.758" lon="6.55144">
        <ele>1773</ele>
        <time>2025-06-05T13:46:44Z</time>
      </trkpt>
      <trkpt lat="45.75785" lon="6.55174">
        <ele>1775</ele>
        <time>2025-06-05T13:46:50Z</time>
      </trkpt>
      <trkpt lat="45.75767" lon="6.55215">
        <ele>1777</ele>
        <time>2025-06-05T13:46:58Z</time>
      </trkpt>
      <trkpt lat="45.7576" lon="6.55227">
        <ele>1777</ele>
        <time>2025-06-05T13:47:01Z</time>
      </trkpt>
      <trkpt lat="45.75757" lon="6.5523">
        <ele>1777</ele>
        <time>2025-06-05T13:47:02Z</time>
      </trkpt>
      <trkpt lat="45.75742" lon="6.55244">
        <ele>1776</ele>
        <time>2025-06-05T13:47:06Z</time>
      </trkpt>
      <trkpt lat="45.75734" lon="6.55246">
        <ele>1774</ele>
        <time>2025-06-05T13:47:08Z</time>
      </trkpt>
      <trkpt lat="45.75725" lon="6.5525">
        <ele>1773</ele>
        <time>2025-06-05T13:47:10Z</time>
      </trkpt>
      <trkpt lat="45.75693" lon="6.5527">
        <ele>1769</ele>
        <time>2025-06-05T13:47:18Z</time>
      </trkpt>
      <trkpt lat="45.75677" lon="6.55285">
        <ele>1768</ele>
        <time>2025-06-05T13:47:22Z</time>
      </trkpt>
      <trkpt lat="45.7567" lon="6.5529">
        <ele>1768</ele>
        <time>2025-06-05T13:47:24Z</time>
      </trkpt>
      <trkpt lat="45.75666" lon="6.55304">
        <ele>1769</ele>
        <time>2025-06-05T13:47:27Z</time>
      </trkpt>
      <trkpt lat="45.75665" lon="6.55318">
        <ele>1772</ele>
        <time>2025-06-05T13:47:29Z</time>
      </trkpt>
      <trkpt lat="45.75661" lon="6.55322">
        <ele>1773</ele>
        <time>2025-06-05T13:47:30Z</time>
      </trkpt>
      <trkpt lat="45.75648" lon="6.55312">
        <ele>1772</ele>
        <time>2025-06-05T13:47:34Z</time>
      </trkpt>
      <trkpt lat="45.75643" lon="6.55312">
        <ele>1772</ele>
        <time>2025-06-05T13:47:35Z</time>
      </trkpt>
      <trkpt lat="45.75632" lon="6.55306">
        <ele>1772</ele>
        <time>2025-06-05T13:47:38Z</time>
      </trkpt>
      <trkpt lat="45.75618" lon="6.55295">
        <ele>1771</ele>
        <time>2025-06-05T13:47:41Z</time>
      </trkpt>
      <trkpt lat="45.75609" lon="6.55279">
        <ele>1769</ele>
        <time>2025-06-05T13:47:45Z</time>
      </trkpt>
      <trkpt lat="45.75602" lon="6.5527">
        <ele>1768</ele>
        <time>2025-06-05T13:47:47Z</time>
      </trkpt>
      <trkpt lat="45.75583" lon="6.55255">
        <ele>1766</ele>
        <time>2025-06-05T13:47:52Z</time>
      </trkpt>
      <trkpt lat="45.75569" lon="6.5524">
        <ele>1764</ele>
        <time>2025-06-05T13:47:56Z</time>
      </trkpt>
      <trkpt lat="45.75549" lon="6.55227">
        <ele>1762</ele>
        <time>2025-06-05T13:48:01Z</time>
      </trkpt>
      <trkpt lat="45.75542" lon="6.55221">
        <ele>1762</ele>
        <time>2025-06-05T13:48:03Z</time>
      </trkpt>
      <trkpt lat="45.75536" lon="6.55218">
        <ele>1761</ele>
        <time>2025-06-05T13:48:05Z</time>
      </trkpt>
      <trkpt lat="45.75528" lon="6.55218">
        <ele>1762</ele>
        <time>2025-06-05T13:48:06Z</time>
      </trkpt>
      <trkpt lat="45.75517" lon="6.55217">
        <ele>1763</ele>
        <time>2025-06-05T13:48:09Z</time>
      </trkpt>
      <trkpt lat="45.75499" lon="6.55217">
        <ele>1764</ele>
        <time>2025-06-05T13:48:13Z</time>
      </trkpt>
      <trkpt lat="45.75482" lon="6.55213">
        <ele>1762</ele>
        <time>2025-06-05T13:48:17Z</time>
      </trkpt>
      <trkpt lat="45.75476" lon="6.55211">
        <ele>1761</ele>
        <time>2025-06-05T13:48:19Z</time>
      </trkpt>
      <trkpt lat="45.75461" lon="6.5521">
        <ele>1759</ele>
        <time>2025-06-05T13:48:22Z</time>
      </trkpt>
      <trkpt lat="45.75453" lon="6.55211">
        <ele>1759</ele>
        <time>2025-06-05T13:48:24Z</time>
      </trkpt>
      <trkpt lat="45.75441" lon="6.55216">
        <ele>1759</ele>
        <time>2025-06-05T13:48:27Z</time>
      </trkpt>
      <trkpt lat="45.75429" lon="6.55218">
        <ele>1759</ele>
        <time>2025-06-05T13:48:30Z</time>
      </trkpt>
      <trkpt lat="45.75421" lon="6.55223">
        <ele>1759</ele>
        <time>2025-06-05T13:48:32Z</time>
      </trkpt>
      <trkpt lat="45.75404" lon="6.55239">
        <ele>1761</ele>
        <time>2025-06-05T13:48:37Z</time>
      </trkpt>
      <trkpt lat="45.75392" lon="6.5525">
        <ele>1761</ele>
        <time>2025-06-05T13:48:40Z</time>
      </trkpt>
      <trkpt lat="45.75368" lon="6.55278">
        <ele>1763</ele>
        <time>2025-06-05T13:48:47Z</time>
      </trkpt>
      <trkpt lat="45.75362" lon="6.55284">
        <ele>1764</ele>
        <time>2025-06-05T13:48:49Z</time>
      </trkpt>
      <trkpt lat="45.75355" lon="6.5529">
        <ele>1764</ele>
        <time>2025-06-05T13:48:51Z</time>
      </trkpt>
      <trkpt lat="45.75333" lon="6.55299">
        <ele>1762</ele>
        <time>2025-06-05T13:48:56Z</time>
      </trkpt>
      <trkpt lat="45.75319" lon="6.55306">
        <ele>1763</ele>
        <time>2025-06-05T13:49:00Z</time>
      </trkpt>
      <trkpt lat="45.75311" lon="6.55308">
        <ele>1763</ele>
        <time>2025-06-05T13:49:01Z</time>
      </trkpt>
      <trkpt lat="45.75289" lon="6.55311">
        <ele>1762</ele>
        <time>2025-06-05T13:49:07Z</time>
      </trkpt>
      <trkpt lat="45.75273" lon="6.55304">
        <ele>1759</ele>
        <time>2025-06-05T13:49:10Z</time>
      </trkpt>
      <trkpt lat="45.75261" lon="6.55296">
        <ele>1756</ele>
        <time>2025-06-05T13:49:14Z</time>
      </trkpt>
      <trkpt lat="45.75244" lon="6.55288">
        <ele>1753</ele>
        <time>2025-06-05T13:49:18Z</time>
      </trkpt>
      <trkpt lat="45.75204" lon="6.55261">
        <ele>1747</ele>
        <time>2025-06-05T13:49:28Z</time>
      </trkpt>
      <trkpt lat="45.75191" lon="6.55264">
        <ele>1748</ele>
        <time>2025-06-05T13:49:31Z</time>
      </trkpt>
      <trkpt lat="45.75181" lon="6.55261">
        <ele>1748</ele>
        <time>2025-06-05T13:49:34Z</time>
      </trkpt>
      <trkpt lat="45.75174" lon="6.55263">
        <ele>1749</ele>
        <time>2025-06-05T13:49:35Z</time>
      </trkpt>
      <trkpt lat="45.75162" lon="6.55271">
        <ele>1750</ele>
        <time>2025-06-05T13:49:38Z</time>
      </trkpt>
      <trkpt lat="45.75147" lon="6.55283">
        <ele>1750</ele>
        <time>2025-06-05T13:49:42Z</time>
      </trkpt>
      <trkpt lat="45.75136" lon="6.55311">
        <ele>1754</ele>
        <time>2025-06-05T13:49:48Z</time>
      </trkpt>
      <trkpt lat="45.75129" lon="6.55337">
        <ele>1758</ele>
        <time>2025-06-05T13:49:52Z</time>
      </trkpt>
      <trkpt lat="45.75118" lon="6.55363">
        <ele>1759</ele>
        <time>2025-06-05T13:49:57Z</time>
      </trkpt>
      <trkpt lat="45.75102" lon="6.55388">
        <ele>1759</ele>
        <time>2025-06-05T13:50:03Z</time>
      </trkpt>
      <trkpt lat="45.75094" lon="6.55399">
        <ele>1759</ele>
        <time>2025-06-05T13:50:05Z</time>
      </trkpt>
      <trkpt lat="45.75088" lon="6.55453">
        <ele>1757</ele>
        <time>2025-06-05T13:50:14Z</time>
      </trkpt>
      <trkpt lat="45.75091" lon="6.55477">
        <ele>1757</ele>
        <time>2025-06-05T13:50:18Z</time>
      </trkpt>
      <trkpt lat="45.75098" lon="6.55504">
        <ele>1757</ele>
        <time>2025-06-05T13:50:23Z</time>
      </trkpt>
      <trkpt lat="45.75107" lon="6.55526">
        <ele>1754</ele>
        <time>2025-06-05T13:50:27Z</time>
      </trkpt>
      <trkpt lat="45.7512" lon="6.55544">
        <ele>1754</ele>
        <time>2025-06-05T13:50:31Z</time>
      </trkpt>
      <trkpt lat="45.75127" lon="6.55549">
        <ele>1755</ele>
        <time>2025-06-05T13:50:33Z</time>
      </trkpt>
      <trkpt lat="45.75136" lon="6.55561">
        <ele>1754</ele>
        <time>2025-06-05T13:50:36Z</time>
      </trkpt>
      <trkpt lat="45.75156" lon="6.55578">
        <ele>1755</ele>
        <time>2025-06-05T13:50:41Z</time>
      </trkpt>
      <trkpt lat="45.75184" lon="6.556">
        <ele>1756</ele>
        <time>2025-06-05T13:50:49Z</time>
      </trkpt>
      <trkpt lat="45.75194" lon="6.55606">
        <ele>1758</ele>
        <time>2025-06-05T13:50:51Z</time>
      </trkpt>
      <trkpt lat="45.75206" lon="6.55617">
        <ele>1759</ele>
        <time>2025-06-05T13:50:55Z</time>
      </trkpt>
      <trkpt lat="45.75212" lon="6.55626">
        <ele>1758</ele>
        <time>2025-06-05T13:50:57Z</time>
      </trkpt>
      <trkpt lat="45.75232" lon="6.55646">
        <ele>1759</ele>
        <time>2025-06-05T13:51:02Z</time>
      </trkpt>
      <trkpt lat="45.7524" lon="6.55655">
        <ele>1759</ele>
        <time>2025-06-05T13:51:05Z</time>
      </trkpt>
      <trkpt lat="45.75283" lon="6.55695">
        <ele>1756</ele>
        <time>2025-06-05T13:51:17Z</time>
      </trkpt>
      <trkpt lat="45.75312" lon="6.55729">
        <ele>1755</ele>
        <time>2025-06-05T13:51:25Z</time>
      </trkpt>
      <trkpt lat="45.75334" lon="6.55762">
        <ele>1753</ele>
        <time>2025-06-05T13:51:33Z</time>
      </trkpt>
      <trkpt lat="45.75354" lon="6.55795">
        <ele>1750</ele>
        <time>2025-06-05T13:51:40Z</time>
      </trkpt>
      <trkpt lat="45.75379" lon="6.55858">
        <ele>1746</ele>
        <time>2025-06-05T13:51:52Z</time>
      </trkpt>
      <trkpt lat="45.75388" lon="6.55879">
        <ele>1747</ele>
        <time>2025-06-05T13:51:56Z</time>
      </trkpt>
      <trkpt lat="45.75396" lon="6.55896">
        <ele>1747</ele>
        <time>2025-06-05T13:51:59Z</time>
      </trkpt>
      <trkpt lat="45.75398" lon="6.55937">
        <ele>1740</ele>
        <time>2025-06-05T13:52:06Z</time>
      </trkpt>
      <trkpt lat="45.75414" lon="6.55966">
        <ele>1745</ele>
        <time>2025-06-05T13:52:12Z</time>
      </trkpt>
      <trkpt lat="45.75413" lon="6.55979">
        <ele>1742</ele>
        <time>2025-06-05T13:52:14Z</time>
      </trkpt>
      <trkpt lat="45.75408" lon="6.56035">
        <ele>1735</ele>
        <time>2025-06-05T13:52:23Z</time>
      </trkpt>
      <trkpt lat="45.75407" lon="6.56056">
        <ele>1734</ele>
        <time>2025-06-05T13:52:27Z</time>
      </trkpt>
      <trkpt lat="45.75403" lon="6.56077">
        <ele>1731</ele>
        <time>2025-06-05T13:52:30Z</time>
      </trkpt>
      <trkpt lat="45.75396" lon="6.56103">
        <ele>1726</ele>
        <time>2025-06-05T13:52:35Z</time>
      </trkpt>
      <trkpt lat="45.75393" lon="6.56121">
        <ele>1724</ele>
        <time>2025-06-05T13:52:38Z</time>
      </trkpt>
      <trkpt lat="45.75393" lon="6.56138">
        <ele>1724</ele>
        <time>2025-06-05T13:52:40Z</time>
      </trkpt>
      <trkpt lat="45.75396" lon="6.56155">
        <ele>1725</ele>
        <time>2025-06-05T13:52:43Z</time>
      </trkpt>
      <trkpt lat="45.75404" lon="6.5617">
        <ele>1727</ele>
        <time>2025-06-05T13:52:46Z</time>
      </trkpt>
      <trkpt lat="45.75413" lon="6.56178">
        <ele>1729</ele>
        <time>2025-06-05T13:52:49Z</time>
      </trkpt>
      <trkpt lat="45.75423" lon="6.5619">
        <ele>1729</ele>
        <time>2025-06-05T13:52:52Z</time>
      </trkpt>
      <trkpt lat="45.7543" lon="6.56197">
        <ele>1730</ele>
        <time>2025-06-05T13:52:54Z</time>
      </trkpt>
      <trkpt lat="45.75439" lon="6.56202">
        <ele>1731</ele>
        <time>2025-06-05T13:52:56Z</time>
      </trkpt>
      <trkpt lat="45.75447" lon="6.5621">
        <ele>1731</ele>
        <time>2025-06-05T13:52:58Z</time>
      </trkpt>
      <trkpt lat="45.7545" lon="6.56215">
        <ele>1730</ele>
        <time>2025-06-05T13:52:59Z</time>
      </trkpt>
      <trkpt lat="45.75455" lon="6.56219">
        <ele>1730</ele>
        <time>2025-06-05T13:53:01Z</time>
      </trkpt>
      <trkpt lat="45.75478" lon="6.56228">
        <ele>1734</ele>
        <time>2025-06-05T13:53:06Z</time>
      </trkpt>
      <trkpt lat="45.75504" lon="6.56235">
        <ele>1738</ele>
        <time>2025-06-05T13:53:13Z</time>
      </trkpt>
      <trkpt lat="45.7551" lon="6.56242">
        <ele>1737</ele>
        <time>2025-06-05T13:53:14Z</time>
      </trkpt>
      <trkpt lat="45.75532" lon="6.56253">
        <ele>1736</ele>
        <time>2025-06-05T13:53:20Z</time>
      </trkpt>
      <trkpt lat="45.75538" lon="6.56258">
        <ele>1735</ele>
        <time>2025-06-05T13:53:21Z</time>
      </trkpt>
      <trkpt lat="45.75599" lon="6.5629">
        <ele>1734</ele>
        <time>2025-06-05T13:53:37Z</time>
      </trkpt>
      <trkpt lat="45.75621" lon="6.56297">
        <ele>1734</ele>
        <time>2025-06-05T13:53:42Z</time>
      </trkpt>
      <trkpt lat="45.75664" lon="6.56308">
        <ele>1736</ele>
        <time>2025-06-05T13:53:52Z</time>
      </trkpt>
      <trkpt lat="45.75672" lon="6.56313">
        <ele>1734</ele>
        <time>2025-06-05T13:53:54Z</time>
      </trkpt>
      <trkpt lat="45.75675" lon="6.56313">
        <ele>1734</ele>
        <time>2025-06-05T13:53:55Z</time>
      </trkpt>
      <trkpt lat="45.75685" lon="6.56315">
        <ele>1734</ele>
        <time>2025-06-05T13:53:57Z</time>
      </trkpt>
      <trkpt lat="45.75719" lon="6.56335">
        <ele>1728</ele>
        <time>2025-06-05T13:54:06Z</time>
      </trkpt>
      <trkpt lat="45.75749" lon="6.56348">
        <ele>1725</ele>
        <time>2025-06-05T13:54:13Z</time>
      </trkpt>
      <trkpt lat="45.75759" lon="6.56354">
        <ele>1724</ele>
        <time>2025-06-05T13:54:16Z</time>
      </trkpt>
      <trkpt lat="45.75776" lon="6.56358">
        <ele>1724</ele>
        <time>2025-06-05T13:54:20Z</time>
      </trkpt>
      <trkpt lat="45.75783" lon="6.56361">
        <ele>1723</ele>
        <time>2025-06-05T13:54:21Z</time>
      </trkpt>
      <trkpt lat="45.75798" lon="6.56371">
        <ele>1721</ele>
        <time>2025-06-05T13:54:25Z</time>
      </trkpt>
      <trkpt lat="45.7582" lon="6.56362">
        <ele>1725</ele>
        <time>2025-06-05T13:54:31Z</time>
      </trkpt>
      <trkpt lat="45.75829" lon="6.56361">
        <ele>1726</ele>
        <time>2025-06-05T13:54:33Z</time>
      </trkpt>
      <trkpt lat="45.7585" lon="6.56364">
        <ele>1731</ele>
        <time>2025-06-05T13:54:38Z</time>
      </trkpt>
      <trkpt lat="45.75855" lon="6.56364">
        <ele>1732</ele>
        <time>2025-06-05T13:54:39Z</time>
      </trkpt>
      <trkpt lat="45.75859" lon="6.5636">
        <ele>1734</ele>
        <time>2025-06-05T13:54:40Z</time>
      </trkpt>
      <trkpt lat="45.75861" lon="6.56356">
        <ele>1736</ele>
        <time>2025-06-05T13:54:41Z</time>
      </trkpt>
      <trkpt lat="45.75882" lon="6.56309">
        <ele>1749</ele>
        <time>2025-06-05T13:54:50Z</time>
      </trkpt>
      <trkpt lat="45.759" lon="6.56266">
        <ele>1757</ele>
        <time>2025-06-05T13:54:58Z</time>
      </trkpt>
      <trkpt lat="45.75909" lon="6.56263">
        <ele>1759</ele>
        <time>2025-06-05T13:55:00Z</time>
      </trkpt>
      <trkpt lat="45.75927" lon="6.5629">
        <ele>1760</ele>
        <time>2025-06-05T13:55:06Z</time>
      </trkpt>
      <trkpt lat="45.7593" lon="6.56299">
        <ele>1760</ele>
        <time>2025-06-05T13:55:08Z</time>
      </trkpt>
      <trkpt lat="45.75939" lon="6.56346">
        <ele>1760</ele>
        <time>2025-06-05T13:55:16Z</time>
      </trkpt>
      <trkpt lat="45.75946" lon="6.56373">
        <ele>1760</ele>
        <time>2025-06-05T13:55:20Z</time>
      </trkpt>
      <trkpt lat="45.75959" lon="6.56406">
        <ele>1763</ele>
        <time>2025-06-05T13:55:27Z</time>
      </trkpt>
      <trkpt lat="45.75971" lon="6.56426">
        <ele>1765</ele>
        <time>2025-06-05T13:55:31Z</time>
      </trkpt>
      <trkpt lat="45.75993" lon="6.56468">
        <ele>1765</ele>
        <time>2025-06-05T13:55:39Z</time>
      </trkpt>
      <trkpt lat="45.76017" lon="6.56491">
        <ele>1768</ele>
        <time>2025-06-05T13:55:46Z</time>
      </trkpt>
      <trkpt lat="45.76029" lon="6.56511">
        <ele>1767</ele>
        <time>2025-06-05T13:55:51Z</time>
      </trkpt>
      <trkpt lat="45.76037" lon="6.5652">
        <ele>1767</ele>
        <time>2025-06-05T13:55:53Z</time>
      </trkpt>
      <trkpt lat="45.7605" lon="6.56531">
        <ele>1768</ele>
        <time>2025-06-05T13:55:56Z</time>
      </trkpt>
      <trkpt lat="45.76058" lon="6.56541">
        <ele>1769</ele>
        <time>2025-06-05T13:55:59Z</time>
      </trkpt>
      <trkpt lat="45.76067" lon="6.56556">
        <ele>1768</ele>
        <time>2025-06-05T13:56:02Z</time>
      </trkpt>
      <trkpt lat="45.76084" lon="6.5657">
        <ele>1772</ele>
        <time>2025-06-05T13:56:07Z</time>
      </trkpt>
      <trkpt lat="45.76091" lon="6.56572">
        <ele>1774</ele>
        <time>2025-06-05T13:56:08Z</time>
      </trkpt>
      <trkpt lat="45.76093" lon="6.56566">
        <ele>1776</ele>
        <time>2025-06-05T13:56:09Z</time>
      </trkpt>
      <trkpt lat="45.76092" lon="6.56552">
        <ele>1778</ele>
        <time>2025-06-05T13:56:12Z</time>
      </trkpt>
      <trkpt lat="45.76089" lon="6.56532">
        <ele>1782</ele>
        <time>2025-06-05T13:56:15Z</time>
      </trkpt>
      <trkpt lat="45.76096" lon="6.56538">
        <ele>1783</ele>
        <time>2025-06-05T13:56:17Z</time>
      </trkpt>
      <trkpt lat="45.7611" lon="6.56558">
        <ele>1782</ele>
        <time>2025-06-05T13:56:22Z</time>
      </trkpt>
      <trkpt lat="45.7613" lon="6.566">
        <ele>1780</ele>
        <time>2025-06-05T13:56:30Z</time>
      </trkpt>
      <trkpt lat="45.76139" lon="6.56631">
        <ele>1778</ele>
        <time>2025-06-05T13:56:35Z</time>
      </trkpt>
      <trkpt lat="45.76149" lon="6.56654">
        <ele>1778</ele>
        <time>2025-06-05T13:56:40Z</time>
      </trkpt>
      <trkpt lat="45.76157" lon="6.5667">
        <ele>1778</ele>
        <time>2025-06-05T13:56:43Z</time>
      </trkpt>
      <trkpt lat="45.76187" lon="6.56693">
        <ele>1782</ele>
        <time>2025-06-05T13:56:51Z</time>
      </trkpt>
      <trkpt lat="45.76205" lon="6.56716">
        <ele>1783</ele>
        <time>2025-06-05T13:56:57Z</time>
      </trkpt>
      <trkpt lat="45.7623" lon="6.56766">
        <ele>1782</ele>
        <time>2025-06-05T13:57:07Z</time>
      </trkpt>
      <trkpt lat="45.76242" lon="6.56784">
        <ele>1782</ele>
        <time>2025-06-05T13:57:11Z</time>
      </trkpt>
      <trkpt lat="45.76247" lon="6.5679">
        <ele>1783</ele>
        <time>2025-06-05T13:57:12Z</time>
      </trkpt>
      <trkpt lat="45.76265" lon="6.56805">
        <ele>1784</ele>
        <time>2025-06-05T13:57:17Z</time>
      </trkpt>
      <trkpt lat="45.76268" lon="6.56812">
        <ele>1784</ele>
        <time>2025-06-05T13:57:18Z</time>
      </trkpt>
      <trkpt lat="45.76269" lon="6.56822">
        <ele>1782</ele>
        <time>2025-06-05T13:57:20Z</time>
      </trkpt>
      <trkpt lat="45.76269" lon="6.56838">
        <ele>1780</ele>
        <time>2025-06-05T13:57:23Z</time>
      </trkpt>
      <trkpt lat="45.7627" lon="6.56849">
        <ele>1778</ele>
        <time>2025-06-05T13:57:24Z</time>
      </trkpt>
      <trkpt lat="45.76273" lon="6.5686">
        <ele>1777</ele>
        <time>2025-06-05T13:57:26Z</time>
      </trkpt>
      <trkpt lat="45.76277" lon="6.56867">
        <ele>1776</ele>
        <time>2025-06-05T13:57:28Z</time>
      </trkpt>
      <trkpt lat="45.76284" lon="6.56872">
        <ele>1777</ele>
        <time>2025-06-05T13:57:30Z</time>
      </trkpt>
      <trkpt lat="45.76292" lon="6.56873">
        <ele>1778</ele>
        <time>2025-06-05T13:57:32Z</time>
      </trkpt>
      <trkpt lat="45.76305" lon="6.56872">
        <ele>1781</ele>
        <time>2025-06-05T13:57:35Z</time>
      </trkpt>
      <trkpt lat="45.76334" lon="6.56871">
        <ele>1786</ele>
        <time>2025-06-05T13:57:41Z</time>
      </trkpt>
      <trkpt lat="45.76341" lon="6.56872">
        <ele>1786</ele>
        <time>2025-06-05T13:57:43Z</time>
      </trkpt>
      <trkpt lat="45.76356" lon="6.56875">
        <ele>1786</ele>
        <time>2025-06-05T13:57:47Z</time>
      </trkpt>
      <trkpt lat="45.76366" lon="6.56881">
        <ele>1785</ele>
        <time>2025-06-05T13:57:49Z</time>
      </trkpt>
      <trkpt lat="45.76387" lon="6.56898">
        <ele>1783</ele>
        <time>2025-06-05T13:57:55Z</time>
      </trkpt>
      <trkpt lat="45.76411" lon="6.5693">
        <ele>1782</ele>
        <time>2025-06-05T13:58:02Z</time>
      </trkpt>
      <trkpt lat="45.76445" lon="6.56959">
        <ele>1778</ele>
        <time>2025-06-05T13:58:12Z</time>
      </trkpt>
      <trkpt lat="45.76492" lon="6.56978">
        <ele>1779</ele>
        <time>2025-06-05T13:58:23Z</time>
      </trkpt>
      <trkpt lat="45.76507" lon="6.56986">
        <ele>1779</ele>
        <time>2025-06-05T13:58:27Z</time>
      </trkpt>
      <trkpt lat="45.76518" lon="6.57003">
        <ele>1779</ele>
        <time>2025-06-05T13:58:30Z</time>
      </trkpt>
      <trkpt lat="45.76534" lon="6.57023">
        <ele>1778</ele>
        <time>2025-06-05T13:58:35Z</time>
      </trkpt>
      <trkpt lat="45.76544" lon="6.57039">
        <ele>1779</ele>
        <time>2025-06-05T13:58:39Z</time>
      </trkpt>
      <trkpt lat="45.76562" lon="6.57073">
        <ele>1784</ele>
        <time>2025-06-05T13:58:46Z</time>
      </trkpt>
      <trkpt lat="45.76572" lon="6.571">
        <ele>1786</ele>
        <time>2025-06-05T13:58:51Z</time>
      </trkpt>
      <trkpt lat="45.76577" lon="6.5711">
        <ele>1787</ele>
        <time>2025-06-05T13:58:53Z</time>
      </trkpt>
      <trkpt lat="45.7661" lon="6.57164">
        <ele>1795</ele>
        <time>2025-06-05T13:59:05Z</time>
      </trkpt>
      <trkpt lat="45.7663" lon="6.57258">
        <ele>1805</ele>
        <time>2025-06-05T13:59:21Z</time>
      </trkpt>
      <trkpt lat="45.7663" lon="6.57298">
        <ele>1808</ele>
        <time>2025-06-05T13:59:27Z</time>
      </trkpt>
      <trkpt lat="45.76634" lon="6.5732">
        <ele>1811</ele>
        <time>2025-06-05T13:59:31Z</time>
      </trkpt>
      <trkpt lat="45.76635" lon="6.57334">
        <ele>1812</ele>
        <time>2025-06-05T13:59:33Z</time>
      </trkpt>
      <trkpt lat="45.7663" lon="6.57349">
        <ele>1812</ele>
        <time>2025-06-05T13:59:36Z</time>
      </trkpt>
      <trkpt lat="45.76626" lon="6.57357">
        <ele>1811</ele>
        <time>2025-06-05T13:59:37Z</time>
      </trkpt>
      <trkpt lat="45.76615" lon="6.57459">
        <ele>1816</ele>
        <time>2025-06-05T13:59:54Z</time>
      </trkpt>
      <trkpt lat="45.76616" lon="6.5748">
        <ele>1818</ele>
        <time>2025-06-05T13:59:58Z</time>
      </trkpt>
      <trkpt lat="45.76633" lon="6.57552">
        <ele>1822</ele>
        <time>2025-06-05T14:00:10Z</time>
      </trkpt>
      <trkpt lat="45.76638" lon="6.57563">
        <ele>1823</ele>
        <time>2025-06-05T14:00:12Z</time>
      </trkpt>
      <trkpt lat="45.76644" lon="6.57577">
        <ele>1824</ele>
        <time>2025-06-05T14:00:15Z</time>
      </trkpt>
      <trkpt lat="45.76652" lon="6.57587">
        <ele>1827</ele>
        <time>2025-06-05T14:00:17Z</time>
      </trkpt>
      <trkpt lat="45.76673" lon="6.57611">
        <ele>1831</ele>
        <time>2025-06-05T14:00:24Z</time>
      </trkpt>
      <trkpt lat="45.76687" lon="6.57629">
        <ele>1832</ele>
        <time>2025-06-05T14:00:28Z</time>
      </trkpt>
      <trkpt lat="45.76714" lon="6.57659">
        <ele>1836</ele>
        <time>2025-06-05T14:00:36Z</time>
      </trkpt>
      <trkpt lat="45.76761" lon="6.57701">
        <ele>1843</ele>
        <time>2025-06-05T14:00:49Z</time>
      </trkpt>
      <trkpt lat="45.76781" lon="6.57718">
        <ele>1847</ele>
        <time>2025-06-05T14:00:54Z</time>
      </trkpt>
      <trkpt lat="45.76789" lon="6.57726">
        <ele>1848</ele>
        <time>2025-06-05T14:00:57Z</time>
      </trkpt>
      <trkpt lat="45.76795" lon="6.57738">
        <ele>1848</ele>
        <time>2025-06-05T14:00:59Z</time>
      </trkpt>
      <trkpt lat="45.76804" lon="6.57775">
        <ele>1848</ele>
        <time>2025-06-05T14:01:05Z</time>
      </trkpt>
      <trkpt lat="45.76809" lon="6.57789">
        <ele>1848</ele>
        <time>2025-06-05T14:01:08Z</time>
      </trkpt>
      <trkpt lat="45.76813" lon="6.57798">
        <ele>1849</ele>
        <time>2025-06-05T14:01:10Z</time>
      </trkpt>
      <trkpt lat="45.76833" lon="6.57828">
        <ele>1853</ele>
        <time>2025-06-05T14:01:16Z</time>
      </trkpt>
      <trkpt lat="45.76841" lon="6.57847">
        <ele>1856</ele>
        <time>2025-06-05T14:01:20Z</time>
      </trkpt>
      <trkpt lat="45.76848" lon="6.5787">
        <ele>1859</ele>
        <time>2025-06-05T14:01:24Z</time>
      </trkpt>
      <trkpt lat="45.76853" lon="6.57898">
        <ele>1861</ele>
        <time>2025-06-05T14:01:29Z</time>
      </trkpt>
      <trkpt lat="45.76856" lon="6.57936">
        <ele>1863</ele>
        <time>2025-06-05T14:01:35Z</time>
      </trkpt>
      <trkpt lat="45.76858" lon="6.5801">
        <ele>1868</ele>
        <time>2025-06-05T14:01:47Z</time>
      </trkpt>
      <trkpt lat="45.76857" lon="6.58086">
        <ele>1871</ele>
        <time>2025-06-05T14:02:00Z</time>
      </trkpt>
      <trkpt lat="45.76859" lon="6.5811">
        <ele>1873</ele>
        <time>2025-06-05T14:02:03Z</time>
      </trkpt>
      <trkpt lat="45.76869" lon="6.58164">
        <ele>1878</ele>
        <time>2025-06-05T14:02:13Z</time>
      </trkpt>
      <trkpt lat="45.76871" lon="6.58195">
        <ele>1878</ele>
        <time>2025-06-05T14:02:18Z</time>
      </trkpt>
      <trkpt lat="45.76875" lon="6.58252">
        <ele>1878</ele>
        <time>2025-06-05T14:02:27Z</time>
      </trkpt>
      <trkpt lat="45.76882" lon="6.58298">
        <ele>1877</ele>
        <time>2025-06-05T14:02:35Z</time>
      </trkpt>
      <trkpt lat="45.76897" lon="6.58351">
        <ele>1880</ele>
        <time>2025-06-05T14:02:44Z</time>
      </trkpt>
      <trkpt lat="45.76916" lon="6.584">
        <ele>1890</ele>
        <time>2025-06-05T14:02:53Z</time>
      </trkpt>
      <trkpt lat="45.76938" lon="6.58444">
        <ele>1887</ele>
        <time>2025-06-05T14:03:02Z</time>
      </trkpt>
      <trkpt lat="45.76953" lon="6.58484">
        <ele>1887</ele>
        <time>2025-06-05T14:03:09Z</time>
      </trkpt>
      <trkpt lat="45.76971" lon="6.58528">
        <ele>1890</ele>
        <time>2025-06-05T14:03:18Z</time>
      </trkpt>
      <trkpt lat="45.76986" lon="6.58559">
        <ele>1894</ele>
        <time>2025-06-05T14:03:24Z</time>
      </trkpt>
      <trkpt lat="45.77003" lon="6.5859">
        <ele>1901</ele>
        <time>2025-06-05T14:03:30Z</time>
      </trkpt>
      <trkpt lat="45.77021" lon="6.58617">
        <ele>1898</ele>
        <time>2025-06-05T14:03:36Z</time>
      </trkpt>
      <trkpt lat="45.77038" lon="6.58653">
        <ele>1899</ele>
        <time>2025-06-05T14:03:43Z</time>
      </trkpt>
      <trkpt lat="45.7705" lon="6.58684">
        <ele>1902</ele>
        <time>2025-06-05T14:03:49Z</time>
      </trkpt>
      <trkpt lat="45.77061" lon="6.58723">
        <ele>1909</ele>
        <time>2025-06-05T14:03:56Z</time>
      </trkpt>
      <trkpt lat="45.77088" lon="6.58802">
        <ele>1923</ele>
        <time>2025-06-05T14:04:10Z</time>
      </trkpt>
      <trkpt lat="45.77112" lon="6.58853">
        <ele>1924</ele>
        <time>2025-06-05T14:04:20Z</time>
      </trkpt>
      <trkpt lat="45.7714" lon="6.58893">
        <ele>1925</ele>
        <time>2025-06-05T14:04:30Z</time>
      </trkpt>
      <trkpt lat="45.7715" lon="6.58901">
        <ele>1926</ele>
        <time>2025-06-05T14:04:32Z</time>
      </trkpt>
      <trkpt lat="45.77168" lon="6.58915">
        <ele>1928</ele>
        <time>2025-06-05T14:04:37Z</time>
      </trkpt>
      <trkpt lat="45.77173" lon="6.58922">
        <ele>1928</ele>
        <time>2025-06-05T14:04:39Z</time>
      </trkpt>
      <trkpt lat="45.7719" lon="6.58952">
        <ele>1930</ele>
        <time>2025-06-05T14:04:45Z</time>
      </trkpt>
      <trkpt lat="45.77212" lon="6.58984">
        <ele>1932</ele>
        <time>2025-06-05T14:04:52Z</time>
      </trkpt>
      <trkpt lat="45.77244" lon="6.59046">
        <ele>1938</ele>
        <time>2025-06-05T14:05:05Z</time>
      </trkpt>
      <trkpt lat="45.77267" lon="6.59087">
        <ele>1942</ele>
        <time>2025-06-05T14:05:13Z</time>
      </trkpt>
      <trkpt lat="45.77281" lon="6.59108">
        <ele>1943</ele>
        <time>2025-06-05T14:05:18Z</time>
      </trkpt>
      <trkpt lat="45.77291" lon="6.59124">
        <ele>1944</ele>
        <time>2025-06-05T14:05:22Z</time>
      </trkpt>
      <trkpt lat="45.77306" lon="6.5914">
        <ele>1944</ele>
        <time>2025-06-05T14:05:26Z</time>
      </trkpt>
      <trkpt lat="45.77315" lon="6.59146">
        <ele>1944</ele>
        <time>2025-06-05T14:05:28Z</time>
      </trkpt>
      <trkpt lat="45.77339" lon="6.59157">
        <ele>1944</ele>
        <time>2025-06-05T14:05:34Z</time>
      </trkpt>
      <trkpt lat="45.77353" lon="6.5917">
        <ele>1945</ele>
        <time>2025-06-05T14:05:38Z</time>
      </trkpt>
      <trkpt lat="45.7737" lon="6.59195">
        <ele>1944</ele>
        <time>2025-06-05T14:05:44Z</time>
      </trkpt>
      <trkpt lat="45.7738" lon="6.59204">
        <ele>1944</ele>
        <time>2025-06-05T14:05:47Z</time>
      </trkpt>
      <trkpt lat="45.77392" lon="6.5921">
        <ele>1943</ele>
        <time>2025-06-05T14:05:50Z</time>
      </trkpt>
      <trkpt lat="45.77402" lon="6.5921">
        <ele>1943</ele>
        <time>2025-06-05T14:05:52Z</time>
      </trkpt>
      <trkpt lat="45.77411" lon="6.59208">
        <ele>1943</ele>
        <time>2025-06-05T14:05:54Z</time>
      </trkpt>
      <trkpt lat="45.7746" lon="6.59194">
        <ele>1944</ele>
        <time>2025-06-05T14:06:06Z</time>
      </trkpt>
      <trkpt lat="45.77472" lon="6.59192">
        <ele>1944</ele>
        <time>2025-06-05T14:06:08Z</time>
      </trkpt>
      <trkpt lat="45.77487" lon="6.59193">
        <ele>1944</ele>
        <time>2025-06-05T14:06:12Z</time>
      </trkpt>
      <trkpt lat="45.77498" lon="6.59197">
        <ele>1945</ele>
        <time>2025-06-05T14:06:15Z</time>
      </trkpt>
      <trkpt lat="45.77507" lon="6.59206">
        <ele>1945</ele>
        <time>2025-06-05T14:06:17Z</time>
      </trkpt>
      <trkpt lat="45.77517" lon="6.59221">
        <ele>1946</ele>
        <time>2025-06-05T14:06:21Z</time>
      </trkpt>
      <trkpt lat="45.77571" lon="6.59264">
        <ele>1950</ele>
        <time>2025-06-05T14:06:35Z</time>
      </trkpt>
      <trkpt lat="45.77606" lon="6.59286">
        <ele>1953</ele>
        <time>2025-06-05T14:06:44Z</time>
      </trkpt>
      <trkpt lat="45.77639" lon="6.59289">
        <ele>1955</ele>
        <time>2025-06-05T14:06:52Z</time>
      </trkpt>
      <trkpt lat="45.77655" lon="6.59319">
        <ele>1958</ele>
        <time>2025-06-05T14:06:58Z</time>
      </trkpt>
      <trkpt lat="45.7766" lon="6.59331">
        <ele>1959</ele>
        <time>2025-06-05T14:07:00Z</time>
      </trkpt>
      <trkpt lat="45.7768" lon="6.59378">
        <ele>1959</ele>
        <time>2025-06-05T14:07:09Z</time>
      </trkpt>
      <trkpt lat="45.77688" lon="6.59391">
        <ele>1959</ele>
        <time>2025-06-05T14:07:12Z</time>
      </trkpt>
      <trkpt lat="45.77714" lon="6.59421">
        <ele>1960</ele>
        <time>2025-06-05T14:07:20Z</time>
      </trkpt>
      <trkpt lat="45.7774" lon="6.59435">
        <ele>1960</ele>
        <time>2025-06-05T14:07:26Z</time>
      </trkpt>
      <trkpt lat="45.77752" lon="6.59448">
        <ele>1958</ele>
        <time>2025-06-05T14:07:30Z</time>
      </trkpt>
      <trkpt lat="45.77765" lon="6.59456">
        <ele>1957</ele>
        <time>2025-06-05T14:07:33Z</time>
      </trkpt>
      <trkpt lat="45.77777" lon="6.59461">
        <ele>1957</ele>
        <time>2025-06-05T14:07:36Z</time>
      </trkpt>
      <trkpt lat="45.77796" lon="6.59465">
        <ele>1957</ele>
        <time>2025-06-05T14:07:40Z</time>
      </trkpt>
      <trkpt lat="45.77803" lon="6.59468">
        <ele>1956</ele>
        <time>2025-06-05T14:07:42Z</time>
      </trkpt>
      <trkpt lat="45.77809" lon="6.59473">
        <ele>1956</ele>
        <time>2025-06-05T14:07:44Z</time>
      </trkpt>
      <trkpt lat="45.77812" lon="6.59475">
        <ele>1955</ele>
        <time>2025-06-05T14:07:44Z</time>
      </trkpt>
      <trkpt lat="45.77847" lon="6.59517">
        <ele>1949</ele>
        <time>2025-06-05T14:07:55Z</time>
      </trkpt>
      <trkpt lat="45.77859" lon="6.59528">
        <ele>1949</ele>
        <time>2025-06-05T14:07:58Z</time>
      </trkpt>
      <trkpt lat="45.77866" lon="6.59538">
        <ele>1948</ele>
        <time>2025-06-05T14:08:01Z</time>
      </trkpt>
      <trkpt lat="45.77873" lon="6.59546">
        <ele>1948</ele>
        <time>2025-06-05T14:08:03Z</time>
      </trkpt>
      <trkpt lat="45.77874" lon="6.59548">
        <ele>1947</ele>
        <time>2025-06-05T14:08:03Z</time>
      </trkpt>
      <trkpt lat="45.77909" lon="6.59629">
        <ele>1940</ele>
        <time>2025-06-05T14:08:19Z</time>
      </trkpt>
      <trkpt lat="45.77948" lon="6.59671">
        <ele>1935</ele>
        <time>2025-06-05T14:08:30Z</time>
      </trkpt>
      <trkpt lat="45.77984" lon="6.5968">
        <ele>1931</ele>
        <time>2025-06-05T14:08:39Z</time>
      </trkpt>
      <trkpt lat="45.78013" lon="6.59656">
        <ele>1935</ele>
        <time>2025-06-05T14:08:47Z</time>
      </trkpt>
      <trkpt lat="45.78034" lon="6.59662">
        <ele>1933</ele>
        <time>2025-06-05T14:08:52Z</time>
      </trkpt>
      <trkpt lat="45.78044" lon="6.59667">
        <ele>1931</ele>
        <time>2025-06-05T14:08:54Z</time>
      </trkpt>
      <trkpt lat="45.78051" lon="6.59674">
        <ele>1929</ele>
        <time>2025-06-05T14:08:56Z</time>
      </trkpt>
      <trkpt lat="45.78063" lon="6.59673">
        <ele>1929</ele>
        <time>2025-06-05T14:08:59Z</time>
      </trkpt>
      <trkpt lat="45.78075" lon="6.59667">
        <ele>1929</ele>
        <time>2025-06-05T14:09:02Z</time>
      </trkpt>
      <trkpt lat="45.78094" lon="6.59669">
        <ele>1930</ele>
        <time>2025-06-05T14:09:06Z</time>
      </trkpt>
      <trkpt lat="45.78124" lon="6.59686">
        <ele>1930</ele>
        <time>2025-06-05T14:09:14Z</time>
      </trkpt>
      <trkpt lat="45.78139" lon="6.59705">
        <ele>1926</ele>
        <time>2025-06-05T14:09:18Z</time>
      </trkpt>
      <trkpt lat="45.78148" lon="6.59722">
        <ele>1922</ele>
        <time>2025-06-05T14:09:22Z</time>
      </trkpt>
      <trkpt lat="45.78165" lon="6.59747">
        <ele>1917</ele>
        <time>2025-06-05T14:09:28Z</time>
      </trkpt>
      <trkpt lat="45.78187" lon="6.59773">
        <ele>1915</ele>
        <time>2025-06-05T14:09:34Z</time>
      </trkpt>
      <trkpt lat="45.78221" lon="6.59823">
        <ele>1908</ele>
        <time>2025-06-05T14:09:46Z</time>
      </trkpt>
      <trkpt lat="45.78224" lon="6.59827">
        <ele>1907</ele>
        <time>2025-06-05T14:09:47Z</time>
      </trkpt>
      <trkpt lat="45.78263" lon="6.59853">
        <ele>1908</ele>
        <time>2025-06-05T14:09:57Z</time>
      </trkpt>
      <trkpt lat="45.78306" lon="6.59871">
        <ele>1910</ele>
        <time>2025-06-05T14:10:07Z</time>
      </trkpt>
      <trkpt lat="45.78328" lon="6.5988">
        <ele>1910</ele>
        <time>2025-06-05T14:10:12Z</time>
      </trkpt>
      <trkpt lat="45.78344" lon="6.59884">
        <ele>1911</ele>
        <time>2025-06-05T14:10:16Z</time>
      </trkpt>
      <trkpt lat="45.78382" lon="6.59878">
        <ele>1914</ele>
        <time>2025-06-05T14:10:25Z</time>
      </trkpt>
      <trkpt lat="45.7841" lon="6.59886">
        <ele>1913</ele>
        <time>2025-06-05T14:10:32Z</time>
      </trkpt>
      <trkpt lat="45.78444" lon="6.59884">
        <ele>1916</ele>
        <time>2025-06-05T14:10:40Z</time>
      </trkpt>
      <trkpt lat="45.7846" lon="6.59889">
        <ele>1916</ele>
        <time>2025-06-05T14:10:44Z</time>
      </trkpt>
      <trkpt lat="45.78478" lon="6.59899">
        <ele>1915</ele>
        <time>2025-06-05T14:10:48Z</time>
      </trkpt>
      <trkpt lat="45.78518" lon="6.59925">
        <ele>1912</ele>
        <time>2025-06-05T14:10:58Z</time>
      </trkpt>
      <trkpt lat="45.78533" lon="6.59929">
        <ele>1913</ele>
        <time>2025-06-05T14:11:02Z</time>
      </trkpt>
      <trkpt lat="45.7855" lon="6.59931">
        <ele>1914</ele>
        <time>2025-06-05T14:11:06Z</time>
      </trkpt>
      <trkpt lat="45.78567" lon="6.59935">
        <ele>1914</ele>
        <time>2025-06-05T14:11:10Z</time>
      </trkpt>
      <trkpt lat="45.78593" lon="6.59942">
        <ele>1914</ele>
        <time>2025-06-05T14:11:16Z</time>
      </trkpt>
      <trkpt lat="45.78609" lon="6.5995">
        <ele>1914</ele>
        <time>2025-06-05T14:11:20Z</time>
      </trkpt>
      <trkpt lat="45.78631" lon="6.59956">
        <ele>1914</ele>
        <time>2025-06-05T14:11:25Z</time>
      </trkpt>
      <trkpt lat="45.7866" lon="6.59971">
        <ele>1913</ele>
        <time>2025-06-05T14:11:32Z</time>
      </trkpt>
      <trkpt lat="45.78673" lon="6.5998">
        <ele>1913</ele>
        <time>2025-06-05T14:11:36Z</time>
      </trkpt>
      <trkpt lat="45.78686" lon="6.59992">
        <ele>1912</ele>
        <time>2025-06-05T14:11:39Z</time>
      </trkpt>
      <trkpt lat="45.78703" lon="6.60002">
        <ele>1913</ele>
        <time>2025-06-05T14:11:44Z</time>
      </trkpt>
      <trkpt lat="45.78715" lon="6.60018">
        <ele>1911</ele>
        <time>2025-06-05T14:11:48Z</time>
      </trkpt>
      <trkpt lat="45.78722" lon="6.60025">
        <ele>1911</ele>
        <time>2025-06-05T14:11:50Z</time>
      </trkpt>
      <trkpt lat="45.78744" lon="6.60034">
        <ele>1914</ele>
        <time>2025-06-05T14:11:55Z</time>
      </trkpt>
      <trkpt lat="45.78751" lon="6.60039">
        <ele>1914</ele>
        <time>2025-06-05T14:11:57Z</time>
      </trkpt>
      <trkpt lat="45.78759" lon="6.60045">
        <ele>1914</ele>
        <time>2025-06-05T14:11:59Z</time>
      </trkpt>
      <trkpt lat="45.78776" lon="6.60066">
        <ele>1913</ele>
        <time>2025-06-05T14:12:04Z</time>
      </trkpt>
      <trkpt lat="45.78795" lon="6.60082">
        <ele>1914</ele>
        <time>2025-06-05T14:12:09Z</time>
      </trkpt>
      <trkpt lat="45.78822" lon="6.60099">
        <ele>1917</ele>
        <time>2025-06-05T14:12:16Z</time>
      </trkpt>
      <trkpt lat="45.78855" lon="6.60116">
        <ele>1921</ele>
        <time>2025-06-05T14:12:24Z</time>
      </trkpt>
      <trkpt lat="45.7888" lon="6.60125">
        <ele>1923</ele>
        <time>2025-06-05T14:12:30Z</time>
      </trkpt>
      <trkpt lat="45.78886" lon="6.60132">
        <ele>1923</ele>
        <time>2025-06-05T14:12:32Z</time>
      </trkpt>
      <trkpt lat="45.78893" lon="6.60142">
        <ele>1922</ele>
        <time>2025-06-05T14:12:34Z</time>
      </trkpt>
      <trkpt lat="45.78901" lon="6.60165">
        <ele>1919</ele>
        <time>2025-06-05T14:12:39Z</time>
      </trkpt>
      <trkpt lat="45.78905" lon="6.60176">
        <ele>1918</ele>
        <time>2025-06-05T14:12:41Z</time>
      </trkpt>
      <trkpt lat="45.78911" lon="6.60185">
        <ele>1917</ele>
        <time>2025-06-05T14:12:43Z</time>
      </trkpt>
      <trkpt lat="45.78919" lon="6.60193">
        <ele>1917</ele>
        <time>2025-06-05T14:12:45Z</time>
      </trkpt>
      <trkpt lat="45.78944" lon="6.60212">
        <ele>1919</ele>
        <time>2025-06-05T14:12:52Z</time>
      </trkpt>
      <trkpt lat="45.78963" lon="6.60225">
        <ele>1920</ele>
        <time>2025-06-05T14:12:56Z</time>
      </trkpt>
      <trkpt lat="45.78979" lon="6.60238">
        <ele>1921</ele>
        <time>2025-06-05T14:13:01Z</time>
      </trkpt>
      <trkpt lat="45.79008" lon="6.60275">
        <ele>1920</ele>
        <time>2025-06-05T14:13:10Z</time>
      </trkpt>
      <trkpt lat="45.79034" lon="6.60304">
        <ele>1923</ele>
        <time>2025-06-05T14:13:18Z</time>
      </trkpt>
      <trkpt lat="45.79048" lon="6.60325">
        <ele>1924</ele>
        <time>2025-06-05T14:13:22Z</time>
      </trkpt>
      <trkpt lat="45.79059" lon="6.60346">
        <ele>1925</ele>
        <time>2025-06-05T14:13:27Z</time>
      </trkpt>
      <trkpt lat="45.79065" lon="6.60363">
        <ele>1925</ele>
        <time>2025-06-05T14:13:30Z</time>
      </trkpt>
      <trkpt lat="45.79071" lon="6.60389">
        <ele>1926</ele>
        <time>2025-06-05T14:13:34Z</time>
      </trkpt>
      <trkpt lat="45.79074" lon="6.6042">
        <ele>1925</ele>
        <time>2025-06-05T14:13:39Z</time>
      </trkpt>
      <trkpt lat="45.79078" lon="6.60434">
        <ele>1925</ele>
        <time>2025-06-05T14:13:42Z</time>
      </trkpt>
      <trkpt lat="45.79084" lon="6.60447">
        <ele>1926</ele>
        <time>2025-06-05T14:13:44Z</time>
      </trkpt>
      <trkpt lat="45.79104" lon="6.6048">
        <ele>1927</ele>
        <time>2025-06-05T14:13:51Z</time>
      </trkpt>
      <trkpt lat="45.79118" lon="6.60499">
        <ele>1928</ele>
        <time>2025-06-05T14:13:56Z</time>
      </trkpt>
      <trkpt lat="45.79143" lon="6.60518">
        <ele>1931</ele>
        <time>2025-06-05T14:14:02Z</time>
      </trkpt>
      <trkpt lat="45.79158" lon="6.60552">
        <ele>1930</ele>
        <time>2025-06-05T14:14:09Z</time>
      </trkpt>
      <trkpt lat="45.79178" lon="6.60582">
        <ele>1931</ele>
        <time>2025-06-05T14:14:16Z</time>
      </trkpt>
      <trkpt lat="45.7919" lon="6.60636">
        <ele>1929</ele>
        <time>2025-06-05T14:14:25Z</time>
      </trkpt>
      <trkpt lat="45.79201" lon="6.6067">
        <ele>1927</ele>
        <time>2025-06-05T14:14:31Z</time>
      </trkpt>
      <trkpt lat="45.79223" lon="6.60704">
        <ele>1928</ele>
        <time>2025-06-05T14:14:39Z</time>
      </trkpt>
      <trkpt lat="45.79231" lon="6.60708">
        <ele>1929</ele>
        <time>2025-06-05T14:14:41Z</time>
      </trkpt>
      <trkpt lat="45.79253" lon="6.60731">
        <ele>1930</ele>
        <time>2025-06-05T14:14:47Z</time>
      </trkpt>
      <trkpt lat="45.79281" lon="6.60753">
        <ele>1934</ele>
        <time>2025-06-05T14:14:54Z</time>
      </trkpt>
      <trkpt lat="45.79297" lon="6.60759">
        <ele>1937</ele>
        <time>2025-06-05T14:14:58Z</time>
      </trkpt>
      <trkpt lat="45.79317" lon="6.60778">
        <ele>1940</ele>
        <time>2025-06-05T14:15:04Z</time>
      </trkpt>
      <trkpt lat="45.7932" lon="6.60786">
        <ele>1940</ele>
        <time>2025-06-05T14:15:05Z</time>
      </trkpt>
      <trkpt lat="45.79326" lon="6.60796">
        <ele>1941</ele>
        <time>2025-06-05T14:15:08Z</time>
      </trkpt>
      <trkpt lat="45.79336" lon="6.60831">
        <ele>1942</ele>
        <time>2025-06-05T14:15:14Z</time>
      </trkpt>
      <trkpt lat="45.79358" lon="6.60878">
        <ele>1945</ele>
        <time>2025-06-05T14:15:23Z</time>
      </trkpt>
      <trkpt lat="45.79422" lon="6.60956">
        <ele>1952</ele>
        <time>2025-06-05T14:15:42Z</time>
      </trkpt>
      <trkpt lat="45.79442" lon="6.60975">
        <ele>1954</ele>
        <time>2025-06-05T14:15:48Z</time>
      </trkpt>
      <trkpt lat="45.79457" lon="6.60995">
        <ele>1955</ele>
        <time>2025-06-05T14:15:53Z</time>
      </trkpt>
      <trkpt lat="45.79473" lon="6.6102">
        <ele>1956</ele>
        <time>2025-06-05T14:15:58Z</time>
      </trkpt>
      <trkpt lat="45.79504" lon="6.61057">
        <ele>1958</ele>
        <time>2025-06-05T14:16:08Z</time>
      </trkpt>
      <trkpt lat="45.79513" lon="6.61066">
        <ele>1958</ele>
        <time>2025-06-05T14:16:10Z</time>
      </trkpt>
      <trkpt lat="45.79522" lon="6.61072">
        <ele>1958</ele>
        <time>2025-06-05T14:16:13Z</time>
      </trkpt>
      <trkpt lat="45.79541" lon="6.61079">
        <ele>1958</ele>
        <time>2025-06-05T14:16:17Z</time>
      </trkpt>
      <trkpt lat="45.7955" lon="6.61084">
        <ele>1958</ele>
        <time>2025-06-05T14:16:20Z</time>
      </trkpt>
      <trkpt lat="45.79571" lon="6.61098">
        <ele>1959</ele>
        <time>2025-06-05T14:16:25Z</time>
      </trkpt>
      <trkpt lat="45.79578" lon="6.61101">
        <ele>1959</ele>
        <time>2025-06-05T14:16:27Z</time>
      </trkpt>
      <trkpt lat="45.7958" lon="6.61102">
        <ele>1959</ele>
        <time>2025-06-05T14:16:27Z</time>
      </trkpt>
      <trkpt lat="45.7958" lon="6.61078">
        <ele>1959</ele>
        <time>2025-06-05T14:16:31Z</time>
      </trkpt>
      <trkpt lat="45.79584" lon="6.61059">
        <ele>1959</ele>
        <time>2025-06-05T14:16:34Z</time>
      </trkpt>
      <trkpt lat="45.79588" lon="6.61041">
        <ele>1959</ele>
        <time>2025-06-05T14:16:37Z</time>
      </trkpt>
      <trkpt lat="45.79591" lon="6.61033">
        <ele>1958</ele>
        <time>2025-06-05T14:16:39Z</time>
      </trkpt>
      <trkpt lat="45.79592" lon="6.61027">
        <ele>1958</ele>
        <time>2025-06-05T14:16:40Z</time>
      </trkpt>
      <trkpt lat="45.79596" lon="6.61022">
        <ele>1957</ele>
        <time>2025-06-05T14:16:41Z</time>
      </trkpt>
      <trkpt lat="45.79601" lon="6.61005">
        <ele>1956</ele>
        <time>2025-06-05T14:16:44Z</time>
      </trkpt>
      <trkpt lat="45.7961" lon="6.60992">
        <ele>1954</ele>
        <time>2025-06-05T14:16:47Z</time>
      </trkpt>
      <trkpt lat="45.79615" lon="6.60983">
        <ele>1953</ele>
        <time>2025-06-05T14:16:49Z</time>
      </trkpt>
      <trkpt lat="45.7962" lon="6.6097">
        <ele>1953</ele>
        <time>2025-06-05T14:16:51Z</time>
      </trkpt>
      <trkpt lat="45.79627" lon="6.60949">
        <ele>1952</ele>
        <time>2025-06-05T14:16:55Z</time>
      </trkpt>
      <trkpt lat="45.79634" lon="6.60934">
        <ele>1950</ele>
        <time>2025-06-05T14:16:58Z</time>
      </trkpt>
      <trkpt lat="45.79636" lon="6.60924">
        <ele>1950</ele>
        <time>2025-06-05T14:17:00Z</time>
      </trkpt>
      <trkpt lat="45.79636" lon="6.60921">
        <ele>1950</ele>
        <time>2025-06-05T14:17:00Z</time>
      </trkpt>
      <trkpt lat="45.79634" lon="6.60902">
        <ele>1951</ele>
        <time>2025-06-05T14:17:03Z</time>
      </trkpt>
      <trkpt lat="45.79633" lon="6.60886">
        <ele>1953</ele>
        <time>2025-06-05T14:17:06Z</time>
      </trkpt>
      <trkpt lat="45.79633" lon="6.60882">
        <ele>1953</ele>
        <time>2025-06-05T14:17:07Z</time>
      </trkpt>
      <trkpt lat="45.79642" lon="6.60853">
        <ele>1951</ele>
        <time>2025-06-05T14:17:12Z</time>
      </trkpt>
      <trkpt lat="45.79648" lon="6.60828">
        <ele>1950</ele>
        <time>2025-06-05T14:17:16Z</time>
      </trkpt>
      <trkpt lat="45.79651" lon="6.60815">
        <ele>1951</ele>
        <time>2025-06-05T14:17:18Z</time>
      </trkpt>
      <trkpt lat="45.79655" lon="6.60803">
        <ele>1952</ele>
        <time>2025-06-05T14:17:21Z</time>
      </trkpt>
      <trkpt lat="45.79656" lon="6.60785">
        <ele>1955</ele>
        <time>2025-06-05T14:17:23Z</time>
      </trkpt>
      <trkpt lat="45.79658" lon="6.60779">
        <ele>1955</ele>
        <time>2025-06-05T14:17:25Z</time>
      </trkpt>
      <trkpt lat="45.79667" lon="6.60763">
        <ele>1954</ele>
        <time>2025-06-05T14:17:28Z</time>
      </trkpt>
      <trkpt lat="45.79679" lon="6.60746">
        <ele>1955</ele>
        <time>2025-06-05T14:17:32Z</time>
      </trkpt>
      <trkpt lat="45.79682" lon="6.60737">
        <ele>1956</ele>
        <time>2025-06-05T14:17:33Z</time>
      </trkpt>
      <trkpt lat="45.79686" lon="6.60732">
        <ele>1956</ele>
        <time>2025-06-05T14:17:35Z</time>
      </trkpt>
      <trkpt lat="45.79687" lon="6.60729">
        <ele>1956</ele>
        <time>2025-06-05T14:17:35Z</time>
      </trkpt>
      <trkpt lat="45.79698" lon="6.60695">
        <ele>1960</ele>
        <time>2025-06-05T14:17:41Z</time>
      </trkpt>
      <trkpt lat="45.79699" lon="6.60689">
        <ele>1961</ele>
        <time>2025-06-05T14:17:42Z</time>
      </trkpt>
      <trkpt lat="45.79702" lon="6.60678">
        <ele>1962</ele>
        <time>2025-06-05T14:17:44Z</time>
      </trkpt>
      <trkpt lat="45.79702" lon="6.60672">
        <ele>1963</ele>
        <time>2025-06-05T14:17:45Z</time>
      </trkpt>
      <trkpt lat="45.79702" lon="6.60656">
        <ele>1966</ele>
        <time>2025-06-05T14:17:48Z</time>
      </trkpt>
      <trkpt lat="45.79706" lon="6.60636">
        <ele>1968</ele>
        <time>2025-06-05T14:17:51Z</time>
      </trkpt>
      <trkpt lat="45.79717" lon="6.60606">
        <ele>1970</ele>
        <time>2025-06-05T14:17:57Z</time>
      </trkpt>
      <trkpt lat="45.79727" lon="6.6059">
        <ele>1969</ele>
        <time>2025-06-05T14:18:00Z</time>
      </trkpt>
      <trkpt lat="45.79731" lon="6.6058">
        <ele>1969</ele>
        <time>2025-06-05T14:18:02Z</time>
      </trkpt>
      <trkpt lat="45.79734" lon="6.60575">
        <ele>1969</ele>
        <time>2025-06-05T14:18:03Z</time>
      </trkpt>
      <trkpt lat="45.79742" lon="6.60571">
        <ele>1967</ele>
        <time>2025-06-05T14:18:05Z</time>
      </trkpt>
      <trkpt lat="45.79746" lon="6.60567">
        <ele>1966</ele>
        <time>2025-06-05T14:18:06Z</time>
      </trkpt>
      <trkpt lat="45.79755" lon="6.60563">
        <ele>1964</ele>
        <time>2025-06-05T14:18:09Z</time>
      </trkpt>
      <trkpt lat="45.79762" lon="6.60553">
        <ele>1965</ele>
        <time>2025-06-05T14:18:11Z</time>
      </trkpt>
      <trkpt lat="45.79768" lon="6.60541">
        <ele>1965</ele>
        <time>2025-06-05T14:18:13Z</time>
      </trkpt>
      <trkpt lat="45.7977" lon="6.60534">
        <ele>1966</ele>
        <time>2025-06-05T14:18:14Z</time>
      </trkpt>
      <trkpt lat="45.79773" lon="6.60515">
        <ele>1968</ele>
        <time>2025-06-05T14:18:18Z</time>
      </trkpt>
      <trkpt lat="45.79767" lon="6.60488">
        <ele>1972</ele>
        <time>2025-06-05T14:18:22Z</time>
      </trkpt>
      <trkpt lat="45.7977" lon="6.60466">
        <ele>1972</ele>
        <time>2025-06-05T14:18:26Z</time>
      </trkpt>
      <trkpt lat="45.79772" lon="6.60454">
        <ele>1972</ele>
        <time>2025-06-05T14:18:28Z</time>
      </trkpt>
      <trkpt lat="45.79772" lon="6.6045">
        <ele>1972</ele>
        <time>2025-06-05T14:18:29Z</time>
      </trkpt>
      <trkpt lat="45.79773" lon="6.60411">
        <ele>1972</ele>
        <time>2025-06-05T14:18:35Z</time>
      </trkpt>
      <trkpt lat="45.79773" lon="6.60397">
        <ele>1972</ele>
        <time>2025-06-05T14:18:37Z</time>
      </trkpt>
      <trkpt lat="45.79776" lon="6.60376">
        <ele>1971</ele>
        <time>2025-06-05T14:18:41Z</time>
      </trkpt>
      <trkpt lat="45.79778" lon="6.6036">
        <ele>1970</ele>
        <time>2025-06-05T14:18:43Z</time>
      </trkpt>
      <trkpt lat="45.79775" lon="6.60341">
        <ele>1971</ele>
        <time>2025-06-05T14:18:47Z</time>
      </trkpt>
      <trkpt lat="45.79769" lon="6.60323">
        <ele>1973</ele>
        <time>2025-06-05T14:18:50Z</time>
      </trkpt>
      <trkpt lat="45.79764" lon="6.60297">
        <ele>1974</ele>
        <time>2025-06-05T14:18:54Z</time>
      </trkpt>
      <trkpt lat="45.79765" lon="6.60291">
        <ele>1973</ele>
        <time>2025-06-05T14:18:55Z</time>
      </trkpt>
      <trkpt lat="45.79765" lon="6.60283">
        <ele>1973</ele>
        <time>2025-06-05T14:18:56Z</time>
      </trkpt>
      <trkpt lat="45.79764" lon="6.60279">
        <ele>1973</ele>
        <time>2025-06-05T14:18:57Z</time>
      </trkpt>
      <trkpt lat="45.79766" lon="6.60272">
        <ele>1973</ele>
        <time>2025-06-05T14:18:58Z</time>
      </trkpt>
      <trkpt lat="45.79769" lon="6.60243">
        <ele>1973</ele>
        <time>2025-06-05T14:19:03Z</time>
      </trkpt>
      <trkpt lat="45.79771" lon="6.60236">
        <ele>1973</ele>
        <time>2025-06-05T14:19:04Z</time>
      </trkpt>
      <trkpt lat="45.79775" lon="6.60212">
        <ele>1974</ele>
        <time>2025-06-05T14:19:08Z</time>
      </trkpt>
      <trkpt lat="45.79779" lon="6.60207">
        <ele>1974</ele>
        <time>2025-06-05T14:19:10Z</time>
      </trkpt>
      <trkpt lat="45.7979" lon="6.60181">
        <ele>1974</ele>
        <time>2025-06-05T14:19:15Z</time>
      </trkpt>
      <trkpt lat="45.79793" lon="6.60167">
        <ele>1975</ele>
        <time>2025-06-05T14:19:17Z</time>
      </trkpt>
      <trkpt lat="45.79799" lon="6.60154">
        <ele>1976</ele>
        <time>2025-06-05T14:19:20Z</time>
      </trkpt>
      <trkpt lat="45.79803" lon="6.6014">
        <ele>1978</ele>
        <time>2025-06-05T14:19:22Z</time>
      </trkpt>
      <trkpt lat="45.79812" lon="6.60125">
        <ele>1979</ele>
        <time>2025-06-05T14:19:25Z</time>
      </trkpt>
      <trkpt lat="45.7982" lon="6.60107">
        <ele>1982</ele>
        <time>2025-06-05T14:19:29Z</time>
      </trkpt>
      <trkpt lat="45.79831" lon="6.60089">
        <ele>1983</ele>
        <time>2025-06-05T14:19:33Z</time>
      </trkpt>
      <trkpt lat="45.79839" lon="6.60084">
        <ele>1983</ele>
        <time>2025-06-05T14:19:35Z</time>
      </trkpt>
      <trkpt lat="45.79849" lon="6.60078">
        <ele>1982</ele>
        <time>2025-06-05T14:19:37Z</time>
      </trkpt>
      <trkpt lat="45.79856" lon="6.6007">
        <ele>1983</ele>
        <time>2025-06-05T14:19:39Z</time>
      </trkpt>
      <trkpt lat="45.79863" lon="6.60066">
        <ele>1982</ele>
        <time>2025-06-05T14:19:41Z</time>
      </trkpt>
      <trkpt lat="45.79868" lon="6.60065">
        <ele>1982</ele>
        <time>2025-06-05T14:19:42Z</time>
      </trkpt>
      <trkpt lat="45.79874" lon="6.60062">
        <ele>1982</ele>
        <time>2025-06-05T14:19:44Z</time>
      </trkpt>
      <trkpt lat="45.79878" lon="6.60059">
        <ele>1982</ele>
        <time>2025-06-05T14:19:45Z</time>
      </trkpt>
      <trkpt lat="45.79885" lon="6.60056">
        <ele>1981</ele>
        <time>2025-06-05T14:19:46Z</time>
      </trkpt>
      <trkpt lat="45.79906" lon="6.60043">
        <ele>1981</ele>
        <time>2025-06-05T14:19:52Z</time>
      </trkpt>
      <trkpt lat="45.79912" lon="6.60037">
        <ele>1982</ele>
        <time>2025-06-05T14:19:53Z</time>
      </trkpt>
      <trkpt lat="45.79919" lon="6.6003">
        <ele>1983</ele>
        <time>2025-06-05T14:19:55Z</time>
      </trkpt>
      <trkpt lat="45.79924" lon="6.60024">
        <ele>1984</ele>
        <time>2025-06-05T14:19:57Z</time>
      </trkpt>
      <trkpt lat="45.79928" lon="6.60023">
        <ele>1984</ele>
        <time>2025-06-05T14:19:58Z</time>
      </trkpt>
      <trkpt lat="45.79937" lon="6.60018">
        <ele>1985</ele>
        <time>2025-06-05T14:20:00Z</time>
      </trkpt>
      <trkpt lat="45.79948" lon="6.60008">
        <ele>1987</ele>
        <time>2025-06-05T14:20:03Z</time>
      </trkpt>
      <trkpt lat="45.79959" lon="6.60006">
        <ele>1988</ele>
        <time>2025-06-05T14:20:06Z</time>
      </trkpt>
      <trkpt lat="45.79974" lon="6.60007">
        <ele>1987</ele>
        <time>2025-06-05T14:20:09Z</time>
      </trkpt>
      <trkpt lat="45.79979" lon="6.60002">
        <ele>1988</ele>
        <time>2025-06-05T14:20:11Z</time>
      </trkpt>
      <trkpt lat="45.79983" lon="6.59994">
        <ele>1988</ele>
        <time>2025-06-05T14:20:12Z</time>
      </trkpt>
      <trkpt lat="45.79987" lon="6.59986">
        <ele>1987</ele>
        <time>2025-06-05T14:20:14Z</time>
      </trkpt>
      <trkpt lat="45.79987" lon="6.59979">
        <ele>1987</ele>
        <time>2025-06-05T14:20:15Z</time>
      </trkpt>
      <trkpt lat="45.79984" lon="6.59963">
        <ele>1986</ele>
        <time>2025-06-05T14:20:18Z</time>
      </trkpt>
      <trkpt lat="45.79985" lon="6.59951">
        <ele>1985</ele>
        <time>2025-06-05T14:20:20Z</time>
      </trkpt>
      <trkpt lat="45.79988" lon="6.59944">
        <ele>1985</ele>
        <time>2025-06-05T14:20:21Z</time>
      </trkpt>
      <trkpt lat="45.79998" lon="6.59932">
        <ele>1985</ele>
        <time>2025-06-05T14:20:24Z</time>
      </trkpt>
      <trkpt lat="45.80008" lon="6.59918">
        <ele>1986</ele>
        <time>2025-06-05T14:20:27Z</time>
      </trkpt>
      <trkpt lat="45.80013" lon="6.59902">
        <ele>1983</ele>
        <time>2025-06-05T14:20:30Z</time>
      </trkpt>
      <trkpt lat="45.80019" lon="6.59887">
        <ele>1980</ele>
        <time>2025-06-05T14:20:33Z</time>
      </trkpt>
      <trkpt lat="45.80024" lon="6.59872">
        <ele>1978</ele>
        <time>2025-06-05T14:20:36Z</time>
      </trkpt>
      <trkpt lat="45.80029" lon="6.59861">
        <ele>1977</ele>
        <time>2025-06-05T14:20:38Z</time>
      </trkpt>
      <trkpt lat="45.80037" lon="6.59824">
        <ele>1971</ele>
        <time>2025-06-05T14:20:44Z</time>
      </trkpt>
      <trkpt lat="45.80044" lon="6.5981">
        <ele>1970</ele>
        <time>2025-06-05T14:20:47Z</time>
      </trkpt>
      <trkpt lat="45.80049" lon="6.59794">
        <ele>1969</ele>
        <time>2025-06-05T14:20:50Z</time>
      </trkpt>
      <trkpt lat="45.80053" lon="6.59762">
        <ele>1964</ele>
        <time>2025-06-05T14:20:55Z</time>
      </trkpt>
      <trkpt lat="45.80053" lon="6.59749">
        <ele>1962</ele>
        <time>2025-06-05T14:20:57Z</time>
      </trkpt>
      <trkpt lat="45.80057" lon="6.59712">
        <ele>1955</ele>
        <time>2025-06-05T14:21:03Z</time>
      </trkpt>
      <trkpt lat="45.80065" lon="6.59695">
        <ele>1953</ele>
        <time>2025-06-05T14:21:07Z</time>
      </trkpt>
      <trkpt lat="45.80066" lon="6.59687">
        <ele>1952</ele>
        <time>2025-06-05T14:21:08Z</time>
      </trkpt>
      <trkpt lat="45.80077" lon="6.59665">
        <ele>1950</ele>
        <time>2025-06-05T14:21:12Z</time>
      </trkpt>
      <trkpt lat="45.8008" lon="6.59649">
        <ele>1947</ele>
        <time>2025-06-05T14:21:15Z</time>
      </trkpt>
      <trkpt lat="45.80088" lon="6.59627">
        <ele>1942</ele>
        <time>2025-06-05T14:21:19Z</time>
      </trkpt>
      <trkpt lat="45.80103" lon="6.59605">
        <ele>1937</ele>
        <time>2025-06-05T14:21:24Z</time>
      </trkpt>
      <trkpt lat="45.80113" lon="6.5958">
        <ele>1930</ele>
        <time>2025-06-05T14:21:29Z</time>
      </trkpt>
      <trkpt lat="45.80125" lon="6.59539">
        <ele>1918</ele>
        <time>2025-06-05T14:21:36Z</time>
      </trkpt>
      <trkpt lat="45.80127" lon="6.59526">
        <ele>1914</ele>
        <time>2025-06-05T14:21:38Z</time>
      </trkpt>
      <trkpt lat="45.80128" lon="6.59521">
        <ele>1913</ele>
        <time>2025-06-05T14:21:39Z</time>
      </trkpt>
      <trkpt lat="45.80127" lon="6.59495">
        <ele>1905</ele>
        <time>2025-06-05T14:21:43Z</time>
      </trkpt>
      <trkpt lat="45.80122" lon="6.59477">
        <ele>1901</ele>
        <time>2025-06-05T14:21:47Z</time>
      </trkpt>
      <trkpt lat="45.80115" lon="6.59459">
        <ele>1897</ele>
        <time>2025-06-05T14:21:50Z</time>
      </trkpt>
      <trkpt lat="45.80105" lon="6.5945">
        <ele>1895</ele>
        <time>2025-06-05T14:21:53Z</time>
      </trkpt>
      <trkpt lat="45.80079" lon="6.59434">
        <ele>1890</ele>
        <time>2025-06-05T14:21:59Z</time>
      </trkpt>
      <trkpt lat="45.80018" lon="6.59453">
        <ele>1879</ele>
        <time>2025-06-05T14:22:14Z</time>
      </trkpt>
      <trkpt lat="45.80003" lon="6.59466">
        <ele>1878</ele>
        <time>2025-06-05T14:22:18Z</time>
      </trkpt>
      <trkpt lat="45.79989" lon="6.59474">
        <ele>1877</ele>
        <time>2025-06-05T14:22:21Z</time>
      </trkpt>
      <trkpt lat="45.79984" lon="6.59481">
        <ele>1877</ele>
        <time>2025-06-05T14:22:23Z</time>
      </trkpt>
      <trkpt lat="45.79982" lon="6.59483">
        <ele>1877</ele>
        <time>2025-06-05T14:22:24Z</time>
      </trkpt>
      <trkpt lat="45.79978" lon="6.59481">
        <ele>1876</ele>
        <time>2025-06-05T14:22:25Z</time>
      </trkpt>
      <trkpt lat="45.79973" lon="6.59481">
        <ele>1875</ele>
        <time>2025-06-05T14:22:26Z</time>
      </trkpt>
      <trkpt lat="45.79953" lon="6.59486">
        <ele>1871</ele>
        <time>2025-06-05T14:22:31Z</time>
      </trkpt>
      <trkpt lat="45.79941" lon="6.59485">
        <ele>1868</ele>
        <time>2025-06-05T14:22:33Z</time>
      </trkpt>
      <trkpt lat="45.79929" lon="6.59483">
        <ele>1865</ele>
        <time>2025-06-05T14:22:36Z</time>
      </trkpt>
      <trkpt lat="45.79921" lon="6.59476">
        <ele>1862</ele>
        <time>2025-06-05T14:22:38Z</time>
      </trkpt>
      <trkpt lat="45.79913" lon="6.59461">
        <ele>1859</ele>
        <time>2025-06-05T14:22:41Z</time>
      </trkpt>
      <trkpt lat="45.79905" lon="6.59433">
        <ele>1854</ele>
        <time>2025-06-05T14:22:46Z</time>
      </trkpt>
      <trkpt lat="45.79905" lon="6.59414">
        <ele>1852</ele>
        <time>2025-06-05T14:22:49Z</time>
      </trkpt>
      <trkpt lat="45.79909" lon="6.59394">
        <ele>1850</ele>
        <time>2025-06-05T14:22:53Z</time>
      </trkpt>
      <trkpt lat="45.7992" lon="6.5938">
        <ele>1849</ele>
        <time>2025-06-05T14:22:56Z</time>
      </trkpt>
      <trkpt lat="45.79919" lon="6.5937">
        <ele>1848</ele>
        <time>2025-06-05T14:22:58Z</time>
      </trkpt>
      <trkpt lat="45.79915" lon="6.59366">
        <ele>1848</ele>
        <time>2025-06-05T14:22:59Z</time>
      </trkpt>
      <trkpt lat="45.79915" lon="6.59355">
        <ele>1847</ele>
        <time>2025-06-05T14:23:01Z</time>
      </trkpt>
      <trkpt lat="45.79915" lon="6.59355">
        <ele>1847</ele>
        <time>2025-06-05T14:23:01Z</time>
      </trkpt>
      <trkpt lat="45.79918" lon="6.59345">
        <ele>1846</ele>
        <time>2025-06-05T14:23:03Z</time>
      </trkpt>
      <trkpt lat="45.79918" lon="6.59329">
        <ele>1845</ele>
        <time>2025-06-05T14:23:05Z</time>
      </trkpt>
      <trkpt lat="45.79918" lon="6.59307">
        <ele>1845</ele>
        <time>2025-06-05T14:23:09Z</time>
      </trkpt>
      <trkpt lat="45.79916" lon="6.59293">
        <ele>1846</ele>
        <time>2025-06-05T14:23:11Z</time>
      </trkpt>
      <trkpt lat="45.79904" lon="6.59291">
        <ele>1848</ele>
        <time>2025-06-05T14:23:14Z</time>
      </trkpt>
      <trkpt lat="45.79892" lon="6.59286">
        <ele>1850</ele>
        <time>2025-06-05T14:23:17Z</time>
      </trkpt>
      <trkpt lat="45.79889" lon="6.59281">
        <ele>1851</ele>
        <time>2025-06-05T14:23:18Z</time>
      </trkpt>
      <trkpt lat="45.79887" lon="6.59275">
        <ele>1851</ele>
        <time>2025-06-05T14:23:19Z</time>
      </trkpt>
      <trkpt lat="45.79885" lon="6.59234">
        <ele>1856</ele>
        <time>2025-06-05T14:23:26Z</time>
      </trkpt>
      <trkpt lat="45.79885" lon="6.59208">
        <ele>1859</ele>
        <time>2025-06-05T14:23:30Z</time>
      </trkpt>
      <trkpt lat="45.79884" lon="6.59196">
        <ele>1861</ele>
        <time>2025-06-05T14:23:32Z</time>
      </trkpt>
      <trkpt lat="45.79882" lon="6.59173">
        <ele>1865</ele>
        <time>2025-06-05T14:23:36Z</time>
      </trkpt>
      <trkpt lat="45.79884" lon="6.59166">
        <ele>1865</ele>
        <time>2025-06-05T14:23:37Z</time>
      </trkpt>
      <trkpt lat="45.79903" lon="6.59121">
        <ele>1867</ele>
        <time>2025-06-05T14:23:46Z</time>
      </trkpt>
      <trkpt lat="45.79907" lon="6.59101">
        <ele>1868</ele>
        <time>2025-06-05T14:23:49Z</time>
      </trkpt>
      <trkpt lat="45.79907" lon="6.59086">
        <ele>1871</ele>
        <time>2025-06-05T14:23:51Z</time>
      </trkpt>
      <trkpt lat="45.79897" lon="6.59034">
        <ele>1878</ele>
        <time>2025-06-05T14:24:00Z</time>
      </trkpt>
      <trkpt lat="45.79894" lon="6.5902">
        <ele>1880</ele>
        <time>2025-06-05T14:24:03Z</time>
      </trkpt>
      <trkpt lat="45.79885" lon="6.58997">
        <ele>1884</ele>
        <time>2025-06-05T14:24:07Z</time>
      </trkpt>
      <trkpt lat="45.79881" lon="6.58984">
        <ele>1885</ele>
        <time>2025-06-05T14:24:09Z</time>
      </trkpt>
      <trkpt lat="45.7988" lon="6.58976">
        <ele>1885</ele>
        <time>2025-06-05T14:24:10Z</time>
      </trkpt>
      <trkpt lat="45.79879" lon="6.58952">
        <ele>1886</ele>
        <time>2025-06-05T14:24:14Z</time>
      </trkpt>
      <trkpt lat="45.79877" lon="6.58941">
        <ele>1887</ele>
        <time>2025-06-05T14:24:16Z</time>
      </trkpt>
      <trkpt lat="45.79874" lon="6.58937">
        <ele>1887</ele>
        <time>2025-06-05T14:24:17Z</time>
      </trkpt>
      <trkpt lat="45.79871" lon="6.58934">
        <ele>1887</ele>
        <time>2025-06-05T14:24:18Z</time>
      </trkpt>
      <trkpt lat="45.79864" lon="6.58941">
        <ele>1887</ele>
        <time>2025-06-05T14:24:20Z</time>
      </trkpt>
      <trkpt lat="45.79859" lon="6.58947">
        <ele>1888</ele>
        <time>2025-06-05T14:24:22Z</time>
      </trkpt>
      <trkpt lat="45.7985" lon="6.58951">
        <ele>1888</ele>
        <time>2025-06-05T14:24:24Z</time>
      </trkpt>
      <trkpt lat="45.79827" lon="6.58946">
        <ele>1889</ele>
        <time>2025-06-05T14:24:29Z</time>
      </trkpt>
      <trkpt lat="45.79795" lon="6.58935">
        <ele>1891</ele>
        <time>2025-06-05T14:24:37Z</time>
      </trkpt>
      <trkpt lat="45.79771" lon="6.5893">
        <ele>1892</ele>
        <time>2025-06-05T14:24:43Z</time>
      </trkpt>
      <trkpt lat="45.79751" lon="6.58934">
        <ele>1894</ele>
        <time>2025-06-05T14:24:47Z</time>
      </trkpt>
      <trkpt lat="45.79749" lon="6.58935">
        <ele>1895</ele>
        <time>2025-06-05T14:24:48Z</time>
      </trkpt>
      <trkpt lat="45.79731" lon="6.5895">
        <ele>1897</ele>
        <time>2025-06-05T14:24:53Z</time>
      </trkpt>
      <trkpt lat="45.7972" lon="6.58978">
        <ele>1901</ele>
        <time>2025-06-05T14:24:58Z</time>
      </trkpt>
      <trkpt lat="45.79724" lon="6.59033">
        <ele>1904</ele>
        <time>2025-06-05T14:25:07Z</time>
      </trkpt>
      <trkpt lat="45.79725" lon="6.59073">
        <ele>1904</ele>
        <time>2025-06-05T14:25:13Z</time>
      </trkpt>
      <trkpt lat="45.79728" lon="6.59095">
        <ele>1903</ele>
        <time>2025-06-05T14:25:17Z</time>
      </trkpt>
      <trkpt lat="45.79727" lon="6.59105">
        <ele>1903</ele>
        <time>2025-06-05T14:25:19Z</time>
      </trkpt>
      <trkpt lat="45.79727" lon="6.59109">
        <ele>1903</ele>
        <time>2025-06-05T14:25:19Z</time>
      </trkpt>
      <trkpt lat="45.79725" lon="6.59114">
        <ele>1903</ele>
        <time>2025-06-05T14:25:20Z</time>
      </trkpt>
      <trkpt lat="45.79721" lon="6.5912">
        <ele>1903</ele>
        <time>2025-06-05T14:25:22Z</time>
      </trkpt>
      <trkpt lat="45.79719" lon="6.59117">
        <ele>1903</ele>
        <time>2025-06-05T14:25:22Z</time>
      </trkpt>
      <trkpt lat="45.79721" lon="6.5912">
        <ele>1903</ele>
        <time>2025-06-05T14:25:23Z</time>
      </trkpt>
      <trkpt lat="45.79719" lon="6.59125">
        <ele>1903</ele>
        <time>2025-06-05T14:25:24Z</time>
      </trkpt>
      <trkpt lat="45.7971" lon="6.59132">
        <ele>1903</ele>
        <time>2025-06-05T14:25:26Z</time>
      </trkpt>
      <trkpt lat="45.79675" lon="6.59145">
        <ele>1907</ele>
        <time>2025-06-05T14:25:35Z</time>
      </trkpt>
      <trkpt lat="45.79629" lon="6.59167">
        <ele>1916</ele>
        <time>2025-06-05T14:25:46Z</time>
      </trkpt>
      <trkpt lat="45.79615" lon="6.59175">
        <ele>1918</ele>
        <time>2025-06-05T14:25:50Z</time>
      </trkpt>
      <trkpt lat="45.79603" lon="6.59183">
        <ele>1921</ele>
        <time>2025-06-05T14:25:53Z</time>
      </trkpt>
      <trkpt lat="45.79583" lon="6.59202">
        <ele>1926</ele>
        <time>2025-06-05T14:25:58Z</time>
      </trkpt>
      <trkpt lat="45.79575" lon="6.5921">
        <ele>1927</ele>
        <time>2025-06-05T14:26:01Z</time>
      </trkpt>
      <trkpt lat="45.79565" lon="6.59225">
        <ele>1929</ele>
        <time>2025-06-05T14:26:04Z</time>
      </trkpt>
      <trkpt lat="45.79556" lon="6.59239">
        <ele>1931</ele>
        <time>2025-06-05T14:26:07Z</time>
      </trkpt>
      <trkpt lat="45.79544" lon="6.5925">
        <ele>1933</ele>
        <time>2025-06-05T14:26:10Z</time>
      </trkpt>
      <trkpt lat="45.79534" lon="6.59258">
        <ele>1933</ele>
        <time>2025-06-05T14:26:13Z</time>
      </trkpt>
      <trkpt lat="45.79518" lon="6.59268">
        <ele>1933</ele>
        <time>2025-06-05T14:26:17Z</time>
      </trkpt>
      <trkpt lat="45.79488" lon="6.59289">
        <ele>1935</ele>
        <time>2025-06-05T14:26:25Z</time>
      </trkpt>
      <trkpt lat="45.79471" lon="6.59304">
        <ele>1937</ele>
        <time>2025-06-05T14:26:30Z</time>
      </trkpt>
      <trkpt lat="45.79459" lon="6.59319">
        <ele>1940</ele>
        <time>2025-06-05T14:26:33Z</time>
      </trkpt>
      <trkpt lat="45.7944" lon="6.59347">
        <ele>1944</ele>
        <time>2025-06-05T14:26:40Z</time>
      </trkpt>
      <trkpt lat="45.79431" lon="6.59363">
        <ele>1945</ele>
        <time>2025-06-05T14:26:43Z</time>
      </trkpt>
      <trkpt lat="45.79422" lon="6.59382">
        <ele>1946</ele>
        <time>2025-06-05T14:26:47Z</time>
      </trkpt>
      <trkpt lat="45.79415" lon="6.59401">
        <ele>1948</ele>
        <time>2025-06-05T14:26:50Z</time>
      </trkpt>
      <trkpt lat="45.79412" lon="6.59418">
        <ele>1947</ele>
        <time>2025-06-05T14:26:53Z</time>
      </trkpt>
      <trkpt lat="45.79399" lon="6.5946">
        <ele>1945</ele>
        <time>2025-06-05T14:27:01Z</time>
      </trkpt>
      <trkpt lat="45.79397" lon="6.59466">
        <ele>1945</ele>
        <time>2025-06-05T14:27:02Z</time>
      </trkpt>
      <trkpt lat="45.79389" lon="6.59479">
        <ele>1946</ele>
        <time>2025-06-05T14:27:04Z</time>
      </trkpt>
      <trkpt lat="45.79379" lon="6.59492">
        <ele>1947</ele>
        <time>2025-06-05T14:27:08Z</time>
      </trkpt>
      <trkpt lat="45.79367" lon="6.59503">
        <ele>1949</ele>
        <time>2025-06-05T14:27:11Z</time>
      </trkpt>
      <trkpt lat="45.79344" lon="6.5953">
        <ele>1955</ele>
        <time>2025-06-05T14:27:18Z</time>
      </trkpt>
      <trkpt lat="45.79333" lon="6.59542">
        <ele>1958</ele>
        <time>2025-06-05T14:27:21Z</time>
      </trkpt>
      <trkpt lat="45.79317" lon="6.59558">
        <ele>1959</ele>
        <time>2025-06-05T14:27:26Z</time>
      </trkpt>
      <trkpt lat="45.79306" lon="6.59566">
        <ele>1959</ele>
        <time>2025-06-05T14:27:29Z</time>
      </trkpt>
      <trkpt lat="45.793" lon="6.5957">
        <ele>1959</ele>
        <time>2025-06-05T14:27:30Z</time>
      </trkpt>
      <trkpt lat="45.79291" lon="6.59576">
        <ele>1960</ele>
        <time>2025-06-05T14:27:32Z</time>
      </trkpt>
      <trkpt lat="45.79259" lon="6.59621">
        <ele>1970</ele>
        <time>2025-06-05T14:27:43Z</time>
      </trkpt>
      <trkpt lat="45.7924" lon="6.59658">
        <ele>1979</ele>
        <time>2025-06-05T14:27:50Z</time>
      </trkpt>
      <trkpt lat="45.79218" lon="6.59704">
        <ele>1988</ele>
        <time>2025-06-05T14:27:59Z</time>
      </trkpt>
      <trkpt lat="45.79161" lon="6.59756">
        <ele>1995</ele>
        <time>2025-06-05T14:28:15Z</time>
      </trkpt>
      <trkpt lat="45.79117" lon="6.59763">
        <ele>1997</ele>
        <time>2025-06-05T14:28:26Z</time>
      </trkpt>
      <trkpt lat="45.79083" lon="6.5976">
        <ele>1995</ele>
        <time>2025-06-05T14:28:33Z</time>
      </trkpt>
      <trkpt lat="45.79059" lon="6.59754">
        <ele>1995</ele>
        <time>2025-06-05T14:28:39Z</time>
      </trkpt>
      <trkpt lat="45.79032" lon="6.59753">
        <ele>1997</ele>
        <time>2025-06-05T14:28:45Z</time>
      </trkpt>
      <trkpt lat="45.79005" lon="6.59733">
        <ele>1992</ele>
        <time>2025-06-05T14:28:53Z</time>
      </trkpt>
      <trkpt lat="45.7899" lon="6.59727">
        <ele>1990</ele>
        <time>2025-06-05T14:28:56Z</time>
      </trkpt>
      <trkpt lat="45.78972" lon="6.59724">
        <ele>1989</ele>
        <time>2025-06-05T14:29:00Z</time>
      </trkpt>
      <trkpt lat="45.78954" lon="6.59723">
        <ele>1989</ele>
        <time>2025-06-05T14:29:05Z</time>
      </trkpt>
      <trkpt lat="45.78925" lon="6.59714">
        <ele>1988</ele>
        <time>2025-06-05T14:29:12Z</time>
      </trkpt>
      <trkpt lat="45.78918" lon="6.59709">
        <ele>1987</ele>
        <time>2025-06-05T14:29:13Z</time>
      </trkpt>
      <trkpt lat="45.78904" lon="6.59702">
        <ele>1987</ele>
        <time>2025-06-05T14:29:17Z</time>
      </trkpt>
      <trkpt lat="45.78884" lon="6.59697">
        <ele>1988</ele>
        <time>2025-06-05T14:29:22Z</time>
      </trkpt>
      <trkpt lat="45.78838" lon="6.5969">
        <ele>1992</ele>
        <time>2025-06-05T14:29:32Z</time>
      </trkpt>
      <trkpt lat="45.78802" lon="6.59684">
        <ele>1996</ele>
        <time>2025-06-05T14:29:41Z</time>
      </trkpt>
      <trkpt lat="45.78788" lon="6.59679">
        <ele>1997</ele>
        <time>2025-06-05T14:29:44Z</time>
      </trkpt>
      <trkpt lat="45.78753" lon="6.59659">
        <ele>2001</ele>
        <time>2025-06-05T14:29:53Z</time>
      </trkpt>
      <trkpt lat="45.7874" lon="6.59654">
        <ele>2002</ele>
        <time>2025-06-05T14:29:56Z</time>
      </trkpt>
      <trkpt lat="45.78706" lon="6.59645">
        <ele>2005</ele>
        <time>2025-06-05T14:30:04Z</time>
      </trkpt>
      <trkpt lat="45.78667" lon="6.59632">
        <ele>2010</ele>
        <time>2025-06-05T14:30:14Z</time>
      </trkpt>
      <trkpt lat="45.78642" lon="6.59629">
        <ele>2011</ele>
        <time>2025-06-05T14:30:19Z</time>
      </trkpt>
      <trkpt lat="45.78615" lon="6.59622">
        <ele>2012</ele>
        <time>2025-06-05T14:30:26Z</time>
      </trkpt>
      <trkpt lat="45.78593" lon="6.59614">
        <ele>2014</ele>
        <time>2025-06-05T14:30:31Z</time>
      </trkpt>
      <trkpt lat="45.78578" lon="6.59606">
        <ele>2016</ele>
        <time>2025-06-05T14:30:35Z</time>
      </trkpt>
      <trkpt lat="45.78566" lon="6.59599">
        <ele>2017</ele>
        <time>2025-06-05T14:30:38Z</time>
      </trkpt>
      <trkpt lat="45.78556" lon="6.59591">
        <ele>2019</ele>
        <time>2025-06-05T14:30:41Z</time>
      </trkpt>
      <trkpt lat="45.78534" lon="6.59576">
        <ele>2020</ele>
        <time>2025-06-05T14:30:46Z</time>
      </trkpt>
      <trkpt lat="45.78521" lon="6.59566">
        <ele>2020</ele>
        <time>2025-06-05T14:30:50Z</time>
      </trkpt>
      <trkpt lat="45.78495" lon="6.59552">
        <ele>2020</ele>
        <time>2025-06-05T14:30:56Z</time>
      </trkpt>
      <trkpt lat="45.78465" lon="6.59543">
        <ele>2024</ele>
        <time>2025-06-05T14:31:03Z</time>
      </trkpt>
      <trkpt lat="45.7843" lon="6.59529">
        <ele>2030</ele>
        <time>2025-06-05T14:31:12Z</time>
      </trkpt>
      <trkpt lat="45.78418" lon="6.59523">
        <ele>2033</ele>
        <time>2025-06-05T14:31:15Z</time>
      </trkpt>
      <trkpt lat="45.78387" lon="6.59508">
        <ele>2036</ele>
        <time>2025-06-05T14:31:22Z</time>
      </trkpt>
      <trkpt lat="45.7836" lon="6.59489">
        <ele>2037</ele>
        <time>2025-06-05T14:31:30Z</time>
      </trkpt>
      <trkpt lat="45.78349" lon="6.59478">
        <ele>2037</ele>
        <time>2025-06-05T14:31:33Z</time>
      </trkpt>
      <trkpt lat="45.78329" lon="6.59461">
        <ele>2038</ele>
        <time>2025-06-05T14:31:38Z</time>
      </trkpt>
      <trkpt lat="45.78284" lon="6.59418">
        <ele>2034</ele>
        <time>2025-06-05T14:31:51Z</time>
      </trkpt>
      <trkpt lat="45.78241" lon="6.5939">
        <ele>2029</ele>
        <time>2025-06-05T14:32:02Z</time>
      </trkpt>
      <trkpt lat="45.78227" lon="6.59386">
        <ele>2027</ele>
        <time>2025-06-05T14:32:05Z</time>
      </trkpt>
      <trkpt lat="45.78139" lon="6.59395">
        <ele>2009</ele>
        <time>2025-06-05T14:32:26Z</time>
      </trkpt>
      <trkpt lat="45.78118" lon="6.5939">
        <ele>2006</ele>
        <time>2025-06-05T14:32:31Z</time>
      </trkpt>
      <trkpt lat="45.78099" lon="6.59383">
        <ele>2003</ele>
        <time>2025-06-05T14:32:35Z</time>
      </trkpt>
      <trkpt lat="45.78094" lon="6.59378">
        <ele>2002</ele>
        <time>2025-06-05T14:32:37Z</time>
      </trkpt>
      <trkpt lat="45.78088" lon="6.59375">
        <ele>2001</ele>
        <time>2025-06-05T14:32:38Z</time>
      </trkpt>
      <trkpt lat="45.78032" lon="6.59341">
        <ele>1995</ele>
        <time>2025-06-05T14:32:52Z</time>
      </trkpt>
      <trkpt lat="45.77995" lon="6.59317">
        <ele>1989</ele>
        <time>2025-06-05T14:33:02Z</time>
      </trkpt>
      <trkpt lat="45.77972" lon="6.59318">
        <ele>1985</ele>
        <time>2025-06-05T14:33:07Z</time>
      </trkpt>
      <trkpt lat="45.77958" lon="6.5932">
        <ele>1982</ele>
        <time>2025-06-05T14:33:10Z</time>
      </trkpt>
      <trkpt lat="45.77954" lon="6.59323">
        <ele>1982</ele>
        <time>2025-06-05T14:33:12Z</time>
      </trkpt>
      <trkpt lat="45.77947" lon="6.59329">
        <ele>1980</ele>
        <time>2025-06-05T14:33:13Z</time>
      </trkpt>
      <trkpt lat="45.7794" lon="6.59355">
        <ele>1976</ele>
        <time>2025-06-05T14:33:18Z</time>
      </trkpt>
      <trkpt lat="45.77952" lon="6.59412">
        <ele>1972</ele>
        <time>2025-06-05T14:33:28Z</time>
      </trkpt>
      <trkpt lat="45.77966" lon="6.59454">
        <ele>1967</ele>
        <time>2025-06-05T14:33:35Z</time>
      </trkpt>
      <trkpt lat="45.77967" lon="6.59476">
        <ele>1964</ele>
        <time>2025-06-05T14:33:39Z</time>
      </trkpt>
      <trkpt lat="45.77965" lon="6.59493">
        <ele>1961</ele>
        <time>2025-06-05T14:33:42Z</time>
      </trkpt>
      <trkpt lat="45.77954" lon="6.59499">
        <ele>1959</ele>
        <time>2025-06-05T14:33:44Z</time>
      </trkpt>
      <trkpt lat="45.77939" lon="6.595">
        <ele>1958</ele>
        <time>2025-06-05T14:33:48Z</time>
      </trkpt>
      <trkpt lat="45.77928" lon="6.59506">
        <ele>1956</ele>
        <time>2025-06-05T14:33:51Z</time>
      </trkpt>
      <trkpt lat="45.77917" lon="6.59517">
        <ele>1954</ele>
        <time>2025-06-05T14:33:54Z</time>
      </trkpt>
      <trkpt lat="45.779" lon="6.59542">
        <ele>1950</ele>
        <time>2025-06-05T14:33:59Z</time>
      </trkpt>
      <trkpt lat="45.7789" lon="6.59545">
        <ele>1949</ele>
        <time>2025-06-05T14:34:02Z</time>
      </trkpt>
      <trkpt lat="45.77876" lon="6.5954">
        <ele>1949</ele>
        <time>2025-06-05T14:34:05Z</time>
      </trkpt>
      <trkpt lat="45.77866" lon="6.59538">
        <ele>1948</ele>
        <time>2025-06-05T14:34:08Z</time>
      </trkpt>
      <trkpt lat="45.77859" lon="6.59528">
        <ele>1949</ele>
        <time>2025-06-05T14:34:10Z</time>
      </trkpt>
      <trkpt lat="45.77847" lon="6.59517">
        <ele>1949</ele>
        <time>2025-06-05T14:34:13Z</time>
      </trkpt>
      <trkpt lat="45.77812" lon="6.59475">
        <ele>1955</ele>
        <time>2025-06-05T14:34:24Z</time>
      </trkpt>
      <trkpt lat="45.77809" lon="6.59473">
        <ele>1956</ele>
        <time>2025-06-05T14:34:25Z</time>
      </trkpt>
      <trkpt lat="45.77709" lon="6.5941">
        <ele>1960</ele>
        <time>2025-06-05T14:34:50Z</time>
      </trkpt>
      <trkpt lat="45.77671" lon="6.59347">
        <ele>1960</ele>
        <time>2025-06-05T14:35:04Z</time>
      </trkpt>
      <trkpt lat="45.7765" lon="6.59287">
        <ele>1955</ele>
        <time>2025-06-05T14:35:15Z</time>
      </trkpt>
      <trkpt lat="45.77639" lon="6.59289">
        <ele>1955</ele>
        <time>2025-06-05T14:35:17Z</time>
      </trkpt>
      <trkpt lat="45.77606" lon="6.59286">
        <ele>1953</ele>
        <time>2025-06-05T14:35:25Z</time>
      </trkpt>
      <trkpt lat="45.77571" lon="6.59264">
        <ele>1950</ele>
        <time>2025-06-05T14:35:34Z</time>
      </trkpt>
      <trkpt lat="45.77517" lon="6.59221">
        <ele>1946</ele>
        <time>2025-06-05T14:35:48Z</time>
      </trkpt>
      <trkpt lat="45.77507" lon="6.59206">
        <ele>1945</ele>
        <time>2025-06-05T14:35:52Z</time>
      </trkpt>
      <trkpt lat="45.77498" lon="6.59197">
        <ele>1945</ele>
        <time>2025-06-05T14:35:54Z</time>
      </trkpt>
      <trkpt lat="45.77487" lon="6.59193">
        <ele>1944</ele>
        <time>2025-06-05T14:35:57Z</time>
      </trkpt>
      <trkpt lat="45.77472" lon="6.59192">
        <ele>1944</ele>
        <time>2025-06-05T14:36:00Z</time>
      </trkpt>
      <trkpt lat="45.7746" lon="6.59194">
        <ele>1944</ele>
        <time>2025-06-05T14:36:03Z</time>
      </trkpt>
      <trkpt lat="45.77411" lon="6.59208">
        <ele>1943</ele>
        <time>2025-06-05T14:36:15Z</time>
      </trkpt>
      <trkpt lat="45.77402" lon="6.5921">
        <ele>1943</ele>
        <time>2025-06-05T14:36:17Z</time>
      </trkpt>
      <trkpt lat="45.77392" lon="6.5921">
        <ele>1943</ele>
        <time>2025-06-05T14:36:19Z</time>
      </trkpt>
      <trkpt lat="45.7738" lon="6.59204">
        <ele>1944</ele>
        <time>2025-06-05T14:36:22Z</time>
      </trkpt>
      <trkpt lat="45.7737" lon="6.59195">
        <ele>1944</ele>
        <time>2025-06-05T14:36:25Z</time>
      </trkpt>
      <trkpt lat="45.77353" lon="6.5917">
        <ele>1945</ele>
        <time>2025-06-05T14:36:31Z</time>
      </trkpt>
      <trkpt lat="45.77339" lon="6.59157">
        <ele>1944</ele>
        <time>2025-06-05T14:36:35Z</time>
      </trkpt>
      <trkpt lat="45.77315" lon="6.59146">
        <ele>1944</ele>
        <time>2025-06-05T14:36:41Z</time>
      </trkpt>
      <trkpt lat="45.77306" lon="6.5914">
        <ele>1944</ele>
        <time>2025-06-05T14:36:43Z</time>
      </trkpt>
      <trkpt lat="45.77291" lon="6.59124">
        <ele>1944</ele>
        <time>2025-06-05T14:36:47Z</time>
      </trkpt>
      <trkpt lat="45.77267" lon="6.59087">
        <ele>1942</ele>
        <time>2025-06-05T14:36:55Z</time>
      </trkpt>
      <trkpt lat="45.77244" lon="6.59046">
        <ele>1938</ele>
        <time>2025-06-05T14:37:04Z</time>
      </trkpt>
      <trkpt lat="45.77212" lon="6.58984">
        <ele>1932</ele>
        <time>2025-06-05T14:37:17Z</time>
      </trkpt>
      <trkpt lat="45.7719" lon="6.58952">
        <ele>1930</ele>
        <time>2025-06-05T14:37:24Z</time>
      </trkpt>
      <trkpt lat="45.77175" lon="6.58925">
        <ele>1928</ele>
        <time>2025-06-05T14:37:30Z</time>
      </trkpt>
      <trkpt lat="45.77168" lon="6.58915">
        <ele>1928</ele>
        <time>2025-06-05T14:37:32Z</time>
      </trkpt>
      <trkpt lat="45.7714" lon="6.58893">
        <ele>1925</ele>
        <time>2025-06-05T14:37:39Z</time>
      </trkpt>
      <trkpt lat="45.77112" lon="6.58853">
        <ele>1924</ele>
        <time>2025-06-05T14:37:49Z</time>
      </trkpt>
      <trkpt lat="45.77088" lon="6.58802">
        <ele>1923</ele>
        <time>2025-06-05T14:37:59Z</time>
      </trkpt>
      <trkpt lat="45.77061" lon="6.58723">
        <ele>1909</ele>
        <time>2025-06-05T14:38:13Z</time>
      </trkpt>
      <trkpt lat="45.7705" lon="6.58684">
        <ele>1902</ele>
        <time>2025-06-05T14:38:20Z</time>
      </trkpt>
      <trkpt lat="45.77038" lon="6.58653">
        <ele>1899</ele>
        <time>2025-06-05T14:38:26Z</time>
      </trkpt>
      <trkpt lat="45.77021" lon="6.58617">
        <ele>1898</ele>
        <time>2025-06-05T14:38:33Z</time>
      </trkpt>
      <trkpt lat="45.77003" lon="6.5859">
        <ele>1901</ele>
        <time>2025-06-05T14:38:39Z</time>
      </trkpt>
      <trkpt lat="45.76986" lon="6.58559">
        <ele>1894</ele>
        <time>2025-06-05T14:38:45Z</time>
      </trkpt>
      <trkpt lat="45.76971" lon="6.58528">
        <ele>1890</ele>
        <time>2025-06-05T14:38:51Z</time>
      </trkpt>
      <trkpt lat="45.76953" lon="6.58484">
        <ele>1887</ele>
        <time>2025-06-05T14:39:00Z</time>
      </trkpt>
      <trkpt lat="45.76938" lon="6.58444">
        <ele>1887</ele>
        <time>2025-06-05T14:39:07Z</time>
      </trkpt>
      <trkpt lat="45.7694" lon="6.58433">
        <ele>1887</ele>
        <time>2025-06-05T14:39:09Z</time>
      </trkpt>
      <trkpt lat="45.7694" lon="6.58417">
        <ele>1887</ele>
        <time>2025-06-05T14:39:11Z</time>
      </trkpt>
      <trkpt lat="45.7694" lon="6.58433">
        <ele>1887</ele>
        <time>2025-06-05T14:39:14Z</time>
      </trkpt>
      <trkpt lat="45.76938" lon="6.58444">
        <ele>1887</ele>
        <time>2025-06-05T14:39:16Z</time>
      </trkpt>
      <trkpt lat="45.76916" lon="6.584">
        <ele>1890</ele>
        <time>2025-06-05T14:39:25Z</time>
      </trkpt>
      <trkpt lat="45.76897" lon="6.58351">
        <ele>1880</ele>
        <time>2025-06-05T14:39:34Z</time>
      </trkpt>
      <trkpt lat="45.76882" lon="6.58298">
        <ele>1877</ele>
        <time>2025-06-05T14:39:43Z</time>
      </trkpt>
      <trkpt lat="45.76875" lon="6.58252">
        <ele>1878</ele>
        <time>2025-06-05T14:39:51Z</time>
      </trkpt>
      <trkpt lat="45.76869" lon="6.58164">
        <ele>1878</ele>
        <time>2025-06-05T14:40:05Z</time>
      </trkpt>
      <trkpt lat="45.76859" lon="6.5811">
        <ele>1873</ele>
        <time>2025-06-05T14:40:14Z</time>
      </trkpt>
      <trkpt lat="45.76857" lon="6.58086">
        <ele>1871</ele>
        <time>2025-06-05T14:40:18Z</time>
      </trkpt>
      <trkpt lat="45.76858" lon="6.5801">
        <ele>1868</ele>
        <time>2025-06-05T14:40:31Z</time>
      </trkpt>
      <trkpt lat="45.76856" lon="6.57936">
        <ele>1863</ele>
        <time>2025-06-05T14:40:43Z</time>
      </trkpt>
      <trkpt lat="45.76853" lon="6.57898">
        <ele>1861</ele>
        <time>2025-06-05T14:40:49Z</time>
      </trkpt>
      <trkpt lat="45.76848" lon="6.5787">
        <ele>1859</ele>
        <time>2025-06-05T14:40:54Z</time>
      </trkpt>
      <trkpt lat="45.76841" lon="6.57847">
        <ele>1856</ele>
        <time>2025-06-05T14:40:58Z</time>
      </trkpt>
      <trkpt lat="45.76833" lon="6.57828">
        <ele>1853</ele>
        <time>2025-06-05T14:41:01Z</time>
      </trkpt>
      <trkpt lat="45.76813" lon="6.57798">
        <ele>1849</ele>
        <time>2025-06-05T14:41:08Z</time>
      </trkpt>
      <trkpt lat="45.76809" lon="6.57789">
        <ele>1848</ele>
        <time>2025-06-05T14:41:10Z</time>
      </trkpt>
      <trkpt lat="45.76804" lon="6.57775">
        <ele>1848</ele>
        <time>2025-06-05T14:41:12Z</time>
      </trkpt>
      <trkpt lat="45.76795" lon="6.57738">
        <ele>1848</ele>
        <time>2025-06-05T14:41:19Z</time>
      </trkpt>
      <trkpt lat="45.76789" lon="6.57726">
        <ele>1848</ele>
        <time>2025-06-05T14:41:21Z</time>
      </trkpt>
      <trkpt lat="45.76781" lon="6.57718">
        <ele>1847</ele>
        <time>2025-06-05T14:41:23Z</time>
      </trkpt>
      <trkpt lat="45.76761" lon="6.57701">
        <ele>1843</ele>
        <time>2025-06-05T14:41:29Z</time>
      </trkpt>
      <trkpt lat="45.76714" lon="6.57659">
        <ele>1836</ele>
        <time>2025-06-05T14:41:42Z</time>
      </trkpt>
      <trkpt lat="45.76692" lon="6.57634">
        <ele>1833</ele>
        <time>2025-06-05T14:41:48Z</time>
      </trkpt>
      <trkpt lat="45.76673" lon="6.57611">
        <ele>1831</ele>
        <time>2025-06-05T14:41:54Z</time>
      </trkpt>
      <trkpt lat="45.76652" lon="6.57587">
        <ele>1827</ele>
        <time>2025-06-05T14:42:00Z</time>
      </trkpt>
      <trkpt lat="45.76644" lon="6.57577">
        <ele>1824</ele>
        <time>2025-06-05T14:42:03Z</time>
      </trkpt>
      <trkpt lat="45.76638" lon="6.57563">
        <ele>1823</ele>
        <time>2025-06-05T14:42:06Z</time>
      </trkpt>
      <trkpt lat="45.76633" lon="6.57552">
        <ele>1822</ele>
        <time>2025-06-05T14:42:08Z</time>
      </trkpt>
      <trkpt lat="45.76616" lon="6.5748">
        <ele>1818</ele>
        <time>2025-06-05T14:42:20Z</time>
      </trkpt>
      <trkpt lat="45.76615" lon="6.57459">
        <ele>1816</ele>
        <time>2025-06-05T14:42:24Z</time>
      </trkpt>
      <trkpt lat="45.76626" lon="6.57357">
        <ele>1811</ele>
        <time>2025-06-05T14:42:40Z</time>
      </trkpt>
      <trkpt lat="45.7663" lon="6.57349">
        <ele>1812</ele>
        <time>2025-06-05T14:42:42Z</time>
      </trkpt>
      <trkpt lat="45.76635" lon="6.57334">
        <ele>1812</ele>
        <time>2025-06-05T14:42:45Z</time>
      </trkpt>
      <trkpt lat="45.76634" lon="6.5732">
        <ele>1811</ele>
        <time>2025-06-05T14:42:47Z</time>
      </trkpt>
      <trkpt lat="45.7663" lon="6.57298">
        <ele>1808</ele>
        <time>2025-06-05T14:42:51Z</time>
      </trkpt>
      <trkpt lat="45.7663" lon="6.57258">
        <ele>1805</ele>
        <time>2025-06-05T14:42:57Z</time>
      </trkpt>
      <trkpt lat="45.76622" lon="6.57222">
        <ele>1800</ele>
        <time>2025-06-05T14:43:03Z</time>
      </trkpt>
      <trkpt lat="45.7661" lon="6.57164">
        <ele>1795</ele>
        <time>2025-06-05T14:43:13Z</time>
      </trkpt>
      <trkpt lat="45.76577" lon="6.5711">
        <ele>1787</ele>
        <time>2025-06-05T14:43:25Z</time>
      </trkpt>
      <trkpt lat="45.76572" lon="6.571">
        <ele>1786</ele>
        <time>2025-06-05T14:43:27Z</time>
      </trkpt>
      <trkpt lat="45.76562" lon="6.57073">
        <ele>1784</ele>
        <time>2025-06-05T14:43:32Z</time>
      </trkpt>
      <trkpt lat="45.76545" lon="6.57041">
        <ele>1779</ele>
        <time>2025-06-05T14:43:38Z</time>
      </trkpt>
      <trkpt lat="45.76534" lon="6.57023">
        <ele>1778</ele>
        <time>2025-06-05T14:43:42Z</time>
      </trkpt>
      <trkpt lat="45.76518" lon="6.57003">
        <ele>1779</ele>
        <time>2025-06-05T14:43:47Z</time>
      </trkpt>
      <trkpt lat="45.76507" lon="6.56986">
        <ele>1779</ele>
        <time>2025-06-05T14:43:51Z</time>
      </trkpt>
      <trkpt lat="45.76492" lon="6.56978">
        <ele>1779</ele>
        <time>2025-06-05T14:43:55Z</time>
      </trkpt>
      <trkpt lat="45.76488" lon="6.56967">
        <ele>1778</ele>
        <time>2025-06-05T14:43:57Z</time>
      </trkpt>
      <trkpt lat="45.76475" lon="6.56958">
        <ele>1778</ele>
        <time>2025-06-05T14:44:00Z</time>
      </trkpt>
      <trkpt lat="45.76458" lon="6.56939">
        <ele>1779</ele>
        <time>2025-06-05T14:44:05Z</time>
      </trkpt>
      <trkpt lat="45.76443" lon="6.56924">
        <ele>1780</ele>
        <time>2025-06-05T14:44:10Z</time>
      </trkpt>
      <trkpt lat="45.76424" lon="6.56907">
        <ele>1783</ele>
        <time>2025-06-05T14:44:15Z</time>
      </trkpt>
      <trkpt lat="45.7641" lon="6.56899">
        <ele>1784</ele>
        <time>2025-06-05T14:44:18Z</time>
      </trkpt>
      <trkpt lat="45.76398" lon="6.56881">
        <ele>1785</ele>
        <time>2025-06-05T14:44:22Z</time>
      </trkpt>
      <trkpt lat="45.76393" lon="6.5687">
        <ele>1786</ele>
        <time>2025-06-05T14:44:24Z</time>
      </trkpt>
      <trkpt lat="45.76382" lon="6.56857">
        <ele>1788</ele>
        <time>2025-06-05T14:44:28Z</time>
      </trkpt>
      <trkpt lat="45.76377" lon="6.56844">
        <ele>1789</ele>
        <time>2025-06-05T14:44:30Z</time>
      </trkpt>
      <trkpt lat="45.76368" lon="6.56836">
        <ele>1791</ele>
        <time>2025-06-05T14:44:33Z</time>
      </trkpt>
      <trkpt lat="45.76365" lon="6.56828">
        <ele>1792</ele>
        <time>2025-06-05T14:44:34Z</time>
      </trkpt>
      <trkpt lat="45.76362" lon="6.56787">
        <ele>1796</ele>
        <time>2025-06-05T14:44:41Z</time>
      </trkpt>
      <trkpt lat="45.76355" lon="6.56772">
        <ele>1799</ele>
        <time>2025-06-05T14:44:44Z</time>
      </trkpt>
      <trkpt lat="45.76342" lon="6.56741">
        <ele>1804</ele>
        <time>2025-06-05T14:44:50Z</time>
      </trkpt>
      <trkpt lat="45.76327" lon="6.56714">
        <ele>1804</ele>
        <time>2025-06-05T14:44:55Z</time>
      </trkpt>
      <trkpt lat="45.7631" lon="6.56675">
        <ele>1803</ele>
        <time>2025-06-05T14:45:03Z</time>
      </trkpt>
      <trkpt lat="45.76285" lon="6.56642">
        <ele>1801</ele>
        <time>2025-06-05T14:45:11Z</time>
      </trkpt>
      <trkpt lat="45.76273" lon="6.56637">
        <ele>1802</ele>
        <time>2025-06-05T14:45:14Z</time>
      </trkpt>
      <trkpt lat="45.76259" lon="6.56606">
        <ele>1803</ele>
        <time>2025-06-05T14:45:20Z</time>
      </trkpt>
      <trkpt lat="45.76255" lon="6.56595">
        <ele>1804</ele>
        <time>2025-06-05T14:45:22Z</time>
      </trkpt>
      <trkpt lat="45.7625" lon="6.56567">
        <ele>1805</ele>
        <time>2025-06-05T14:45:26Z</time>
      </trkpt>
      <trkpt lat="45.76243" lon="6.56559">
        <ele>1804</ele>
        <time>2025-06-05T14:45:29Z</time>
      </trkpt>
      <trkpt lat="45.76239" lon="6.5655">
        <ele>1804</ele>
        <time>2025-06-05T14:45:30Z</time>
      </trkpt>
      <trkpt lat="45.76239" lon="6.56542">
        <ele>1804</ele>
        <time>2025-06-05T14:45:32Z</time>
      </trkpt>
      <trkpt lat="45.76236" lon="6.56537">
        <ele>1804</ele>
        <time>2025-06-05T14:45:33Z</time>
      </trkpt>
      <trkpt lat="45.76233" lon="6.56536">
        <ele>1804</ele>
        <time>2025-06-05T14:45:33Z</time>
      </trkpt>
      <trkpt lat="45.76227" lon="6.56515">
        <ele>1804</ele>
        <time>2025-06-05T14:45:37Z</time>
      </trkpt>
      <trkpt lat="45.76215" lon="6.56506">
        <ele>1805</ele>
        <time>2025-06-05T14:45:40Z</time>
      </trkpt>
      <trkpt lat="45.76186" lon="6.56458">
        <ele>1809</ele>
        <time>2025-06-05T14:45:51Z</time>
      </trkpt>
      <trkpt lat="45.7618" lon="6.56455">
        <ele>1810</ele>
        <time>2025-06-05T14:45:52Z</time>
      </trkpt>
      <trkpt lat="45.76171" lon="6.56454">
        <ele>1812</ele>
        <time>2025-06-05T14:45:54Z</time>
      </trkpt>
      <trkpt lat="45.76166" lon="6.56455">
        <ele>1813</ele>
        <time>2025-06-05T14:45:55Z</time>
      </trkpt>
      <trkpt lat="45.7616" lon="6.56447">
        <ele>1812</ele>
        <time>2025-06-05T14:45:57Z</time>
      </trkpt>
      <trkpt lat="45.76156" lon="6.56437">
        <ele>1812</ele>
        <time>2025-06-05T14:45:59Z</time>
      </trkpt>
      <trkpt lat="45.7615" lon="6.56437">
        <ele>1811</ele>
        <time>2025-06-05T14:46:01Z</time>
      </trkpt>
      <trkpt lat="45.76149" lon="6.56436">
        <ele>1810</ele>
        <time>2025-06-05T14:46:01Z</time>
      </trkpt>
      <trkpt lat="45.76141" lon="6.56443">
        <ele>1808</ele>
        <time>2025-06-05T14:46:03Z</time>
      </trkpt>
      <trkpt lat="45.76136" lon="6.56438">
        <ele>1808</ele>
        <time>2025-06-05T14:46:04Z</time>
      </trkpt>
      <trkpt lat="45.76121" lon="6.56429">
        <ele>1805</ele>
        <time>2025-06-05T14:46:08Z</time>
      </trkpt>
      <trkpt lat="45.76094" lon="6.56421">
        <ele>1801</ele>
        <time>2025-06-05T14:46:15Z</time>
      </trkpt>
      <trkpt lat="45.76082" lon="6.5641">
        <ele>1799</ele>
        <time>2025-06-05T14:46:18Z</time>
      </trkpt>
      <trkpt lat="45.76056" lon="6.56372">
        <ele>1790</ele>
        <time>2025-06-05T14:46:27Z</time>
      </trkpt>
      <trkpt lat="45.76047" lon="6.56354">
        <ele>1788</ele>
        <time>2025-06-05T14:46:30Z</time>
      </trkpt>
      <trkpt lat="45.76034" lon="6.56338">
        <ele>1785</ele>
        <time>2025-06-05T14:46:34Z</time>
      </trkpt>
      <trkpt lat="45.76031" lon="6.56315">
        <ele>1783</ele>
        <time>2025-06-05T14:46:38Z</time>
      </trkpt>
      <trkpt lat="45.76024" lon="6.56305">
        <ele>1782</ele>
        <time>2025-06-05T14:46:40Z</time>
      </trkpt>
      <trkpt lat="45.76014" lon="6.563">
        <ele>1781</ele>
        <time>2025-06-05T14:46:43Z</time>
      </trkpt>
      <trkpt lat="45.76009" lon="6.56291">
        <ele>1780</ele>
        <time>2025-06-05T14:46:45Z</time>
      </trkpt>
      <trkpt lat="45.76003" lon="6.56275">
        <ele>1779</ele>
        <time>2025-06-05T14:46:48Z</time>
      </trkpt>
      <trkpt lat="45.75996" lon="6.5626">
        <ele>1778</ele>
        <time>2025-06-05T14:46:51Z</time>
      </trkpt>
      <trkpt lat="45.75986" lon="6.56247">
        <ele>1775</ele>
        <time>2025-06-05T14:46:54Z</time>
      </trkpt>
      <trkpt lat="45.75982" lon="6.56235">
        <ele>1774</ele>
        <time>2025-06-05T14:46:56Z</time>
      </trkpt>
      <trkpt lat="45.75981" lon="6.56216">
        <ele>1773</ele>
        <time>2025-06-05T14:46:59Z</time>
      </trkpt>
      <trkpt lat="45.75973" lon="6.562">
        <ele>1772</ele>
        <time>2025-06-05T14:47:02Z</time>
      </trkpt>
      <trkpt lat="45.75968" lon="6.56181">
        <ele>1771</ele>
        <time>2025-06-05T14:47:06Z</time>
      </trkpt>
      <trkpt lat="45.75967" lon="6.56159">
        <ele>1771</ele>
        <time>2025-06-05T14:47:09Z</time>
      </trkpt>
      <trkpt lat="45.75964" lon="6.56128">
        <ele>1770</ele>
        <time>2025-06-05T14:47:14Z</time>
      </trkpt>
      <trkpt lat="45.75958" lon="6.5611">
        <ele>1770</ele>
        <time>2025-06-05T14:47:18Z</time>
      </trkpt>
      <trkpt lat="45.75952" lon="6.56107">
        <ele>1771</ele>
        <time>2025-06-05T14:47:19Z</time>
      </trkpt>
      <trkpt lat="45.75947" lon="6.56084">
        <ele>1772</ele>
        <time>2025-06-05T14:47:23Z</time>
      </trkpt>
      <trkpt lat="45.75938" lon="6.56055">
        <ele>1773</ele>
        <time>2025-06-05T14:47:28Z</time>
      </trkpt>
      <trkpt lat="45.75926" lon="6.56013">
        <ele>1776</ele>
        <time>2025-06-05T14:47:36Z</time>
      </trkpt>
      <trkpt lat="45.75908" lon="6.55954">
        <ele>1782</ele>
        <time>2025-06-05T14:47:46Z</time>
      </trkpt>
      <trkpt lat="45.75907" lon="6.55919">
        <ele>1784</ele>
        <time>2025-06-05T14:47:52Z</time>
      </trkpt>
      <trkpt lat="45.75923" lon="6.55851">
        <ele>1785</ele>
        <time>2025-06-05T14:48:03Z</time>
      </trkpt>
      <trkpt lat="45.75957" lon="6.55778">
        <ele>1784</ele>
        <time>2025-06-05T14:48:18Z</time>
      </trkpt>
      <trkpt lat="45.76004" lon="6.55711">
        <ele>1780</ele>
        <time>2025-06-05T14:48:33Z</time>
      </trkpt>
      <trkpt lat="45.76008" lon="6.55692">
        <ele>1780</ele>
        <time>2025-06-05T14:48:36Z</time>
      </trkpt>
      <trkpt lat="45.76008" lon="6.55689">
        <ele>1780</ele>
        <time>2025-06-05T14:48:37Z</time>
      </trkpt>
      <trkpt lat="45.76007" lon="6.55604">
        <ele>1783</ele>
        <time>2025-06-05T14:48:51Z</time>
      </trkpt>
      <trkpt lat="45.76002" lon="6.55572">
        <ele>1785</ele>
        <time>2025-06-05T14:48:56Z</time>
      </trkpt>
      <trkpt lat="45.76003" lon="6.55524">
        <ele>1785</ele>
        <time>2025-06-05T14:49:04Z</time>
      </trkpt>
      <trkpt lat="45.76001" lon="6.55485">
        <ele>1787</ele>
        <time>2025-06-05T14:49:10Z</time>
      </trkpt>
      <trkpt lat="45.76003" lon="6.55474">
        <ele>1787</ele>
        <time>2025-06-05T14:49:12Z</time>
      </trkpt>
      <trkpt lat="45.76037" lon="6.55443">
        <ele>1784</ele>
        <time>2025-06-05T14:49:22Z</time>
      </trkpt>
      <trkpt lat="45.76041" lon="6.55425">
        <ele>1784</ele>
        <time>2025-06-05T14:49:25Z</time>
      </trkpt>
      <trkpt lat="45.76036" lon="6.55389">
        <ele>1786</ele>
        <time>2025-06-05T14:49:31Z</time>
      </trkpt>
      <trkpt lat="45.76036" lon="6.55355">
        <ele>1787</ele>
        <time>2025-06-05T14:49:36Z</time>
      </trkpt>
      <trkpt lat="45.76041" lon="6.55331">
        <ele>1787</ele>
        <time>2025-06-05T14:49:40Z</time>
      </trkpt>
      <trkpt lat="45.76058" lon="6.55288">
        <ele>1786</ele>
        <time>2025-06-05T14:49:48Z</time>
      </trkpt>
      <trkpt lat="45.76063" lon="6.55254">
        <ele>1786</ele>
        <time>2025-06-05T14:49:54Z</time>
      </trkpt>
      <trkpt lat="45.76076" lon="6.55266">
        <ele>1786</ele>
        <time>2025-06-05T14:49:58Z</time>
      </trkpt>
      <trkpt lat="45.76063" lon="6.55254">
        <ele>1786</ele>
        <time>2025-06-05T14:50:01Z</time>
      </trkpt>
      <trkpt lat="45.76064" lon="6.55243">
        <ele>1786</ele>
        <time>2025-06-05T14:50:03Z</time>
      </trkpt>
      <trkpt lat="45.76066" lon="6.55236">
        <ele>1786</ele>
        <time>2025-06-05T14:50:04Z</time>
      </trkpt>
      <trkpt lat="45.76078" lon="6.55218">
        <ele>1786</ele>
        <time>2025-06-05T14:50:08Z</time>
      </trkpt>
      <trkpt lat="45.76088" lon="6.55196">
        <ele>1786</ele>
        <time>2025-06-05T14:50:13Z</time>
      </trkpt>
      <trkpt lat="45.76101" lon="6.5515">
        <ele>1786</ele>
        <time>2025-06-05T14:50:21Z</time>
      </trkpt>
      <trkpt lat="45.76109" lon="6.55127">
        <ele>1786</ele>
        <time>2025-06-05T14:50:25Z</time>
      </trkpt>
      <trkpt lat="45.76125" lon="6.551">
        <ele>1787</ele>
        <time>2025-06-05T14:50:31Z</time>
      </trkpt>
      <trkpt lat="45.76157" lon="6.55076">
        <ele>1790</ele>
        <time>2025-06-05T14:50:39Z</time>
      </trkpt>
      <trkpt lat="45.76164" lon="6.55068">
        <ele>1791</ele>
        <time>2025-06-05T14:50:41Z</time>
      </trkpt>
      <trkpt lat="45.7617" lon="6.55061">
        <ele>1791</ele>
        <time>2025-06-05T14:50:43Z</time>
      </trkpt>
      <trkpt lat="45.76181" lon="6.55036">
        <ele>1793</ele>
        <time>2025-06-05T14:50:48Z</time>
      </trkpt>
      <trkpt lat="45.76199" lon="6.54991">
        <ele>1795</ele>
        <time>2025-06-05T14:50:56Z</time>
      </trkpt>
      <trkpt lat="45.76219" lon="6.54925">
        <ele>1799</ele>
        <time>2025-06-05T14:51:08Z</time>
      </trkpt>
      <trkpt lat="45.7624" lon="6.54844">
        <ele>1803</ele>
        <time>2025-06-05T14:51:22Z</time>
      </trkpt>
      <trkpt lat="45.76245" lon="6.54823">
        <ele>1804</ele>
        <time>2025-06-05T14:51:26Z</time>
      </trkpt>
      <trkpt lat="45.76268" lon="6.54767">
        <ele>1807</ele>
        <time>2025-06-05T14:51:36Z</time>
      </trkpt>
      <trkpt lat="45.76278" lon="6.5475">
        <ele>1807</ele>
        <time>2025-06-05T14:51:40Z</time>
      </trkpt>
      <trkpt lat="45.76287" lon="6.54739">
        <ele>1807</ele>
        <time>2025-06-05T14:51:43Z</time>
      </trkpt>
      <trkpt lat="45.76303" lon="6.54745">
        <ele>1808</ele>
        <time>2025-06-05T14:51:46Z</time>
      </trkpt>
      <trkpt lat="45.76349" lon="6.54758">
        <ele>1811</ele>
        <time>2025-06-05T14:51:57Z</time>
      </trkpt>
      <trkpt lat="45.76357" lon="6.54763">
        <ele>1811</ele>
        <time>2025-06-05T14:51:59Z</time>
      </trkpt>
      <trkpt lat="45.76369" lon="6.54771">
        <ele>1812</ele>
        <time>2025-06-05T14:52:03Z</time>
      </trkpt>
      <trkpt lat="45.76405" lon="6.54783">
        <ele>1814</ele>
        <time>2025-06-05T14:52:11Z</time>
      </trkpt>
      <trkpt lat="45.76442" lon="6.54798">
        <ele>1816</ele>
        <time>2025-06-05T14:52:20Z</time>
      </trkpt>
      <trkpt lat="45.76461" lon="6.54804">
        <ele>1818</ele>
        <time>2025-06-05T14:52:25Z</time>
      </trkpt>
      <trkpt lat="45.76499" lon="6.54817">
        <ele>1821</ele>
        <time>2025-06-05T14:52:34Z</time>
      </trkpt>
      <trkpt lat="45.76529" lon="6.54832">
        <ele>1824</ele>
        <time>2025-06-05T14:52:41Z</time>
      </trkpt>
      <trkpt lat="45.76543" lon="6.54841">
        <ele>1826</ele>
        <time>2025-06-05T14:52:45Z</time>
      </trkpt>
      <trkpt lat="45.76564" lon="6.54849">
        <ele>1828</ele>
        <time>2025-06-05T14:52:50Z</time>
      </trkpt>
      <trkpt lat="45.76576" lon="6.54855">
        <ele>1830</ele>
        <time>2025-06-05T14:52:53Z</time>
      </trkpt>
      <trkpt lat="45.76607" lon="6.54853">
        <ele>1834</ele>
        <time>2025-06-05T14:53:00Z</time>
      </trkpt>
      <trkpt lat="45.76621" lon="6.54849">
        <ele>1835</ele>
        <time>2025-06-05T14:53:03Z</time>
      </trkpt>
      <trkpt lat="45.76629" lon="6.54843">
        <ele>1836</ele>
        <time>2025-06-05T14:53:06Z</time>
      </trkpt>
      <trkpt lat="45.76654" lon="6.54818">
        <ele>1839</ele>
        <time>2025-06-05T14:53:13Z</time>
      </trkpt>
      <trkpt lat="45.76691" lon="6.54786">
        <ele>1843</ele>
        <time>2025-06-05T14:53:23Z</time>
      </trkpt>
      <trkpt lat="45.76714" lon="6.54777">
        <ele>1846</ele>
        <time>2025-06-05T14:53:28Z</time>
      </trkpt>
      <trkpt lat="45.76737" lon="6.54773">
        <ele>1850</ele>
        <time>2025-06-05T14:53:34Z</time>
      </trkpt>
      <trkpt lat="45.76744" lon="6.54768">
        <ele>1851</ele>
        <time>2025-06-05T14:53:36Z</time>
      </trkpt>
      <trkpt lat="45.76761" lon="6.54751">
        <ele>1855</ele>
        <time>2025-06-05T14:53:40Z</time>
      </trkpt>
      <trkpt lat="45.76773" lon="6.54744">
        <ele>1858</ele>
        <time>2025-06-05T14:53:43Z</time>
      </trkpt>
      <trkpt lat="45.76783" lon="6.54742">
        <ele>1860</ele>
        <time>2025-06-05T14:53:46Z</time>
      </trkpt>
      <trkpt lat="45.76795" lon="6.54738">
        <ele>1863</ele>
        <time>2025-06-05T14:53:49Z</time>
      </trkpt>
      <trkpt lat="45.76798" lon="6.54733">
        <ele>1864</ele>
        <time>2025-06-05T14:53:50Z</time>
      </trkpt>
      <trkpt lat="45.768" lon="6.54727">
        <ele>1865</ele>
        <time>2025-06-05T14:53:51Z</time>
      </trkpt>
      <trkpt lat="45.76802" lon="6.54714">
        <ele>1866</ele>
        <time>2025-06-05T14:53:53Z</time>
      </trkpt>
      <trkpt lat="45.76803" lon="6.54699">
        <ele>1867</ele>
        <time>2025-06-05T14:53:55Z</time>
      </trkpt>
      <trkpt lat="45.76807" lon="6.54669">
        <ele>1869</ele>
        <time>2025-06-05T14:54:00Z</time>
      </trkpt>
      <trkpt lat="45.76812" lon="6.54634">
        <ele>1869</ele>
        <time>2025-06-05T14:54:06Z</time>
      </trkpt>
      <trkpt lat="45.76816" lon="6.54619">
        <ele>1869</ele>
        <time>2025-06-05T14:54:09Z</time>
      </trkpt>
      <trkpt lat="45.76818" lon="6.54616">
        <ele>1869</ele>
        <time>2025-06-05T14:54:10Z</time>
      </trkpt>
      <trkpt lat="45.76822" lon="6.54611">
        <ele>1869</ele>
        <time>2025-06-05T14:54:11Z</time>
      </trkpt>
      <trkpt lat="45.76826" lon="6.54611">
        <ele>1869</ele>
        <time>2025-06-05T14:54:12Z</time>
      </trkpt>
      <trkpt lat="45.76831" lon="6.54616">
        <ele>1870</ele>
        <time>2025-06-05T14:54:13Z</time>
      </trkpt>
      <trkpt lat="45.7684" lon="6.54627">
        <ele>1871</ele>
        <time>2025-06-05T14:54:16Z</time>
      </trkpt>
      <trkpt lat="45.76852" lon="6.54642">
        <ele>1872</ele>
        <time>2025-06-05T14:54:20Z</time>
      </trkpt>
      <trkpt lat="45.76863" lon="6.54653">
        <ele>1873</ele>
        <time>2025-06-05T14:54:23Z</time>
      </trkpt>
      <trkpt lat="45.76883" lon="6.54666">
        <ele>1876</ele>
        <time>2025-06-05T14:54:28Z</time>
      </trkpt>
      <trkpt lat="45.76892" lon="6.5467">
        <ele>1877</ele>
        <time>2025-06-05T14:54:30Z</time>
      </trkpt>
      <trkpt lat="45.76911" lon="6.54676">
        <ele>1878</ele>
        <time>2025-06-05T14:54:35Z</time>
      </trkpt>
      <trkpt lat="45.76918" lon="6.54681">
        <ele>1878</ele>
        <time>2025-06-05T14:54:36Z</time>
      </trkpt>
      <trkpt lat="45.76927" lon="6.54699">
        <ele>1878</ele>
        <time>2025-06-05T14:54:40Z</time>
      </trkpt>
      <trkpt lat="45.76933" lon="6.54718">
        <ele>1878</ele>
        <time>2025-06-05T14:54:43Z</time>
      </trkpt>
      <trkpt lat="45.76944" lon="6.54722">
        <ele>1877</ele>
        <time>2025-06-05T14:54:46Z</time>
      </trkpt>
      <trkpt lat="45.76951" lon="6.54719">
        <ele>1876</ele>
        <time>2025-06-05T14:54:48Z</time>
      </trkpt>
      <trkpt lat="45.7696" lon="6.54717">
        <ele>1875</ele>
        <time>2025-06-05T14:54:50Z</time>
      </trkpt>
      <trkpt lat="45.7697" lon="6.54719">
        <ele>1874</ele>
        <time>2025-06-05T14:54:52Z</time>
      </trkpt>
      <trkpt lat="45.76982" lon="6.54724">
        <ele>1873</ele>
        <time>2025-06-05T14:54:55Z</time>
      </trkpt>
      <trkpt lat="45.76994" lon="6.54723">
        <ele>1872</ele>
        <time>2025-06-05T14:54:58Z</time>
      </trkpt>
      <trkpt lat="45.76999" lon="6.54721">
        <ele>1871</ele>
        <time>2025-06-05T14:54:59Z</time>
      </trkpt>
      <trkpt lat="45.77002" lon="6.54719">
        <ele>1870</ele>
        <time>2025-06-05T14:55:00Z</time>
      </trkpt>
      <trkpt lat="45.77003" lon="6.54716">
        <ele>1870</ele>
        <time>2025-06-05T14:55:01Z</time>
      </trkpt>
      <trkpt lat="45.7701" lon="6.54703">
        <ele>1867</ele>
        <time>2025-06-05T14:55:03Z</time>
      </trkpt>
      <trkpt lat="45.77011" lon="6.547">
        <ele>1866</ele>
        <time>2025-06-05T14:55:04Z</time>
      </trkpt>
      <trkpt lat="45.77005" lon="6.54692">
        <ele>1869</ele>
        <time>2025-06-05T14:55:06Z</time>
      </trkpt>
      <trkpt lat="45.76997" lon="6.54686">
        <ele>1871</ele>
        <time>2025-06-05T14:55:08Z</time>
      </trkpt>
      <trkpt lat="45.76993" lon="6.5468">
        <ele>1872</ele>
        <time>2025-06-05T14:55:09Z</time>
      </trkpt>
      <trkpt lat="45.76992" lon="6.54676">
        <ele>1872</ele>
        <time>2025-06-05T14:55:10Z</time>
      </trkpt>
      <trkpt lat="45.76993" lon="6.54672">
        <ele>1872</ele>
        <time>2025-06-05T14:55:10Z</time>
      </trkpt>
      <trkpt lat="45.7703" lon="6.54655">
        <ele>1857</ele>
        <time>2025-06-05T14:55:20Z</time>
      </trkpt>
      <trkpt lat="45.77034" lon="6.54655">
        <ele>1856</ele>
        <time>2025-06-05T14:55:21Z</time>
      </trkpt>
      <trkpt lat="45.77039" lon="6.54657">
        <ele>1854</ele>
        <time>2025-06-05T14:55:22Z</time>
      </trkpt>
      <trkpt lat="45.7704" lon="6.54657">
        <ele>1854</ele>
        <time>2025-06-05T14:55:22Z</time>
      </trkpt>
      <trkpt lat="45.77042" lon="6.54655">
        <ele>1853</ele>
        <time>2025-06-05T14:55:23Z</time>
      </trkpt>
      <trkpt lat="45.77043" lon="6.54651">
        <ele>1852</ele>
        <time>2025-06-05T14:55:23Z</time>
      </trkpt>
      <trkpt lat="45.7704" lon="6.54646">
        <ele>1853</ele>
        <time>2025-06-05T14:55:24Z</time>
      </trkpt>
      <trkpt lat="45.77037" lon="6.54643">
        <ele>1853</ele>
        <time>2025-06-05T14:55:25Z</time>
      </trkpt>
      <trkpt lat="45.77025" lon="6.54638">
        <ele>1856</ele>
        <time>2025-06-05T14:55:28Z</time>
      </trkpt>
      <trkpt lat="45.77015" lon="6.54636">
        <ele>1858</ele>
        <time>2025-06-05T14:55:30Z</time>
      </trkpt>
      <trkpt lat="45.77006" lon="6.54637">
        <ele>1860</ele>
        <time>2025-06-05T14:55:33Z</time>
      </trkpt>
      <trkpt lat="45.76997" lon="6.54634">
        <ele>1861</ele>
        <time>2025-06-05T14:55:35Z</time>
      </trkpt>
      <trkpt lat="45.77006" lon="6.54632">
        <ele>1859</ele>
        <time>2025-06-05T14:55:37Z</time>
      </trkpt>
      <trkpt lat="45.77027" lon="6.5462">
        <ele>1852</ele>
        <time>2025-06-05T14:55:42Z</time>
      </trkpt>
      <trkpt lat="45.77039" lon="6.54616">
        <ele>1849</ele>
        <time>2025-06-05T14:55:45Z</time>
      </trkpt>
      <trkpt lat="45.77061" lon="6.54603">
        <ele>1846</ele>
        <time>2025-06-05T14:55:51Z</time>
      </trkpt>
      <trkpt lat="45.77079" lon="6.54603">
        <ele>1844</ele>
        <time>2025-06-05T14:55:55Z</time>
      </trkpt>
      <trkpt lat="45.77086" lon="6.54605">
        <ele>1843</ele>
        <time>2025-06-05T14:55:56Z</time>
      </trkpt>
      <trkpt lat="45.77097" lon="6.54604">
        <ele>1840</ele>
        <time>2025-06-05T14:55:59Z</time>
      </trkpt>
      <trkpt lat="45.77101" lon="6.54606">
        <ele>1838</ele>
        <time>2025-06-05T14:56:00Z</time>
      </trkpt>
      <trkpt lat="45.77108" lon="6.54606">
        <ele>1836</ele>
        <time>2025-06-05T14:56:02Z</time>
      </trkpt>
      <trkpt lat="45.77116" lon="6.54597">
        <ele>1835</ele>
        <time>2025-06-05T14:56:04Z</time>
      </trkpt>
      <trkpt lat="45.77123" lon="6.54584">
        <ele>1836</ele>
        <time>2025-06-05T14:56:07Z</time>
      </trkpt>
      <trkpt lat="45.77123" lon="6.54555">
        <ele>1837</ele>
        <time>2025-06-05T14:56:11Z</time>
      </trkpt>
      <trkpt lat="45.77124" lon="6.54539">
        <ele>1837</ele>
        <time>2025-06-05T14:56:14Z</time>
      </trkpt>
      <trkpt lat="45.77131" lon="6.54512">
        <ele>1838</ele>
        <time>2025-06-05T14:56:19Z</time>
      </trkpt>
      <trkpt lat="45.77139" lon="6.54501">
        <ele>1839</ele>
        <time>2025-06-05T14:56:21Z</time>
      </trkpt>
      <trkpt lat="45.77144" lon="6.54499">
        <ele>1839</ele>
        <time>2025-06-05T14:56:22Z</time>
      </trkpt>
      <trkpt lat="45.77155" lon="6.54493">
        <ele>1839</ele>
        <time>2025-06-05T14:56:25Z</time>
      </trkpt>
      <trkpt lat="45.77155" lon="6.54486">
        <ele>1838</ele>
        <time>2025-06-05T14:56:26Z</time>
      </trkpt>
      <trkpt lat="45.7715" lon="6.54478">
        <ele>1837</ele>
        <time>2025-06-05T14:56:28Z</time>
      </trkpt>
      <trkpt lat="45.77133" lon="6.54461">
        <ele>1833</ele>
        <time>2025-06-05T14:56:33Z</time>
      </trkpt>
      <trkpt lat="45.77124" lon="6.54437">
        <ele>1828</ele>
        <time>2025-06-05T14:56:37Z</time>
      </trkpt>
      <trkpt lat="45.77122" lon="6.54424">
        <ele>1826</ele>
        <time>2025-06-05T14:56:40Z</time>
      </trkpt>
      <trkpt lat="45.77114" lon="6.54416">
        <ele>1824</ele>
        <time>2025-06-05T14:56:42Z</time>
      </trkpt>
      <trkpt lat="45.77115" lon="6.5441">
        <ele>1822</ele>
        <time>2025-06-05T14:56:43Z</time>
      </trkpt>
      <trkpt lat="45.77119" lon="6.54402">
        <ele>1821</ele>
        <time>2025-06-05T14:56:44Z</time>
      </trkpt>
      <trkpt lat="45.77131" lon="6.54385">
        <ele>1819</ele>
        <time>2025-06-05T14:56:48Z</time>
      </trkpt>
      <trkpt lat="45.77148" lon="6.54364">
        <ele>1817</ele>
        <time>2025-06-05T14:56:54Z</time>
      </trkpt>
      <trkpt lat="45.77179" lon="6.54348">
        <ele>1815</ele>
        <time>2025-06-05T14:57:01Z</time>
      </trkpt>
      <trkpt lat="45.77215" lon="6.54348">
        <ele>1810</ele>
        <time>2025-06-05T14:57:10Z</time>
      </trkpt>
      <trkpt lat="45.77227" lon="6.54349">
        <ele>1809</ele>
        <time>2025-06-05T14:57:13Z</time>
      </trkpt>
      <trkpt lat="45.77248" lon="6.54348">
        <ele>1806</ele>
        <time>2025-06-05T14:57:17Z</time>
      </trkpt>
      <trkpt lat="45.77259" lon="6.54351">
        <ele>1805</ele>
        <time>2025-06-05T14:57:20Z</time>
      </trkpt>
      <trkpt lat="45.77282" lon="6.54353">
        <ele>1801</ele>
        <time>2025-06-05T14:57:25Z</time>
      </trkpt>
      <trkpt lat="45.77287" lon="6.54353">
        <ele>1800</ele>
        <time>2025-06-05T14:57:27Z</time>
      </trkpt>
      <trkpt lat="45.77304" lon="6.54348">
        <ele>1796</ele>
        <time>2025-06-05T14:57:31Z</time>
      </trkpt>
      <trkpt lat="45.77322" lon="6.54345">
        <ele>1792</ele>
        <time>2025-06-05T14:57:35Z</time>
      </trkpt>
      <trkpt lat="45.77331" lon="6.54338">
        <ele>1789</ele>
        <time>2025-06-05T14:57:37Z</time>
      </trkpt>
      <trkpt lat="45.77343" lon="6.54334">
        <ele>1788</ele>
        <time>2025-06-05T14:57:40Z</time>
      </trkpt>
      <trkpt lat="45.77362" lon="6.54319">
        <ele>1784</ele>
        <time>2025-06-05T14:57:45Z</time>
      </trkpt>
      <trkpt lat="45.77376" lon="6.54304">
        <ele>1781</ele>
        <time>2025-06-05T14:57:49Z</time>
      </trkpt>
      <trkpt lat="45.77417" lon="6.54255">
        <ele>1771</ele>
        <time>2025-06-05T14:58:02Z</time>
      </trkpt>
      <trkpt lat="45.7745" lon="6.54208">
        <ele>1765</ele>
        <time>2025-06-05T14:58:13Z</time>
      </trkpt>
      <trkpt lat="45.77485" lon="6.54176">
        <ele>1764</ele>
        <time>2025-06-05T14:58:22Z</time>
      </trkpt>
      <trkpt lat="45.77496" lon="6.54163">
        <ele>1764</ele>
        <time>2025-06-05T14:58:26Z</time>
      </trkpt>
      <trkpt lat="45.77522" lon="6.54119">
        <ele>1754</ele>
        <time>2025-06-05T14:58:35Z</time>
      </trkpt>
      <trkpt lat="45.77526" lon="6.54102">
        <ele>1750</ele>
        <time>2025-06-05T14:58:38Z</time>
      </trkpt>
      <trkpt lat="45.77526" lon="6.54073">
        <ele>1745</ele>
        <time>2025-06-05T14:58:43Z</time>
      </trkpt>
      <trkpt lat="45.77543" lon="6.54041">
        <ele>1737</ele>
        <time>2025-06-05T14:58:49Z</time>
      </trkpt>
      <trkpt lat="45.7756" lon="6.54026">
        <ele>1734</ele>
        <time>2025-06-05T14:58:54Z</time>
      </trkpt>
      <trkpt lat="45.77575" lon="6.54024">
        <ele>1734</ele>
        <time>2025-06-05T14:58:57Z</time>
      </trkpt>
      <trkpt lat="45.77588" lon="6.54026">
        <ele>1734</ele>
        <time>2025-06-05T14:59:00Z</time>
      </trkpt>
      <trkpt lat="45.77606" lon="6.54025">
        <ele>1730</ele>
        <time>2025-06-05T14:59:05Z</time>
      </trkpt>
      <trkpt lat="45.7762" lon="6.54023">
        <ele>1728</ele>
        <time>2025-06-05T14:59:08Z</time>
      </trkpt>
      <trkpt lat="45.77646" lon="6.54024">
        <ele>1723</ele>
        <time>2025-06-05T14:59:14Z</time>
      </trkpt>
      <trkpt lat="45.77666" lon="6.5402">
        <ele>1719</ele>
        <time>2025-06-05T14:59:19Z</time>
      </trkpt>
      <trkpt lat="45.77688" lon="6.54023">
        <ele>1714</ele>
        <time>2025-06-05T14:59:24Z</time>
      </trkpt>
      <trkpt lat="45.77701" lon="6.54031">
        <ele>1712</ele>
        <time>2025-06-05T14:59:27Z</time>
      </trkpt>
      <trkpt lat="45.77717" lon="6.54046">
        <ele>1709</ele>
        <time>2025-06-05T14:59:32Z</time>
      </trkpt>
      <trkpt lat="45.77736" lon="6.54054">
        <ele>1705</ele>
        <time>2025-06-05T14:59:36Z</time>
      </trkpt>
      <trkpt lat="45.7774" lon="6.54038">
        <ele>1702</ele>
        <time>2025-06-05T14:59:39Z</time>
      </trkpt>
      <trkpt lat="45.77718" lon="6.54002">
        <ele>1704</ele>
        <time>2025-06-05T14:59:47Z</time>
      </trkpt>
      <trkpt lat="45.77704" lon="6.5398">
        <ele>1702</ele>
        <time>2025-06-05T14:59:52Z</time>
      </trkpt>
      <trkpt lat="45.77683" lon="6.53955">
        <ele>1702</ele>
        <time>2025-06-05T14:59:58Z</time>
      </trkpt>
      <trkpt lat="45.77664" lon="6.53937">
        <ele>1702</ele>
        <time>2025-06-05T15:00:03Z</time>
      </trkpt>
      <trkpt lat="45.7764" lon="6.53921">
        <ele>1704</ele>
        <time>2025-06-05T15:00:10Z</time>
      </trkpt>
      <trkpt lat="45.77601" lon="6.53876">
        <ele>1698</ele>
        <time>2025-06-05T15:00:21Z</time>
      </trkpt>
      <trkpt lat="45.77592" lon="6.53861">
        <ele>1695</ele>
        <time>2025-06-05T15:00:25Z</time>
      </trkpt>
      <trkpt lat="45.77578" lon="6.53827">
        <ele>1687</ele>
        <time>2025-06-05T15:00:31Z</time>
      </trkpt>
      <trkpt lat="45.77546" lon="6.53762">
        <ele>1668</ele>
        <time>2025-06-05T15:00:44Z</time>
      </trkpt>
      <trkpt lat="45.77541" lon="6.53752">
        <ele>1666</ele>
        <time>2025-06-05T15:00:46Z</time>
      </trkpt>
      <trkpt lat="45.77529" lon="6.53737">
        <ele>1664</ele>
        <time>2025-06-05T15:00:50Z</time>
      </trkpt>
      <trkpt lat="45.7751" lon="6.53724">
        <ele>1664</ele>
        <time>2025-06-05T15:00:55Z</time>
      </trkpt>
      <trkpt lat="45.77493" lon="6.53707">
        <ele>1660</ele>
        <time>2025-06-05T15:00:59Z</time>
      </trkpt>
      <trkpt lat="45.77479" lon="6.53698">
        <ele>1656</ele>
        <time>2025-06-05T15:01:03Z</time>
      </trkpt>
      <trkpt lat="45.77448" lon="6.53699">
        <ele>1655</ele>
        <time>2025-06-05T15:01:10Z</time>
      </trkpt>
      <trkpt lat="45.7743" lon="6.53698">
        <ele>1653</ele>
        <time>2025-06-05T15:01:14Z</time>
      </trkpt>
      <trkpt lat="45.77417" lon="6.53695">
        <ele>1652</ele>
        <time>2025-06-05T15:01:17Z</time>
      </trkpt>
      <trkpt lat="45.77406" lon="6.53705">
        <ele>1651</ele>
        <time>2025-06-05T15:01:21Z</time>
      </trkpt>
      <trkpt lat="45.77357" lon="6.53745">
        <ele>1643</ele>
        <time>2025-06-05T15:01:34Z</time>
      </trkpt>
      <trkpt lat="45.77348" lon="6.53759">
        <ele>1643</ele>
        <time>2025-06-05T15:01:37Z</time>
      </trkpt>
      <trkpt lat="45.77337" lon="6.53771">
        <ele>1641</ele>
        <time>2025-06-05T15:01:40Z</time>
      </trkpt>
      <trkpt lat="45.77321" lon="6.53774">
        <ele>1638</ele>
        <time>2025-06-05T15:01:44Z</time>
      </trkpt>
      <trkpt lat="45.77312" lon="6.53782">
        <ele>1639</ele>
        <time>2025-06-05T15:01:46Z</time>
      </trkpt>
      <trkpt lat="45.77304" lon="6.53784">
        <ele>1638</ele>
        <time>2025-06-05T15:01:48Z</time>
      </trkpt>
      <trkpt lat="45.77276" lon="6.53733">
        <ele>1621</ele>
        <time>2025-06-05T15:01:59Z</time>
      </trkpt>
      <trkpt lat="45.7727" lon="6.53716">
        <ele>1617</ele>
        <time>2025-06-05T15:02:02Z</time>
      </trkpt>
      <trkpt lat="45.77262" lon="6.53702">
        <ele>1613</ele>
        <time>2025-06-05T15:02:05Z</time>
      </trkpt>
      <trkpt lat="45.77252" lon="6.53704">
        <ele>1612</ele>
        <time>2025-06-05T15:02:07Z</time>
      </trkpt>
      <trkpt lat="45.77244" lon="6.53704">
        <ele>1611</ele>
        <time>2025-06-05T15:02:09Z</time>
      </trkpt>
      <trkpt lat="45.77238" lon="6.53686">
        <ele>1609</ele>
        <time>2025-06-05T15:02:12Z</time>
      </trkpt>
      <trkpt lat="45.77244" lon="6.53656">
        <ele>1605</ele>
        <time>2025-06-05T15:02:17Z</time>
      </trkpt>
      <trkpt lat="45.77253" lon="6.53643">
        <ele>1604</ele>
        <time>2025-06-05T15:02:20Z</time>
      </trkpt>
      <trkpt lat="45.77283" lon="6.53621">
        <ele>1607</ele>
        <time>2025-06-05T15:02:28Z</time>
      </trkpt>
      <trkpt lat="45.77297" lon="6.53571">
        <ele>1602</ele>
        <time>2025-06-05T15:02:37Z</time>
      </trkpt>
      <trkpt lat="45.77301" lon="6.5357">
        <ele>1603</ele>
        <time>2025-06-05T15:02:38Z</time>
      </trkpt>
      <trkpt lat="45.77297" lon="6.53571">
        <ele>1602</ele>
        <time>2025-06-05T15:02:39Z</time>
      </trkpt>
      <trkpt lat="45.77308" lon="6.53524">
        <ele>1597</ele>
        <time>2025-06-05T15:02:47Z</time>
      </trkpt>
      <trkpt lat="45.77333" lon="6.53404">
        <ele>1576</ele>
        <time>2025-06-05T15:03:07Z</time>
      </trkpt>
      <trkpt lat="45.77309" lon="6.53317">
        <ele>1563</ele>
        <time>2025-06-05T15:03:23Z</time>
      </trkpt>
      <trkpt lat="45.77391" lon="6.53238">
        <ele>1549</ele>
        <time>2025-06-05T15:03:46Z</time>
      </trkpt>
      <trkpt lat="45.77452" lon="6.53228">
        <ele>1540</ele>
        <time>2025-06-05T15:04:00Z</time>
      </trkpt>
      <trkpt lat="45.77462" lon="6.53234">
        <ele>1539</ele>
        <time>2025-06-05T15:04:03Z</time>
      </trkpt>
      <trkpt lat="45.77468" lon="6.53222">
        <ele>1537</ele>
        <time>2025-06-05T15:04:05Z</time>
      </trkpt>
      <trkpt lat="45.77468" lon="6.53205">
        <ele>1535</ele>
        <time>2025-06-05T15:04:08Z</time>
      </trkpt>
      <trkpt lat="45.77467" lon="6.5319">
        <ele>1534</ele>
        <time>2025-06-05T15:04:10Z</time>
      </trkpt>
      <trkpt lat="45.7747" lon="6.53184">
        <ele>1533</ele>
        <time>2025-06-05T15:04:11Z</time>
      </trkpt>
      <trkpt lat="45.77478" lon="6.53174">
        <ele>1531</ele>
        <time>2025-06-05T15:04:14Z</time>
      </trkpt>
      <trkpt lat="45.77481" lon="6.53169">
        <ele>1530</ele>
        <time>2025-06-05T15:04:15Z</time>
      </trkpt>
      <trkpt lat="45.77482" lon="6.53149">
        <ele>1528</ele>
        <time>2025-06-05T15:04:18Z</time>
      </trkpt>
      <trkpt lat="45.77496" lon="6.53149">
        <ele>1526</ele>
        <time>2025-06-05T15:04:21Z</time>
      </trkpt>
      <trkpt lat="45.77513" lon="6.53152">
        <ele>1524</ele>
        <time>2025-06-05T15:04:25Z</time>
      </trkpt>
      <trkpt lat="45.77538" lon="6.53121">
        <ele>1519</ele>
        <time>2025-06-05T15:04:33Z</time>
      </trkpt>
      <trkpt lat="45.77542" lon="6.53114">
        <ele>1517</ele>
        <time>2025-06-05T15:04:35Z</time>
      </trkpt>
      <trkpt lat="45.77552" lon="6.53113">
        <ele>1516</ele>
        <time>2025-06-05T15:04:37Z</time>
      </trkpt>
      <trkpt lat="45.7757" lon="6.53098">
        <ele>1513</ele>
        <time>2025-06-05T15:04:42Z</time>
      </trkpt>
      <trkpt lat="45.77581" lon="6.53095">
        <ele>1512</ele>
        <time>2025-06-05T15:04:44Z</time>
      </trkpt>
      <trkpt lat="45.77599" lon="6.53095">
        <ele>1511</ele>
        <time>2025-06-05T15:04:49Z</time>
      </trkpt>
      <trkpt lat="45.7763" lon="6.53079">
        <ele>1507</ele>
        <time>2025-06-05T15:04:56Z</time>
      </trkpt>
      <trkpt lat="45.77647" lon="6.5307">
        <ele>1504</ele>
        <time>2025-06-05T15:05:01Z</time>
      </trkpt>
      <trkpt lat="45.7766" lon="6.5307">
        <ele>1503</ele>
        <time>2025-06-05T15:05:04Z</time>
      </trkpt>
      <trkpt lat="45.77671" lon="6.53071">
        <ele>1502</ele>
        <time>2025-06-05T15:05:06Z</time>
      </trkpt>
      <trkpt lat="45.7768" lon="6.53079">
        <ele>1503</ele>
        <time>2025-06-05T15:05:09Z</time>
      </trkpt>
      <trkpt lat="45.77686" lon="6.53085">
        <ele>1504</ele>
        <time>2025-06-05T15:05:10Z</time>
      </trkpt>
      <trkpt lat="45.77694" lon="6.53084">
        <ele>1504</ele>
        <time>2025-06-05T15:05:12Z</time>
      </trkpt>
      <trkpt lat="45.77701" lon="6.53079">
        <ele>1502</ele>
        <time>2025-06-05T15:05:14Z</time>
      </trkpt>
      <trkpt lat="45.77706" lon="6.53072">
        <ele>1501</ele>
        <time>2025-06-05T15:05:16Z</time>
      </trkpt>
      <trkpt lat="45.7772" lon="6.53061">
        <ele>1498</ele>
        <time>2025-06-05T15:05:19Z</time>
      </trkpt>
      <trkpt lat="45.77752" lon="6.53056">
        <ele>1496</ele>
        <time>2025-06-05T15:05:27Z</time>
      </trkpt>
      <trkpt lat="45.77785" lon="6.53065">
        <ele>1494</ele>
        <time>2025-06-05T15:05:35Z</time>
      </trkpt>
      <trkpt lat="45.77815" lon="6.53066">
        <ele>1491</ele>
        <time>2025-06-05T15:05:42Z</time>
      </trkpt>
      <trkpt lat="45.77834" lon="6.53062">
        <ele>1488</ele>
        <time>2025-06-05T15:05:46Z</time>
      </trkpt>
      <trkpt lat="45.77842" lon="6.53062">
        <ele>1487</ele>
        <time>2025-06-05T15:05:48Z</time>
      </trkpt>
      <trkpt lat="45.77847" lon="6.53062">
        <ele>1487</ele>
        <time>2025-06-05T15:05:49Z</time>
      </trkpt>
      <trkpt lat="45.7787" lon="6.53071">
        <ele>1485</ele>
        <time>2025-06-05T15:05:55Z</time>
      </trkpt>
      <trkpt lat="45.77893" lon="6.5307">
        <ele>1482</ele>
        <time>2025-06-05T15:06:00Z</time>
      </trkpt>
      <trkpt lat="45.77904" lon="6.53073">
        <ele>1481</ele>
        <time>2025-06-05T15:06:03Z</time>
      </trkpt>
      <trkpt lat="45.77921" lon="6.53087">
        <ele>1480</ele>
        <time>2025-06-05T15:06:07Z</time>
      </trkpt>
      <trkpt lat="45.77933" lon="6.53104">
        <ele>1482</ele>
        <time>2025-06-05T15:06:11Z</time>
      </trkpt>
      <trkpt lat="45.77946" lon="6.53105">
        <ele>1479</ele>
        <time>2025-06-05T15:06:14Z</time>
      </trkpt>
      <trkpt lat="45.77938" lon="6.53086">
        <ele>1476</ele>
        <time>2025-06-05T15:06:18Z</time>
      </trkpt>
      <trkpt lat="45.77923" lon="6.5306">
        <ele>1476</ele>
        <time>2025-06-05T15:06:24Z</time>
      </trkpt>
      <trkpt lat="45.77909" lon="6.53042">
        <ele>1476</ele>
        <time>2025-06-05T15:06:28Z</time>
      </trkpt>
      <trkpt lat="45.77904" lon="6.53025">
        <ele>1475</ele>
        <time>2025-06-05T15:06:31Z</time>
      </trkpt>
      <trkpt lat="45.77903" lon="6.53011">
        <ele>1473</ele>
        <time>2025-06-05T15:06:33Z</time>
      </trkpt>
      <trkpt lat="45.77913" lon="6.53008">
        <ele>1472</ele>
        <time>2025-06-05T15:06:36Z</time>
      </trkpt>
      <trkpt lat="45.77925" lon="6.53002">
        <ele>1471</ele>
        <time>2025-06-05T15:06:39Z</time>
      </trkpt>
      <trkpt lat="45.77947" lon="6.53001">
        <ele>1470</ele>
        <time>2025-06-05T15:06:44Z</time>
      </trkpt>
      <trkpt lat="45.78029" lon="6.53008">
        <ele>1469</ele>
        <time>2025-06-05T15:07:03Z</time>
      </trkpt>
      <trkpt lat="45.7807" lon="6.53018">
        <ele>1471</ele>
        <time>2025-06-05T15:07:13Z</time>
      </trkpt>
      <trkpt lat="45.78186" lon="6.53036">
        <ele>1488</ele>
        <time>2025-06-05T15:07:40Z</time>
      </trkpt>
      <trkpt lat="45.78317" lon="6.531">
        <ele>1507</ele>
        <time>2025-06-05T15:08:12Z</time>
      </trkpt>
      <trkpt lat="45.78393" lon="6.53154">
        <ele>1519</ele>
        <time>2025-06-05T15:08:32Z</time>
      </trkpt>
      <trkpt lat="45.78406" lon="6.53183">
        <ele>1516</ele>
        <time>2025-06-05T15:08:38Z</time>
      </trkpt>
      <trkpt lat="45.78427" lon="6.53201">
        <ele>1518</ele>
        <time>2025-06-05T15:08:43Z</time>
      </trkpt>
      <trkpt lat="45.78446" lon="6.53225">
        <ele>1517</ele>
        <time>2025-06-05T15:08:49Z</time>
      </trkpt>
      <trkpt lat="45.78487" lon="6.53241">
        <ele>1526</ele>
        <time>2025-06-05T15:08:59Z</time>
      </trkpt>
      <trkpt lat="45.78501" lon="6.53239">
        <ele>1531</ele>
        <time>2025-06-05T15:09:02Z</time>
      </trkpt>
      <trkpt lat="45.78533" lon="6.5322">
        <ele>1531</ele>
        <time>2025-06-05T15:09:11Z</time>
      </trkpt>
      <trkpt lat="45.78551" lon="6.53191">
        <ele>1533</ele>
        <time>2025-06-05T15:09:17Z</time>
      </trkpt>
      <trkpt lat="45.78572" lon="6.53174">
        <ele>1533</ele>
        <time>2025-06-05T15:09:23Z</time>
      </trkpt>
      <trkpt lat="45.7858" lon="6.53162">
        <ele>1533</ele>
        <time>2025-06-05T15:09:25Z</time>
      </trkpt>
      <trkpt lat="45.78582" lon="6.53149">
        <ele>1535</ele>
        <time>2025-06-05T15:09:27Z</time>
      </trkpt>
      <trkpt lat="45.78578" lon="6.53154">
        <ele>1534</ele>
        <time>2025-06-05T15:09:29Z</time>
      </trkpt>
      <trkpt lat="45.78582" lon="6.53149">
        <ele>1535</ele>
        <time>2025-06-05T15:09:30Z</time>
      </trkpt>
      <trkpt lat="45.78574" lon="6.53134">
        <ele>1538</ele>
        <time>2025-06-05T15:09:33Z</time>
      </trkpt>
      <trkpt lat="45.78584" lon="6.53071">
        <ele>1546</ele>
        <time>2025-06-05T15:09:43Z</time>
      </trkpt>
      <trkpt lat="45.78622" lon="6.53032">
        <ele>1552</ele>
        <time>2025-06-05T15:09:54Z</time>
      </trkpt>
      <trkpt lat="45.7862" lon="6.53034">
        <ele>1551</ele>
        <time>2025-06-05T15:09:55Z</time>
      </trkpt>
      <trkpt lat="45.78601" lon="6.53045">
        <ele>1550</ele>
        <time>2025-06-05T15:10:00Z</time>
      </trkpt>
      <trkpt lat="45.78589" lon="6.53056">
        <ele>1548</ele>
        <time>2025-06-05T15:10:03Z</time>
      </trkpt>
      <trkpt lat="45.78578" lon="6.53053">
        <ele>1550</ele>
        <time>2025-06-05T15:10:06Z</time>
      </trkpt>
      <trkpt lat="45.78563" lon="6.53059">
        <ele>1550</ele>
        <time>2025-06-05T15:10:09Z</time>
      </trkpt>
      <trkpt lat="45.78553" lon="6.53062">
        <ele>1551</ele>
        <time>2025-06-05T15:10:12Z</time>
      </trkpt>
      <trkpt lat="45.78543" lon="6.53051">
        <ele>1553</ele>
        <time>2025-06-05T15:10:15Z</time>
      </trkpt>
      <trkpt lat="45.78527" lon="6.53042">
        <ele>1557</ele>
        <time>2025-06-05T15:10:19Z</time>
      </trkpt>
      <trkpt lat="45.7851" lon="6.53047">
        <ele>1558</ele>
        <time>2025-06-05T15:10:23Z</time>
      </trkpt>
      <trkpt lat="45.78484" lon="6.53049">
        <ele>1557</ele>
        <time>2025-06-05T15:10:29Z</time>
      </trkpt>
      <trkpt lat="45.78456" lon="6.53037">
        <ele>1557</ele>
        <time>2025-06-05T15:10:36Z</time>
      </trkpt>
      <trkpt lat="45.78442" lon="6.53023">
        <ele>1558</ele>
        <time>2025-06-05T15:10:40Z</time>
      </trkpt>
      <trkpt lat="45.78421" lon="6.52997">
        <ele>1563</ele>
        <time>2025-06-05T15:10:46Z</time>
      </trkpt>
      <trkpt lat="45.78392" lon="6.5296">
        <ele>1564</ele>
        <time>2025-06-05T15:10:55Z</time>
      </trkpt>
      <trkpt lat="45.78355" lon="6.52909">
        <ele>1565</ele>
        <time>2025-06-05T15:11:07Z</time>
      </trkpt>
      <trkpt lat="45.78355" lon="6.52876">
        <ele>1570</ele>
        <time>2025-06-05T15:11:12Z</time>
      </trkpt>
      <trkpt lat="45.78352" lon="6.52861">
        <ele>1571</ele>
        <time>2025-06-05T15:11:15Z</time>
      </trkpt>
      <trkpt lat="45.78341" lon="6.52828">
        <ele>1574</ele>
        <time>2025-06-05T15:11:21Z</time>
      </trkpt>
      <trkpt lat="45.78328" lon="6.52803">
        <ele>1575</ele>
        <time>2025-06-05T15:11:26Z</time>
      </trkpt>
      <trkpt lat="45.78313" lon="6.52762">
        <ele>1577</ele>
        <time>2025-06-05T15:11:34Z</time>
      </trkpt>
      <trkpt lat="45.78297" lon="6.52734">
        <ele>1576</ele>
        <time>2025-06-05T15:11:40Z</time>
      </trkpt>
      <trkpt lat="45.78286" lon="6.52721">
        <ele>1574</ele>
        <time>2025-06-05T15:11:43Z</time>
      </trkpt>
      <trkpt lat="45.78273" lon="6.52709">
        <ele>1572</ele>
        <time>2025-06-05T15:11:46Z</time>
      </trkpt>
      <trkpt lat="45.78262" lon="6.52693">
        <ele>1572</ele>
        <time>2025-06-05T15:11:50Z</time>
      </trkpt>
      <trkpt lat="45.78238" lon="6.5265">
        <ele>1572</ele>
        <time>2025-06-05T15:11:59Z</time>
      </trkpt>
      <trkpt lat="45.78226" lon="6.52617">
        <ele>1572</ele>
        <time>2025-06-05T15:12:05Z</time>
      </trkpt>
      <trkpt lat="45.78217" lon="6.52599">
        <ele>1572</ele>
        <time>2025-06-05T15:12:09Z</time>
      </trkpt>
      <trkpt lat="45.7826" lon="6.52576">
        <ele>1575</ele>
        <time>2025-06-05T15:12:19Z</time>
      </trkpt>
      <trkpt lat="45.78267" lon="6.5257">
        <ele>1577</ele>
        <time>2025-06-05T15:12:21Z</time>
      </trkpt>
      <trkpt lat="45.7827" lon="6.52566">
        <ele>1577</ele>
        <time>2025-06-05T15:12:22Z</time>
      </trkpt>
      <trkpt lat="45.78278" lon="6.52553">
        <ele>1578</ele>
        <time>2025-06-05T15:12:25Z</time>
      </trkpt>
      <trkpt lat="45.78294" lon="6.52498">
        <ele>1577</ele>
        <time>2025-06-05T15:12:35Z</time>
      </trkpt>
      <trkpt lat="45.78298" lon="6.52489">
        <ele>1577</ele>
        <time>2025-06-05T15:12:37Z</time>
      </trkpt>
      <trkpt lat="45.78304" lon="6.52481">
        <ele>1576</ele>
        <time>2025-06-05T15:12:38Z</time>
      </trkpt>
      <trkpt lat="45.78311" lon="6.52474">
        <ele>1576</ele>
        <time>2025-06-05T15:12:40Z</time>
      </trkpt>
      <trkpt lat="45.78334" lon="6.52458">
        <ele>1575</ele>
        <time>2025-06-05T15:12:46Z</time>
      </trkpt>
      <trkpt lat="45.78343" lon="6.52448">
        <ele>1575</ele>
        <time>2025-06-05T15:12:49Z</time>
      </trkpt>
      <trkpt lat="45.78361" lon="6.52423">
        <ele>1575</ele>
        <time>2025-06-05T15:12:55Z</time>
      </trkpt>
      <trkpt lat="45.7839" lon="6.52375">
        <ele>1575</ele>
        <time>2025-06-05T15:13:05Z</time>
      </trkpt>
      <trkpt lat="45.78395" lon="6.5237">
        <ele>1575</ele>
        <time>2025-06-05T15:13:07Z</time>
      </trkpt>
      <trkpt lat="45.78399" lon="6.52367">
        <ele>1575</ele>
        <time>2025-06-05T15:13:08Z</time>
      </trkpt>
      <trkpt lat="45.78412" lon="6.52364">
        <ele>1577</ele>
        <time>2025-06-05T15:13:11Z</time>
      </trkpt>
      <trkpt lat="45.78399" lon="6.52367">
        <ele>1575</ele>
        <time>2025-06-05T15:13:14Z</time>
      </trkpt>
      <trkpt lat="45.78435" lon="6.52331">
        <ele>1575</ele>
        <time>2025-06-05T15:13:24Z</time>
      </trkpt>
      <trkpt lat="45.7845" lon="6.52297">
        <ele>1575</ele>
        <time>2025-06-05T15:13:31Z</time>
      </trkpt>
      <trkpt lat="45.78477" lon="6.52214">
        <ele>1572</ele>
        <time>2025-06-05T15:13:46Z</time>
      </trkpt>
      <trkpt lat="45.78473" lon="6.52211">
        <ele>1571</ele>
        <time>2025-06-05T15:13:47Z</time>
      </trkpt>
      <trkpt lat="45.78468" lon="6.52198">
        <ele>1569</ele>
        <time>2025-06-05T15:13:49Z</time>
      </trkpt>
      <trkpt lat="45.78444" lon="6.52185">
        <ele>1565</ele>
        <time>2025-06-05T15:13:55Z</time>
      </trkpt>
      <trkpt lat="45.78434" lon="6.52174">
        <ele>1563</ele>
        <time>2025-06-05T15:13:58Z</time>
      </trkpt>
      <trkpt lat="45.78429" lon="6.52161">
        <ele>1561</ele>
        <time>2025-06-05T15:14:00Z</time>
      </trkpt>
      <trkpt lat="45.78427" lon="6.5215">
        <ele>1560</ele>
        <time>2025-06-05T15:14:02Z</time>
      </trkpt>
      <trkpt lat="45.78423" lon="6.52138">
        <ele>1558</ele>
        <time>2025-06-05T15:14:04Z</time>
      </trkpt>
      <trkpt lat="45.78405" lon="6.52095">
        <ele>1554</ele>
        <time>2025-06-05T15:14:13Z</time>
      </trkpt>
      <trkpt lat="45.78401" lon="6.52089">
        <ele>1554</ele>
        <time>2025-06-05T15:14:14Z</time>
      </trkpt>
      <trkpt lat="45.78393" lon="6.52082">
        <ele>1553</ele>
        <time>2025-06-05T15:14:16Z</time>
      </trkpt>
      <trkpt lat="45.78387" lon="6.5207">
        <ele>1552</ele>
        <time>2025-06-05T15:14:19Z</time>
      </trkpt>
      <trkpt lat="45.78385" lon="6.52055">
        <ele>1551</ele>
        <time>2025-06-05T15:14:21Z</time>
      </trkpt>
      <trkpt lat="45.78386" lon="6.52045">
        <ele>1550</ele>
        <time>2025-06-05T15:14:23Z</time>
      </trkpt>
      <trkpt lat="45.78384" lon="6.52035">
        <ele>1549</ele>
        <time>2025-06-05T15:14:24Z</time>
      </trkpt>
      <trkpt lat="45.78369" lon="6.52007">
        <ele>1547</ele>
        <time>2025-06-05T15:14:30Z</time>
      </trkpt>
      <trkpt lat="45.78366" lon="6.52">
        <ele>1547</ele>
        <time>2025-06-05T15:14:32Z</time>
      </trkpt>
      <trkpt lat="45.78364" lon="6.51987">
        <ele>1545</ele>
        <time>2025-06-05T15:14:34Z</time>
      </trkpt>
      <trkpt lat="45.78358" lon="6.51962">
        <ele>1543</ele>
        <time>2025-06-05T15:14:38Z</time>
      </trkpt>
      <trkpt lat="45.78356" lon="6.51957">
        <ele>1542</ele>
        <time>2025-06-05T15:14:39Z</time>
      </trkpt>
      <trkpt lat="45.78308" lon="6.51913">
        <ele>1542</ele>
        <time>2025-06-05T15:14:52Z</time>
      </trkpt>
      <trkpt lat="45.78286" lon="6.51888">
        <ele>1541</ele>
        <time>2025-06-05T15:14:59Z</time>
      </trkpt>
      <trkpt lat="45.78257" lon="6.51831">
        <ele>1534</ele>
        <time>2025-06-05T15:15:10Z</time>
      </trkpt>
      <trkpt lat="45.7825" lon="6.51814">
        <ele>1532</ele>
        <time>2025-06-05T15:15:14Z</time>
      </trkpt>
      <trkpt lat="45.78239" lon="6.51762">
        <ele>1525</ele>
        <time>2025-06-05T15:15:22Z</time>
      </trkpt>
      <trkpt lat="45.78229" lon="6.51739">
        <ele>1522</ele>
        <time>2025-06-05T15:15:27Z</time>
      </trkpt>
      <trkpt lat="45.78204" lon="6.5173">
        <ele>1524</ele>
        <time>2025-06-05T15:15:33Z</time>
      </trkpt>
      <trkpt lat="45.78151" lon="6.51685">
        <ele>1525</ele>
        <time>2025-06-05T15:15:47Z</time>
      </trkpt>
      <trkpt lat="45.7812" lon="6.51639">
        <ele>1525</ele>
        <time>2025-06-05T15:15:58Z</time>
      </trkpt>
      <trkpt lat="45.7811" lon="6.51604">
        <ele>1520</ele>
        <time>2025-06-05T15:16:04Z</time>
      </trkpt>
      <trkpt lat="45.78086" lon="6.51572">
        <ele>1521</ele>
        <time>2025-06-05T15:16:11Z</time>
      </trkpt>
      <trkpt lat="45.78083" lon="6.51567">
        <ele>1521</ele>
        <time>2025-06-05T15:16:12Z</time>
      </trkpt>
      <trkpt lat="45.78076" lon="6.51548">
        <ele>1519</ele>
        <time>2025-06-05T15:16:16Z</time>
      </trkpt>
      <trkpt lat="45.78068" lon="6.51536">
        <ele>1518</ele>
        <time>2025-06-05T15:16:19Z</time>
      </trkpt>
      <trkpt lat="45.78027" lon="6.51514">
        <ele>1519</ele>
        <time>2025-06-05T15:16:29Z</time>
      </trkpt>
      <trkpt lat="45.78009" lon="6.51523">
        <ele>1523</ele>
        <time>2025-06-05T15:16:33Z</time>
      </trkpt>
      <trkpt lat="45.78002" lon="6.5154">
        <ele>1527</ele>
        <time>2025-06-05T15:16:37Z</time>
      </trkpt>
      <trkpt lat="45.78" lon="6.51551">
        <ele>1530</ele>
        <time>2025-06-05T15:16:38Z</time>
      </trkpt>
      <trkpt lat="45.77977" lon="6.51562">
        <ele>1531</ele>
        <time>2025-06-05T15:16:44Z</time>
      </trkpt>
      <trkpt lat="45.77971" lon="6.51581">
        <ele>1535</ele>
        <time>2025-06-05T15:16:47Z</time>
      </trkpt>
      <trkpt lat="45.77964" lon="6.51592">
        <ele>1536</ele>
        <time>2025-06-05T15:16:50Z</time>
      </trkpt>
      <trkpt lat="45.77954" lon="6.51607">
        <ele>1538</ele>
        <time>2025-06-05T15:16:53Z</time>
      </trkpt>
      <trkpt lat="45.77952" lon="6.51612">
        <ele>1539</ele>
        <time>2025-06-05T15:16:54Z</time>
      </trkpt>
      <trkpt lat="45.77953" lon="6.51621">
        <ele>1541</ele>
        <time>2025-06-05T15:16:56Z</time>
      </trkpt>
      <trkpt lat="45.77951" lon="6.51628">
        <ele>1542</ele>
        <time>2025-06-05T15:16:57Z</time>
      </trkpt>
      <trkpt lat="45.77944" lon="6.51643">
        <ele>1545</ele>
        <time>2025-06-05T15:17:00Z</time>
      </trkpt>
      <trkpt lat="45.77949" lon="6.51643">
        <ele>1545</ele>
        <time>2025-06-05T15:17:01Z</time>
      </trkpt>
      <trkpt lat="45.77952" lon="6.5164">
        <ele>1545</ele>
        <time>2025-06-05T15:17:02Z</time>
      </trkpt>
      <trkpt lat="45.77956" lon="6.51635">
        <ele>1544</ele>
        <time>2025-06-05T15:17:03Z</time>
      </trkpt>
      <trkpt lat="45.77952" lon="6.5164">
        <ele>1545</ele>
        <time>2025-06-05T15:17:04Z</time>
      </trkpt>
      <trkpt lat="45.77949" lon="6.51643">
        <ele>1545</ele>
        <time>2025-06-05T15:17:05Z</time>
      </trkpt>
      <trkpt lat="45.77944" lon="6.51643">
        <ele>1545</ele>
        <time>2025-06-05T15:17:06Z</time>
      </trkpt>
      <trkpt lat="45.7794" lon="6.51641">
        <ele>1544</ele>
        <time>2025-06-05T15:17:07Z</time>
      </trkpt>
      <trkpt lat="45.77933" lon="6.51631">
        <ele>1542</ele>
        <time>2025-06-05T15:17:10Z</time>
      </trkpt>
      <trkpt lat="45.77924" lon="6.51623">
        <ele>1539</ele>
        <time>2025-06-05T15:17:12Z</time>
      </trkpt>
      <trkpt lat="45.77902" lon="6.51618">
        <ele>1541</ele>
        <time>2025-06-05T15:17:17Z</time>
      </trkpt>
      <trkpt lat="45.77893" lon="6.51611">
        <ele>1541</ele>
        <time>2025-06-05T15:17:20Z</time>
      </trkpt>
      <trkpt lat="45.77885" lon="6.51603">
        <ele>1542</ele>
        <time>2025-06-05T15:17:22Z</time>
      </trkpt>
      <trkpt lat="45.77881" lon="6.51593">
        <ele>1541</ele>
        <time>2025-06-05T15:17:24Z</time>
      </trkpt>
      <trkpt lat="45.77874" lon="6.51568">
        <ele>1540</ele>
        <time>2025-06-05T15:17:28Z</time>
      </trkpt>
      <trkpt lat="45.77871" lon="6.51545">
        <ele>1539</ele>
        <time>2025-06-05T15:17:32Z</time>
      </trkpt>
      <trkpt lat="45.77871" lon="6.51514">
        <ele>1536</ele>
        <time>2025-06-05T15:17:37Z</time>
      </trkpt>
      <trkpt lat="45.77867" lon="6.51472">
        <ele>1532</ele>
        <time>2025-06-05T15:17:44Z</time>
      </trkpt>
      <trkpt lat="45.77863" lon="6.51449">
        <ele>1530</ele>
        <time>2025-06-05T15:17:48Z</time>
      </trkpt>
      <trkpt lat="45.77852" lon="6.51415">
        <ele>1529</ele>
        <time>2025-06-05T15:17:54Z</time>
      </trkpt>
      <trkpt lat="45.77835" lon="6.51381">
        <ele>1529</ele>
        <time>2025-06-05T15:18:01Z</time>
      </trkpt>
      <trkpt lat="45.77818" lon="6.51353">
        <ele>1531</ele>
        <time>2025-06-05T15:18:07Z</time>
      </trkpt>
      <trkpt lat="45.77792" lon="6.51303">
        <ele>1531</ele>
        <time>2025-06-05T15:18:17Z</time>
      </trkpt>
      <trkpt lat="45.77782" lon="6.51288">
        <ele>1532</ele>
        <time>2025-06-05T15:18:20Z</time>
      </trkpt>
      <trkpt lat="45.77753" lon="6.51258">
        <ele>1536</ele>
        <time>2025-06-05T15:18:29Z</time>
      </trkpt>
      <trkpt lat="45.7773" lon="6.5123">
        <ele>1539</ele>
        <time>2025-06-05T15:18:36Z</time>
      </trkpt>
      <trkpt lat="45.77722" lon="6.51223">
        <ele>1541</ele>
        <time>2025-06-05T15:18:38Z</time>
      </trkpt>
      <trkpt lat="45.77717" lon="6.51215">
        <ele>1541</ele>
        <time>2025-06-05T15:18:40Z</time>
      </trkpt>
      <trkpt lat="45.777" lon="6.51177">
        <ele>1540</ele>
        <time>2025-06-05T15:18:47Z</time>
      </trkpt>
      <trkpt lat="45.77685" lon="6.51146">
        <ele>1540</ele>
        <time>2025-06-05T15:18:53Z</time>
      </trkpt>
      <trkpt lat="45.77669" lon="6.5113">
        <ele>1543</ele>
        <time>2025-06-05T15:18:58Z</time>
      </trkpt>
      <trkpt lat="45.77652" lon="6.51115">
        <ele>1546</ele>
        <time>2025-06-05T15:19:02Z</time>
      </trkpt>
      <trkpt lat="45.7765" lon="6.5111">
        <ele>1546</ele>
        <time>2025-06-05T15:19:03Z</time>
      </trkpt>
      <trkpt lat="45.77648" lon="6.51102">
        <ele>1545</ele>
        <time>2025-06-05T15:19:05Z</time>
      </trkpt>
      <trkpt lat="45.77648" lon="6.51091">
        <ele>1543</ele>
        <time>2025-06-05T15:19:07Z</time>
      </trkpt>
      <trkpt lat="45.77645" lon="6.51078">
        <ele>1542</ele>
        <time>2025-06-05T15:19:09Z</time>
      </trkpt>
      <trkpt lat="45.77641" lon="6.51069">
        <ele>1540</ele>
        <time>2025-06-05T15:19:11Z</time>
      </trkpt>
      <trkpt lat="45.77635" lon="6.51061">
        <ele>1540</ele>
        <time>2025-06-05T15:19:12Z</time>
      </trkpt>
      <trkpt lat="45.77629" lon="6.51056">
        <ele>1540</ele>
        <time>2025-06-05T15:19:14Z</time>
      </trkpt>
      <trkpt lat="45.77623" lon="6.51053">
        <ele>1541</ele>
        <time>2025-06-05T15:19:16Z</time>
      </trkpt>
      <trkpt lat="45.77614" lon="6.51052">
        <ele>1543</ele>
        <time>2025-06-05T15:19:18Z</time>
      </trkpt>
      <trkpt lat="45.77606" lon="6.51046">
        <ele>1544</ele>
        <time>2025-06-05T15:19:20Z</time>
      </trkpt>
      <trkpt lat="45.77593" lon="6.51035">
        <ele>1544</ele>
        <time>2025-06-05T15:19:23Z</time>
      </trkpt>
      <trkpt lat="45.77579" lon="6.51016">
        <ele>1542</ele>
        <time>2025-06-05T15:19:28Z</time>
      </trkpt>
      <trkpt lat="45.77556" lon="6.50988">
        <ele>1542</ele>
        <time>2025-06-05T15:19:35Z</time>
      </trkpt>
      <trkpt lat="45.77549" lon="6.50976">
        <ele>1541</ele>
        <time>2025-06-05T15:19:37Z</time>
      </trkpt>
      <trkpt lat="45.77547" lon="6.50969">
        <ele>1540</ele>
        <time>2025-06-05T15:19:39Z</time>
      </trkpt>
      <trkpt lat="45.7754" lon="6.5097">
        <ele>1542</ele>
        <time>2025-06-05T15:19:40Z</time>
      </trkpt>
      <trkpt lat="45.77536" lon="6.50968">
        <ele>1543</ele>
        <time>2025-06-05T15:19:41Z</time>
      </trkpt>
      <trkpt lat="45.7753" lon="6.50964">
        <ele>1543</ele>
        <time>2025-06-05T15:19:43Z</time>
      </trkpt>
      <trkpt lat="45.77525" lon="6.50958">
        <ele>1543</ele>
        <time>2025-06-05T15:19:44Z</time>
      </trkpt>
      <trkpt lat="45.77503" lon="6.50931">
        <ele>1542</ele>
        <time>2025-06-05T15:19:51Z</time>
      </trkpt>
      <trkpt lat="45.77481" lon="6.50913">
        <ele>1545</ele>
        <time>2025-06-05T15:19:57Z</time>
      </trkpt>
      <trkpt lat="45.77444" lon="6.50895">
        <ele>1555</ele>
        <time>2025-06-05T15:20:06Z</time>
      </trkpt>
      <trkpt lat="45.77414" lon="6.50875">
        <ele>1561</ele>
        <time>2025-06-05T15:20:14Z</time>
      </trkpt>
      <trkpt lat="45.77403" lon="6.50861">
        <ele>1561</ele>
        <time>2025-06-05T15:20:17Z</time>
      </trkpt>
      <trkpt lat="45.77399" lon="6.50835">
        <ele>1557</ele>
        <time>2025-06-05T15:20:22Z</time>
      </trkpt>
      <trkpt lat="45.77391" lon="6.50819">
        <ele>1556</ele>
        <time>2025-06-05T15:20:25Z</time>
      </trkpt>
      <trkpt lat="45.77362" lon="6.50786">
        <ele>1559</ele>
        <time>2025-06-05T15:20:34Z</time>
      </trkpt>
      <trkpt lat="45.77335" lon="6.50768">
        <ele>1563</ele>
        <time>2025-06-05T15:20:40Z</time>
      </trkpt>
      <trkpt lat="45.77307" lon="6.5076">
        <ele>1568</ele>
        <time>2025-06-05T15:20:47Z</time>
      </trkpt>
      <trkpt lat="45.77272" lon="6.50734">
        <ele>1571</ele>
        <time>2025-06-05T15:20:56Z</time>
      </trkpt>
      <trkpt lat="45.77257" lon="6.50724">
        <ele>1573</ele>
        <time>2025-06-05T15:21:00Z</time>
      </trkpt>
      <trkpt lat="45.77252" lon="6.50723">
        <ele>1574</ele>
        <time>2025-06-05T15:21:01Z</time>
      </trkpt>
      <trkpt lat="45.77232" lon="6.50718">
        <ele>1577</ele>
        <time>2025-06-05T15:21:06Z</time>
      </trkpt>
      <trkpt lat="45.77206" lon="6.50702">
        <ele>1579</ele>
        <time>2025-06-05T15:21:13Z</time>
      </trkpt>
      <trkpt lat="45.77183" lon="6.50692">
        <ele>1581</ele>
        <time>2025-06-05T15:21:18Z</time>
      </trkpt>
      <trkpt lat="45.77157" lon="6.50672">
        <ele>1579</ele>
        <time>2025-06-05T15:21:25Z</time>
      </trkpt>
      <trkpt lat="45.7715" lon="6.50671">
        <ele>1578</ele>
        <time>2025-06-05T15:21:27Z</time>
      </trkpt>
      <trkpt lat="45.77143" lon="6.50675">
        <ele>1578</ele>
        <time>2025-06-05T15:21:29Z</time>
      </trkpt>
      <trkpt lat="45.77139" lon="6.50694">
        <ele>1580</ele>
        <time>2025-06-05T15:21:32Z</time>
      </trkpt>
      <trkpt lat="45.77133" lon="6.50726">
        <ele>1585</ele>
        <time>2025-06-05T15:21:37Z</time>
      </trkpt>
      <trkpt lat="45.77129" lon="6.50738">
        <ele>1586</ele>
        <time>2025-06-05T15:21:39Z</time>
      </trkpt>
      <trkpt lat="45.77123" lon="6.50746">
        <ele>1587</ele>
        <time>2025-06-05T15:21:41Z</time>
      </trkpt>
      <trkpt lat="45.77109" lon="6.50757">
        <ele>1587</ele>
        <time>2025-06-05T15:21:45Z</time>
      </trkpt>
      <trkpt lat="45.77102" lon="6.50768">
        <ele>1588</ele>
        <time>2025-06-05T15:21:48Z</time>
      </trkpt>
      <trkpt lat="45.77092" lon="6.50798">
        <ele>1590</ele>
        <time>2025-06-05T15:21:53Z</time>
      </trkpt>
      <trkpt lat="45.77092" lon="6.5082">
        <ele>1593</ele>
        <time>2025-06-05T15:21:57Z</time>
      </trkpt>
      <trkpt lat="45.77095" lon="6.50862">
        <ele>1599</ele>
        <time>2025-06-05T15:22:03Z</time>
      </trkpt>
      <trkpt lat="45.77095" lon="6.50878">
        <ele>1601</ele>
        <time>2025-06-05T15:22:06Z</time>
      </trkpt>
      <trkpt lat="45.77089" lon="6.50919">
        <ele>1604</ele>
        <time>2025-06-05T15:22:13Z</time>
      </trkpt>
      <trkpt lat="45.77088" lon="6.50949">
        <ele>1607</ele>
        <time>2025-06-05T15:22:18Z</time>
      </trkpt>
      <trkpt lat="45.77092" lon="6.50972">
        <ele>1611</ele>
        <time>2025-06-05T15:22:22Z</time>
      </trkpt>
      <trkpt lat="45.77097" lon="6.5099">
        <ele>1614</ele>
        <time>2025-06-05T15:22:25Z</time>
      </trkpt>
      <trkpt lat="45.77098" lon="6.50995">
        <ele>1614</ele>
        <time>2025-06-05T15:22:26Z</time>
      </trkpt>
      <trkpt lat="45.77097" lon="6.51002">
        <ele>1615</ele>
        <time>2025-06-05T15:22:27Z</time>
      </trkpt>
      <trkpt lat="45.77095" lon="6.51008">
        <ele>1615</ele>
        <time>2025-06-05T15:22:28Z</time>
      </trkpt>
      <trkpt lat="45.77091" lon="6.51015">
        <ele>1615</ele>
        <time>2025-06-05T15:22:29Z</time>
      </trkpt>
      <trkpt lat="45.7708" lon="6.51029">
        <ele>1615</ele>
        <time>2025-06-05T15:22:33Z</time>
      </trkpt>
      <trkpt lat="45.77066" lon="6.51045">
        <ele>1617</ele>
        <time>2025-06-05T15:22:37Z</time>
      </trkpt>
      <trkpt lat="45.77041" lon="6.5106">
        <ele>1618</ele>
        <time>2025-06-05T15:22:43Z</time>
      </trkpt>
      <trkpt lat="45.77002" lon="6.51106">
        <ele>1622</ele>
        <time>2025-06-05T15:22:55Z</time>
      </trkpt>
      <trkpt lat="45.76993" lon="6.51113">
        <ele>1624</ele>
        <time>2025-06-05T15:22:57Z</time>
      </trkpt>
      <trkpt lat="45.76987" lon="6.51115">
        <ele>1625</ele>
        <time>2025-06-05T15:22:59Z</time>
      </trkpt>
      <trkpt lat="45.76981" lon="6.51115">
        <ele>1626</ele>
        <time>2025-06-05T15:23:00Z</time>
      </trkpt>
      <trkpt lat="45.76975" lon="6.51113">
        <ele>1627</ele>
        <time>2025-06-05T15:23:02Z</time>
      </trkpt>
      <trkpt lat="45.76967" lon="6.51106">
        <ele>1628</ele>
        <time>2025-06-05T15:23:04Z</time>
      </trkpt>
      <trkpt lat="45.76951" lon="6.51085">
        <ele>1629</ele>
        <time>2025-06-05T15:23:09Z</time>
      </trkpt>
      <trkpt lat="45.76916" lon="6.51041">
        <ele>1632</ele>
        <time>2025-06-05T15:23:20Z</time>
      </trkpt>
      <trkpt lat="45.76895" lon="6.51018">
        <ele>1638</ele>
        <time>2025-06-05T15:23:26Z</time>
      </trkpt>
      <trkpt lat="45.76866" lon="6.50979">
        <ele>1644</ele>
        <time>2025-06-05T15:23:35Z</time>
      </trkpt>
      <trkpt lat="45.76842" lon="6.5096">
        <ele>1650</ele>
        <time>2025-06-05T15:23:42Z</time>
      </trkpt>
      <trkpt lat="45.76838" lon="6.50951">
        <ele>1651</ele>
        <time>2025-06-05T15:23:43Z</time>
      </trkpt>
      <trkpt lat="45.76836" lon="6.50941">
        <ele>1650</ele>
        <time>2025-06-05T15:23:45Z</time>
      </trkpt>
      <trkpt lat="45.76834" lon="6.50916">
        <ele>1649</ele>
        <time>2025-06-05T15:23:49Z</time>
      </trkpt>
      <trkpt lat="45.7683" lon="6.50902">
        <ele>1649</ele>
        <time>2025-06-05T15:23:52Z</time>
      </trkpt>
      <trkpt lat="45.76824" lon="6.50881">
        <ele>1649</ele>
        <time>2025-06-05T15:23:55Z</time>
      </trkpt>
      <trkpt lat="45.76815" lon="6.50845">
        <ele>1649</ele>
        <time>2025-06-05T15:24:02Z</time>
      </trkpt>
      <trkpt lat="45.76804" lon="6.50829">
        <ele>1652</ele>
        <time>2025-06-05T15:24:05Z</time>
      </trkpt>
      <trkpt lat="45.76781" lon="6.50804">
        <ele>1658</ele>
        <time>2025-06-05T15:24:12Z</time>
      </trkpt>
      <trkpt lat="45.76765" lon="6.50771">
        <ele>1659</ele>
        <time>2025-06-05T15:24:19Z</time>
      </trkpt>
      <trkpt lat="45.76735" lon="6.50738">
        <ele>1661</ele>
        <time>2025-06-05T15:24:27Z</time>
      </trkpt>
      <trkpt lat="45.7673" lon="6.50735">
        <ele>1662</ele>
        <time>2025-06-05T15:24:29Z</time>
      </trkpt>
      <trkpt lat="45.76724" lon="6.50734">
        <ele>1663</ele>
        <time>2025-06-05T15:24:30Z</time>
      </trkpt>
      <trkpt lat="45.76702" lon="6.50736">
        <ele>1668</ele>
        <time>2025-06-05T15:24:35Z</time>
      </trkpt>
      <trkpt lat="45.76664" lon="6.5073">
        <ele>1673</ele>
        <time>2025-06-05T15:24:44Z</time>
      </trkpt>
      <trkpt lat="45.76628" lon="6.50728">
        <ele>1677</ele>
        <time>2025-06-05T15:24:53Z</time>
      </trkpt>
      <trkpt lat="45.76606" lon="6.50724">
        <ele>1678</ele>
        <time>2025-06-05T15:24:58Z</time>
      </trkpt>
      <trkpt lat="45.76586" lon="6.50732">
        <ele>1682</ele>
        <time>2025-06-05T15:25:03Z</time>
      </trkpt>
      <trkpt lat="45.76576" lon="6.50734">
        <ele>1684</ele>
        <time>2025-06-05T15:25:05Z</time>
      </trkpt>
      <trkpt lat="45.76558" lon="6.5074">
        <ele>1688</ele>
        <time>2025-06-05T15:25:09Z</time>
      </trkpt>
      <trkpt lat="45.76527" lon="6.50745">
        <ele>1692</ele>
        <time>2025-06-05T15:25:17Z</time>
      </trkpt>
      <trkpt lat="45.76489" lon="6.50733">
        <ele>1691</ele>
        <time>2025-06-05T15:25:26Z</time>
      </trkpt>
      <trkpt lat="45.76475" lon="6.50735">
        <ele>1691</ele>
        <time>2025-06-05T15:25:29Z</time>
      </trkpt>
      <trkpt lat="45.76467" lon="6.5074">
        <ele>1692</ele>
        <time>2025-06-05T15:25:31Z</time>
      </trkpt>
      <trkpt lat="45.76458" lon="6.50747">
        <ele>1693</ele>
        <time>2025-06-05T15:25:33Z</time>
      </trkpt>
      <trkpt lat="45.7645" lon="6.50759">
        <ele>1695</ele>
        <time>2025-06-05T15:25:36Z</time>
      </trkpt>
      <trkpt lat="45.76446" lon="6.50773">
        <ele>1698</ele>
        <time>2025-06-05T15:25:39Z</time>
      </trkpt>
      <trkpt lat="45.76446" lon="6.50784">
        <ele>1700</ele>
        <time>2025-06-05T15:25:40Z</time>
      </trkpt>
      <trkpt lat="45.76447" lon="6.50797">
        <ele>1703</ele>
        <time>2025-06-05T15:25:42Z</time>
      </trkpt>
      <trkpt lat="45.76466" lon="6.50846">
        <ele>1710</ele>
        <time>2025-06-05T15:25:52Z</time>
      </trkpt>
      <trkpt lat="45.76487" lon="6.5091">
        <ele>1714</ele>
        <time>2025-06-05T15:26:03Z</time>
      </trkpt>
      <trkpt lat="45.76508" lon="6.50953">
        <ele>1716</ele>
        <time>2025-06-05T15:26:12Z</time>
      </trkpt>
      <trkpt lat="45.76511" lon="6.50965">
        <ele>1717</ele>
        <time>2025-06-05T15:26:14Z</time>
      </trkpt>
      <trkpt lat="45.76512" lon="6.50979">
        <ele>1718</ele>
        <time>2025-06-05T15:26:16Z</time>
      </trkpt>
      <trkpt lat="45.7651" lon="6.50988">
        <ele>1718</ele>
        <time>2025-06-05T15:26:18Z</time>
      </trkpt>
      <trkpt lat="45.76508" lon="6.50999">
        <ele>1719</ele>
        <time>2025-06-05T15:26:19Z</time>
      </trkpt>
      <trkpt lat="45.76491" lon="6.51027">
        <ele>1721</ele>
        <time>2025-06-05T15:26:25Z</time>
      </trkpt>
      <trkpt lat="45.76474" lon="6.51034">
        <ele>1721</ele>
        <time>2025-06-05T15:26:30Z</time>
      </trkpt>
      <trkpt lat="45.76449" lon="6.51039">
        <ele>1721</ele>
        <time>2025-06-05T15:26:35Z</time>
      </trkpt>
      <trkpt lat="45.76433" lon="6.51037">
        <ele>1721</ele>
        <time>2025-06-05T15:26:39Z</time>
      </trkpt>
      <trkpt lat="45.7642" lon="6.51038">
        <ele>1721</ele>
        <time>2025-06-05T15:26:42Z</time>
      </trkpt>
      <trkpt lat="45.76409" lon="6.5104">
        <ele>1721</ele>
        <time>2025-06-05T15:26:45Z</time>
      </trkpt>
      <trkpt lat="45.76376" lon="6.51052">
        <ele>1719</ele>
        <time>2025-06-05T15:26:53Z</time>
      </trkpt>
      <trkpt lat="45.7637" lon="6.51054">
        <ele>1719</ele>
        <time>2025-06-05T15:26:54Z</time>
      </trkpt>
      <trkpt lat="45.76353" lon="6.51059">
        <ele>1718</ele>
        <time>2025-06-05T15:26:58Z</time>
      </trkpt>
      <trkpt lat="45.76342" lon="6.51052">
        <ele>1717</ele>
        <time>2025-06-05T15:27:01Z</time>
      </trkpt>
      <trkpt lat="45.76318" lon="6.51031">
        <ele>1717</ele>
        <time>2025-06-05T15:27:08Z</time>
      </trkpt>
      <trkpt lat="45.76271" lon="6.51018">
        <ele>1718</ele>
        <time>2025-06-05T15:27:19Z</time>
      </trkpt>
      <trkpt lat="45.76241" lon="6.51005">
        <ele>1718</ele>
        <time>2025-06-05T15:27:26Z</time>
      </trkpt>
      <trkpt lat="45.76156" lon="6.50978">
        <ele>1726</ele>
        <time>2025-06-05T15:27:46Z</time>
      </trkpt>
      <trkpt lat="45.76151" lon="6.50971">
        <ele>1726</ele>
        <time>2025-06-05T15:27:48Z</time>
      </trkpt>
      <trkpt lat="45.76137" lon="6.50946">
        <ele>1725</ele>
        <time>2025-06-05T15:27:53Z</time>
      </trkpt>
      <trkpt lat="45.76128" lon="6.50932">
        <ele>1725</ele>
        <time>2025-06-05T15:27:56Z</time>
      </trkpt>
      <trkpt lat="45.76111" lon="6.50916">
        <ele>1725</ele>
        <time>2025-06-05T15:28:01Z</time>
      </trkpt>
      <trkpt lat="45.76094" lon="6.50899">
        <ele>1725</ele>
        <time>2025-06-05T15:28:06Z</time>
      </trkpt>
      <trkpt lat="45.76087" lon="6.50887">
        <ele>1725</ele>
        <time>2025-06-05T15:28:09Z</time>
      </trkpt>
      <trkpt lat="45.76079" lon="6.50871">
        <ele>1726</ele>
        <time>2025-06-05T15:28:12Z</time>
      </trkpt>
      <trkpt lat="45.76075" lon="6.5086">
        <ele>1726</ele>
        <time>2025-06-05T15:28:14Z</time>
      </trkpt>
      <trkpt lat="45.76071" lon="6.50846">
        <ele>1726</ele>
        <time>2025-06-05T15:28:16Z</time>
      </trkpt>
      <trkpt lat="45.76068" lon="6.50807">
        <ele>1724</ele>
        <time>2025-06-05T15:28:23Z</time>
      </trkpt>
      <trkpt lat="45.76065" lon="6.50793">
        <ele>1723</ele>
        <time>2025-06-05T15:28:25Z</time>
      </trkpt>
      <trkpt lat="45.76061" lon="6.50781">
        <ele>1722</ele>
        <time>2025-06-05T15:28:27Z</time>
      </trkpt>
      <trkpt lat="45.76043" lon="6.5076">
        <ele>1722</ele>
        <time>2025-06-05T15:28:33Z</time>
      </trkpt>
      <trkpt lat="45.76021" lon="6.50743">
        <ele>1722</ele>
        <time>2025-06-05T15:28:38Z</time>
      </trkpt>
      <trkpt lat="45.76002" lon="6.50748">
        <ele>1724</ele>
        <time>2025-06-05T15:28:43Z</time>
      </trkpt>
      <trkpt lat="45.75986" lon="6.50759">
        <ele>1725</ele>
        <time>2025-06-05T15:28:47Z</time>
      </trkpt>
      <trkpt lat="45.75979" lon="6.50762">
        <ele>1725</ele>
        <time>2025-06-05T15:28:49Z</time>
      </trkpt>
      <trkpt lat="45.75968" lon="6.5076">
        <ele>1724</ele>
        <time>2025-06-05T15:28:51Z</time>
      </trkpt>
      <trkpt lat="45.75954" lon="6.50752">
        <ele>1722</ele>
        <time>2025-06-05T15:28:55Z</time>
      </trkpt>
      <trkpt lat="45.75945" lon="6.50746">
        <ele>1720</ele>
        <time>2025-06-05T15:28:57Z</time>
      </trkpt>
      <trkpt lat="45.75939" lon="6.50744">
        <ele>1720</ele>
        <time>2025-06-05T15:28:59Z</time>
      </trkpt>
      <trkpt lat="45.75934" lon="6.50747">
        <ele>1720</ele>
        <time>2025-06-05T15:29:00Z</time>
      </trkpt>
      <trkpt lat="45.75917" lon="6.50766">
        <ele>1721</ele>
        <time>2025-06-05T15:29:05Z</time>
      </trkpt>
      <trkpt lat="45.75908" lon="6.50774">
        <ele>1721</ele>
        <time>2025-06-05T15:29:07Z</time>
      </trkpt>
      <trkpt lat="45.75902" lon="6.50781">
        <ele>1722</ele>
        <time>2025-06-05T15:29:09Z</time>
      </trkpt>
      <trkpt lat="45.75883" lon="6.50799">
        <ele>1722</ele>
        <time>2025-06-05T15:29:15Z</time>
      </trkpt>
      <trkpt lat="45.75864" lon="6.50812">
        <ele>1722</ele>
        <time>2025-06-05T15:29:20Z</time>
      </trkpt>
      <trkpt lat="45.75858" lon="6.50815">
        <ele>1721</ele>
        <time>2025-06-05T15:29:21Z</time>
      </trkpt>
      <trkpt lat="45.75848" lon="6.5082">
        <ele>1721</ele>
        <time>2025-06-05T15:29:23Z</time>
      </trkpt>
      <trkpt lat="45.75841" lon="6.50825">
        <ele>1720</ele>
        <time>2025-06-05T15:29:25Z</time>
      </trkpt>
      <trkpt lat="45.75831" lon="6.50829">
        <ele>1720</ele>
        <time>2025-06-05T15:29:28Z</time>
      </trkpt>
      <trkpt lat="45.75775" lon="6.50832">
        <ele>1726</ele>
        <time>2025-06-05T15:29:41Z</time>
      </trkpt>
      <trkpt lat="45.75765" lon="6.50831">
        <ele>1727</ele>
        <time>2025-06-05T15:29:43Z</time>
      </trkpt>
      <trkpt lat="45.75755" lon="6.50823">
        <ele>1728</ele>
        <time>2025-06-05T15:29:46Z</time>
      </trkpt>
      <trkpt lat="45.75745" lon="6.50817">
        <ele>1729</ele>
        <time>2025-06-05T15:29:48Z</time>
      </trkpt>
      <trkpt lat="45.75735" lon="6.50813">
        <ele>1730</ele>
        <time>2025-06-05T15:29:51Z</time>
      </trkpt>
      <trkpt lat="45.75729" lon="6.50813">
        <ele>1731</ele>
        <time>2025-06-05T15:29:52Z</time>
      </trkpt>
      <trkpt lat="45.75717" lon="6.50815">
        <ele>1733</ele>
        <time>2025-06-05T15:29:55Z</time>
      </trkpt>
      <trkpt lat="45.75714" lon="6.50819">
        <ele>1733</ele>
        <time>2025-06-05T15:29:56Z</time>
      </trkpt>
      <trkpt lat="45.75711" lon="6.50825">
        <ele>1734</ele>
        <time>2025-06-05T15:29:57Z</time>
      </trkpt>
      <trkpt lat="45.7571" lon="6.50832">
        <ele>1734</ele>
        <time>2025-06-05T15:29:58Z</time>
      </trkpt>
      <trkpt lat="45.75711" lon="6.50845">
        <ele>1734</ele>
        <time>2025-06-05T15:30:00Z</time>
      </trkpt>
      <trkpt lat="45.75715" lon="6.50853">
        <ele>1734</ele>
        <time>2025-06-05T15:30:02Z</time>
      </trkpt>
      <trkpt lat="45.7571" lon="6.50859">
        <ele>1735</ele>
        <time>2025-06-05T15:30:04Z</time>
      </trkpt>
      <trkpt lat="45.75704" lon="6.50858">
        <ele>1736</ele>
        <time>2025-06-05T15:30:05Z</time>
      </trkpt>
      <trkpt lat="45.7569" lon="6.50846">
        <ele>1737</ele>
        <time>2025-06-05T15:30:09Z</time>
      </trkpt>
      <trkpt lat="45.75665" lon="6.50836">
        <ele>1740</ele>
        <time>2025-06-05T15:30:15Z</time>
      </trkpt>
      <trkpt lat="45.75651" lon="6.50829">
        <ele>1743</ele>
        <time>2025-06-05T15:30:18Z</time>
      </trkpt>
      <trkpt lat="45.75633" lon="6.50817">
        <ele>1745</ele>
        <time>2025-06-05T15:30:23Z</time>
      </trkpt>
      <trkpt lat="45.75608" lon="6.50787">
        <ele>1747</ele>
        <time>2025-06-05T15:30:31Z</time>
      </trkpt>
      <trkpt lat="45.75588" lon="6.50775">
        <ele>1749</ele>
        <time>2025-06-05T15:30:36Z</time>
      </trkpt>
      <trkpt lat="45.75552" lon="6.50759">
        <ele>1752</ele>
        <time>2025-06-05T15:30:44Z</time>
      </trkpt>
      <trkpt lat="45.75511" lon="6.50734">
        <ele>1754</ele>
        <time>2025-06-05T15:30:55Z</time>
      </trkpt>
      <trkpt lat="45.75477" lon="6.50703">
        <ele>1756</ele>
        <time>2025-06-05T15:31:04Z</time>
      </trkpt>
      <trkpt lat="45.75468" lon="6.50702">
        <ele>1757</ele>
        <time>2025-06-05T15:31:06Z</time>
      </trkpt>
      <trkpt lat="45.75447" lon="6.50703">
        <ele>1760</ele>
        <time>2025-06-05T15:31:11Z</time>
      </trkpt>
      <trkpt lat="45.7543" lon="6.50701">
        <ele>1762</ele>
        <time>2025-06-05T15:31:15Z</time>
      </trkpt>
      <trkpt lat="45.75422" lon="6.50696">
        <ele>1763</ele>
        <time>2025-06-05T15:31:17Z</time>
      </trkpt>
      <trkpt lat="45.7541" lon="6.50683">
        <ele>1763</ele>
        <time>2025-06-05T15:31:21Z</time>
      </trkpt>
      <trkpt lat="45.754" lon="6.5067">
        <ele>1764</ele>
        <time>2025-06-05T15:31:24Z</time>
      </trkpt>
      <trkpt lat="45.75393" lon="6.50673">
        <ele>1766</ele>
        <time>2025-06-05T15:31:26Z</time>
      </trkpt>
      <trkpt lat="45.75392" lon="6.50679">
        <ele>1767</ele>
        <time>2025-06-05T15:31:27Z</time>
      </trkpt>
      <trkpt lat="45.75399" lon="6.50716">
        <ele>1771</ele>
        <time>2025-06-05T15:31:33Z</time>
      </trkpt>
      <trkpt lat="45.75404" lon="6.50727">
        <ele>1771</ele>
        <time>2025-06-05T15:31:35Z</time>
      </trkpt>
      <trkpt lat="45.75406" lon="6.50739">
        <ele>1772</ele>
        <time>2025-06-05T15:31:37Z</time>
      </trkpt>
      <trkpt lat="45.75408" lon="6.50773">
        <ele>1774</ele>
        <time>2025-06-05T15:31:43Z</time>
      </trkpt>
      <trkpt lat="45.75409" lon="6.50785">
        <ele>1775</ele>
        <time>2025-06-05T15:31:45Z</time>
      </trkpt>
      <trkpt lat="45.75416" lon="6.50801">
        <ele>1773</ele>
        <time>2025-06-05T15:31:48Z</time>
      </trkpt>
      <trkpt lat="45.75421" lon="6.50807">
        <ele>1773</ele>
        <time>2025-06-05T15:31:49Z</time>
      </trkpt>
      <trkpt lat="45.75436" lon="6.50833">
        <ele>1773</ele>
        <time>2025-06-05T15:31:55Z</time>
      </trkpt>
      <trkpt lat="45.75455" lon="6.50874">
        <ele>1773</ele>
        <time>2025-06-05T15:32:03Z</time>
      </trkpt>
      <trkpt lat="45.75467" lon="6.50892">
        <ele>1773</ele>
        <time>2025-06-05T15:32:07Z</time>
      </trkpt>
      <trkpt lat="45.75467" lon="6.50896">
        <ele>1773</ele>
        <time>2025-06-05T15:32:07Z</time>
      </trkpt>
      <trkpt lat="45.75468" lon="6.50903">
        <ele>1773</ele>
        <time>2025-06-05T15:32:09Z</time>
      </trkpt>
      <trkpt lat="45.75451" lon="6.50964">
        <ele>1778</ele>
        <time>2025-06-05T15:32:19Z</time>
      </trkpt>
      <trkpt lat="45.75451" lon="6.50973">
        <ele>1779</ele>
        <time>2025-06-05T15:32:21Z</time>
      </trkpt>
      <trkpt lat="45.7545" lon="6.50983">
        <ele>1779</ele>
        <time>2025-06-05T15:32:22Z</time>
      </trkpt>
      <trkpt lat="45.75452" lon="6.51006">
        <ele>1780</ele>
        <time>2025-06-05T15:32:26Z</time>
      </trkpt>
      <trkpt lat="45.75452" lon="6.51026">
        <ele>1780</ele>
        <time>2025-06-05T15:32:29Z</time>
      </trkpt>
      <trkpt lat="45.75448" lon="6.51033">
        <ele>1781</ele>
        <time>2025-06-05T15:32:31Z</time>
      </trkpt>
      <trkpt lat="45.75442" lon="6.51039">
        <ele>1782</ele>
        <time>2025-06-05T15:32:33Z</time>
      </trkpt>
      <trkpt lat="45.7541" lon="6.51057">
        <ele>1789</ele>
        <time>2025-06-05T15:32:41Z</time>
      </trkpt>
      <trkpt lat="45.75396" lon="6.51066">
        <ele>1792</ele>
        <time>2025-06-05T15:32:44Z</time>
      </trkpt>
      <trkpt lat="45.75391" lon="6.51077">
        <ele>1793</ele>
        <time>2025-06-05T15:32:46Z</time>
      </trkpt>
      <trkpt lat="45.75386" lon="6.51089">
        <ele>1794</ele>
        <time>2025-06-05T15:32:49Z</time>
      </trkpt>
      <trkpt lat="45.75373" lon="6.51108">
        <ele>1797</ele>
        <time>2025-06-05T15:32:53Z</time>
      </trkpt>
      <trkpt lat="45.75362" lon="6.51116">
        <ele>1799</ele>
        <time>2025-06-05T15:32:56Z</time>
      </trkpt>
      <trkpt lat="45.75343" lon="6.51123">
        <ele>1803</ele>
        <time>2025-06-05T15:33:00Z</time>
      </trkpt>
      <trkpt lat="45.75336" lon="6.51137">
        <ele>1804</ele>
        <time>2025-06-05T15:33:03Z</time>
      </trkpt>
      <trkpt lat="45.75327" lon="6.512">
        <ele>1807</ele>
        <time>2025-06-05T15:33:14Z</time>
      </trkpt>
      <trkpt lat="45.75329" lon="6.51216">
        <ele>1807</ele>
        <time>2025-06-05T15:33:16Z</time>
      </trkpt>
      <trkpt lat="45.75336" lon="6.51233">
        <ele>1806</ele>
        <time>2025-06-05T15:33:20Z</time>
      </trkpt>
      <trkpt lat="45.75338" lon="6.51245">
        <ele>1806</ele>
        <time>2025-06-05T15:33:22Z</time>
      </trkpt>
      <trkpt lat="45.75322" lon="6.51301">
        <ele>1809</ele>
        <time>2025-06-05T15:33:31Z</time>
      </trkpt>
      <trkpt lat="45.75319" lon="6.51327">
        <ele>1810</ele>
        <time>2025-06-05T15:33:36Z</time>
      </trkpt>
      <trkpt lat="45.75298" lon="6.51404">
        <ele>1811</ele>
        <time>2025-06-05T15:33:49Z</time>
      </trkpt>
      <trkpt lat="45.75274" lon="6.51429">
        <ele>1814</ele>
        <time>2025-06-05T15:33:56Z</time>
      </trkpt>
      <trkpt lat="45.75266" lon="6.51438">
        <ele>1815</ele>
        <time>2025-06-05T15:33:59Z</time>
      </trkpt>
      <trkpt lat="45.75259" lon="6.51453">
        <ele>1815</ele>
        <time>2025-06-05T15:34:01Z</time>
      </trkpt>
      <trkpt lat="45.75253" lon="6.51464">
        <ele>1816</ele>
        <time>2025-06-05T15:34:04Z</time>
      </trkpt>
      <trkpt lat="45.75236" lon="6.51483">
        <ele>1818</ele>
        <time>2025-06-05T15:34:09Z</time>
      </trkpt>
      <trkpt lat="45.75232" lon="6.51498">
        <ele>1818</ele>
        <time>2025-06-05T15:34:11Z</time>
      </trkpt>
      <trkpt lat="45.75233" lon="6.5151">
        <ele>1817</ele>
        <time>2025-06-05T15:34:13Z</time>
      </trkpt>
      <trkpt lat="45.75237" lon="6.51529">
        <ele>1816</ele>
        <time>2025-06-05T15:34:17Z</time>
      </trkpt>
      <trkpt lat="45.75234" lon="6.5155">
        <ele>1816</ele>
        <time>2025-06-05T15:34:20Z</time>
      </trkpt>
      <trkpt lat="45.75225" lon="6.51565">
        <ele>1817</ele>
        <time>2025-06-05T15:34:23Z</time>
      </trkpt>
      <trkpt lat="45.75203" lon="6.51599">
        <ele>1817</ele>
        <time>2025-06-05T15:34:31Z</time>
      </trkpt>
      <trkpt lat="45.75193" lon="6.51609">
        <ele>1816</ele>
        <time>2025-06-05T15:34:34Z</time>
      </trkpt>
      <trkpt lat="45.75189" lon="6.51612">
        <ele>1816</ele>
        <time>2025-06-05T15:34:35Z</time>
      </trkpt>
      <trkpt lat="45.75187" lon="6.51613">
        <ele>1816</ele>
        <time>2025-06-05T15:34:35Z</time>
      </trkpt>
      <trkpt lat="45.75182" lon="6.51614">
        <ele>1816</ele>
        <time>2025-06-05T15:34:36Z</time>
      </trkpt>
      <trkpt lat="45.75177" lon="6.51613">
        <ele>1817</ele>
        <time>2025-06-05T15:34:38Z</time>
      </trkpt>
      <trkpt lat="45.75167" lon="6.51605">
        <ele>1818</ele>
        <time>2025-06-05T15:34:40Z</time>
      </trkpt>
      <trkpt lat="45.75154" lon="6.51593">
        <ele>1818</ele>
        <time>2025-06-05T15:34:44Z</time>
      </trkpt>
      <trkpt lat="45.75134" lon="6.51576">
        <ele>1819</ele>
        <time>2025-06-05T15:34:49Z</time>
      </trkpt>
      <trkpt lat="45.75125" lon="6.51571">
        <ele>1820</ele>
        <time>2025-06-05T15:34:52Z</time>
      </trkpt>
      <trkpt lat="45.75115" lon="6.51568">
        <ele>1820</ele>
        <time>2025-06-05T15:34:54Z</time>
      </trkpt>
      <trkpt lat="45.75108" lon="6.51568">
        <ele>1819</ele>
        <time>2025-06-05T15:34:56Z</time>
      </trkpt>
      <trkpt lat="45.75101" lon="6.51569">
        <ele>1819</ele>
        <time>2025-06-05T15:34:57Z</time>
      </trkpt>
      <trkpt lat="45.75096" lon="6.51571">
        <ele>1818</ele>
        <time>2025-06-05T15:34:58Z</time>
      </trkpt>
      <trkpt lat="45.75089" lon="6.5158">
        <ele>1817</ele>
        <time>2025-06-05T15:35:01Z</time>
      </trkpt>
      <trkpt lat="45.75078" lon="6.51605">
        <ele>1815</ele>
        <time>2025-06-05T15:35:06Z</time>
      </trkpt>
      <trkpt lat="45.75074" lon="6.51636">
        <ele>1813</ele>
        <time>2025-06-05T15:35:11Z</time>
      </trkpt>
      <trkpt lat="45.75064" lon="6.51667">
        <ele>1813</ele>
        <time>2025-06-05T15:35:16Z</time>
      </trkpt>
      <trkpt lat="45.75058" lon="6.51693">
        <ele>1812</ele>
        <time>2025-06-05T15:35:21Z</time>
      </trkpt>
      <trkpt lat="45.7505" lon="6.51717">
        <ele>1812</ele>
        <time>2025-06-05T15:35:25Z</time>
      </trkpt>
      <trkpt lat="45.7502" lon="6.51773">
        <ele>1812</ele>
        <time>2025-06-05T15:35:37Z</time>
      </trkpt>
      <trkpt lat="45.75013" lon="6.51783">
        <ele>1812</ele>
        <time>2025-06-05T15:35:39Z</time>
      </trkpt>
      <trkpt lat="45.75005" lon="6.51803">
        <ele>1812</ele>
        <time>2025-06-05T15:35:43Z</time>
      </trkpt>
      <trkpt lat="45.74999" lon="6.51814">
        <ele>1811</ele>
        <time>2025-06-05T15:35:45Z</time>
      </trkpt>
      <trkpt lat="45.74994" lon="6.51823">
        <ele>1811</ele>
        <time>2025-06-05T15:35:47Z</time>
      </trkpt>
      <trkpt lat="45.74987" lon="6.5183">
        <ele>1810</ele>
        <time>2025-06-05T15:35:49Z</time>
      </trkpt>
      <trkpt lat="45.74971" lon="6.5184">
        <ele>1810</ele>
        <time>2025-06-05T15:35:53Z</time>
      </trkpt>
      <trkpt lat="45.74957" lon="6.51846">
        <ele>1811</ele>
        <time>2025-06-05T15:35:56Z</time>
      </trkpt>
      <trkpt lat="45.74942" lon="6.5185">
        <ele>1811</ele>
        <time>2025-06-05T15:36:00Z</time>
      </trkpt>
      <trkpt lat="45.74939" lon="6.51853">
        <ele>1811</ele>
        <time>2025-06-05T15:36:01Z</time>
      </trkpt>
      <trkpt lat="45.74937" lon="6.51858">
        <ele>1810</ele>
        <time>2025-06-05T15:36:02Z</time>
      </trkpt>
      <trkpt lat="45.74935" lon="6.51866">
        <ele>1810</ele>
        <time>2025-06-05T15:36:03Z</time>
      </trkpt>
      <trkpt lat="45.74935" lon="6.51878">
        <ele>1808</ele>
        <time>2025-06-05T15:36:05Z</time>
      </trkpt>
      <trkpt lat="45.74933" lon="6.51887">
        <ele>1807</ele>
        <time>2025-06-05T15:36:06Z</time>
      </trkpt>
      <trkpt lat="45.74926" lon="6.51892">
        <ele>1807</ele>
        <time>2025-06-05T15:36:08Z</time>
      </trkpt>
      <trkpt lat="45.74891" lon="6.51898">
        <ele>1806</ele>
        <time>2025-06-05T15:36:17Z</time>
      </trkpt>
      <trkpt lat="45.74879" lon="6.51903">
        <ele>1805</ele>
        <time>2025-06-05T15:36:19Z</time>
      </trkpt>
      <trkpt lat="45.74874" lon="6.51906">
        <ele>1804</ele>
        <time>2025-06-05T15:36:21Z</time>
      </trkpt>
      <trkpt lat="45.7486" lon="6.51921">
        <ele>1802</ele>
        <time>2025-06-05T15:36:25Z</time>
      </trkpt>
      <trkpt lat="45.74863" lon="6.51923">
        <ele>1802</ele>
        <time>2025-06-05T15:36:26Z</time>
      </trkpt>
      <trkpt lat="45.74865" lon="6.51928">
        <ele>1802</ele>
        <time>2025-06-05T15:36:26Z</time>
      </trkpt>
      <trkpt lat="45.74863" lon="6.51923">
        <ele>1802</ele>
        <time>2025-06-05T15:36:27Z</time>
      </trkpt>
      <trkpt lat="45.7486" lon="6.51921">
        <ele>1802</ele>
        <time>2025-06-05T15:36:28Z</time>
      </trkpt>
      <trkpt lat="45.74863" lon="6.5191">
        <ele>1804</ele>
        <time>2025-06-05T15:36:30Z</time>
      </trkpt>
      <trkpt lat="45.74867" lon="6.51876">
        <ele>1808</ele>
        <time>2025-06-05T15:36:36Z</time>
      </trkpt>
      <trkpt lat="45.7487" lon="6.51867">
        <ele>1809</ele>
        <time>2025-06-05T15:36:37Z</time>
      </trkpt>
      <trkpt lat="45.74875" lon="6.51858">
        <ele>1811</ele>
        <time>2025-06-05T15:36:39Z</time>
      </trkpt>
      <trkpt lat="45.74895" lon="6.51835">
        <ele>1814</ele>
        <time>2025-06-05T15:36:45Z</time>
      </trkpt>
      <trkpt lat="45.74913" lon="6.51811">
        <ele>1818</ele>
        <time>2025-06-05T15:36:51Z</time>
      </trkpt>
      <trkpt lat="45.74927" lon="6.51791">
        <ele>1820</ele>
        <time>2025-06-05T15:36:56Z</time>
      </trkpt>
      <trkpt lat="45.74937" lon="6.51776">
        <ele>1821</ele>
        <time>2025-06-05T15:36:59Z</time>
      </trkpt>
      <trkpt lat="45.7494" lon="6.51766">
        <ele>1822</ele>
        <time>2025-06-05T15:37:01Z</time>
      </trkpt>
      <trkpt lat="45.74942" lon="6.51757">
        <ele>1823</ele>
        <time>2025-06-05T15:37:02Z</time>
      </trkpt>
      <trkpt lat="45.74943" lon="6.51748">
        <ele>1824</ele>
        <time>2025-06-05T15:37:04Z</time>
      </trkpt>
      <trkpt lat="45.74942" lon="6.51737">
        <ele>1825</ele>
        <time>2025-06-05T15:37:06Z</time>
      </trkpt>
      <trkpt lat="45.74939" lon="6.51725">
        <ele>1826</ele>
        <time>2025-06-05T15:37:08Z</time>
      </trkpt>
      <trkpt lat="45.74936" lon="6.51716">
        <ele>1827</ele>
        <time>2025-06-05T15:37:09Z</time>
      </trkpt>
      <trkpt lat="45.74931" lon="6.51707">
        <ele>1828</ele>
        <time>2025-06-05T15:37:11Z</time>
      </trkpt>
      <trkpt lat="45.74915" lon="6.51681">
        <ele>1831</ele>
        <time>2025-06-05T15:37:17Z</time>
      </trkpt>
      <trkpt lat="45.74909" lon="6.5167">
        <ele>1832</ele>
        <time>2025-06-05T15:37:19Z</time>
      </trkpt>
      <trkpt lat="45.74905" lon="6.51657">
        <ele>1834</ele>
        <time>2025-06-05T15:37:21Z</time>
      </trkpt>
      <trkpt lat="45.74902" lon="6.51641">
        <ele>1835</ele>
        <time>2025-06-05T15:37:24Z</time>
      </trkpt>
      <trkpt lat="45.74899" lon="6.51609">
        <ele>1839</ele>
        <time>2025-06-05T15:37:29Z</time>
      </trkpt>
      <trkpt lat="45.749" lon="6.51589">
        <ele>1841</ele>
        <time>2025-06-05T15:37:33Z</time>
      </trkpt>
      <trkpt lat="45.74902" lon="6.5157">
        <ele>1843</ele>
        <time>2025-06-05T15:37:36Z</time>
      </trkpt>
      <trkpt lat="45.74902" lon="6.51558">
        <ele>1844</ele>
        <time>2025-06-05T15:37:38Z</time>
      </trkpt>
      <trkpt lat="45.749" lon="6.51545">
        <ele>1846</ele>
        <time>2025-06-05T15:37:40Z</time>
      </trkpt>
      <trkpt lat="45.74899" lon="6.5154">
        <ele>1846</ele>
        <time>2025-06-05T15:37:41Z</time>
      </trkpt>
      <trkpt lat="45.749" lon="6.51545">
        <ele>1846</ele>
        <time>2025-06-05T15:37:42Z</time>
      </trkpt>
      <trkpt lat="45.74904" lon="6.5154">
        <ele>1846</ele>
        <time>2025-06-05T15:37:43Z</time>
      </trkpt>
      <trkpt lat="45.74919" lon="6.51486">
        <ele>1849</ele>
        <time>2025-06-05T15:37:52Z</time>
      </trkpt>
      <trkpt lat="45.74966" lon="6.51344">
        <ele>1854</ele>
        <time>2025-06-05T15:38:18Z</time>
      </trkpt>
      <trkpt lat="45.74981" lon="6.51294">
        <ele>1858</ele>
        <time>2025-06-05T15:38:27Z</time>
      </trkpt>
      <trkpt lat="45.74992" lon="6.51282">
        <ele>1858</ele>
        <time>2025-06-05T15:38:30Z</time>
      </trkpt>
      <trkpt lat="45.75009" lon="6.51275">
        <ele>1858</ele>
        <time>2025-06-05T15:38:34Z</time>
      </trkpt>
      <trkpt lat="45.75029" lon="6.51271">
        <ele>1857</ele>
        <time>2025-06-05T15:38:39Z</time>
      </trkpt>
      <trkpt lat="45.7504" lon="6.51266">
        <ele>1857</ele>
        <time>2025-06-05T15:38:42Z</time>
      </trkpt>
      <trkpt lat="45.75045" lon="6.5126">
        <ele>1858</ele>
        <time>2025-06-05T15:38:43Z</time>
      </trkpt>
      <trkpt lat="45.75049" lon="6.51252">
        <ele>1858</ele>
        <time>2025-06-05T15:38:45Z</time>
      </trkpt>
      <trkpt lat="45.75055" lon="6.51231">
        <ele>1860</ele>
        <time>2025-06-05T15:38:48Z</time>
      </trkpt>
      <trkpt lat="45.75056" lon="6.51217">
        <ele>1861</ele>
        <time>2025-06-05T15:38:51Z</time>
      </trkpt>
      <trkpt lat="45.75056" lon="6.51201">
        <ele>1863</ele>
        <time>2025-06-05T15:38:53Z</time>
      </trkpt>
      <trkpt lat="45.75049" lon="6.51175">
        <ele>1866</ele>
        <time>2025-06-05T15:38:58Z</time>
      </trkpt>
      <trkpt lat="45.7504" lon="6.51138">
        <ele>1869</ele>
        <time>2025-06-05T15:39:04Z</time>
      </trkpt>
      <trkpt lat="45.75036" lon="6.51103">
        <ele>1871</ele>
        <time>2025-06-05T15:39:10Z</time>
      </trkpt>
      <trkpt lat="45.75037" lon="6.51091">
        <ele>1871</ele>
        <time>2025-06-05T15:39:12Z</time>
      </trkpt>
      <trkpt lat="45.75042" lon="6.51055">
        <ele>1869</ele>
        <time>2025-06-05T15:39:18Z</time>
      </trkpt>
      <trkpt lat="45.75043" lon="6.51051">
        <ele>1869</ele>
        <time>2025-06-05T15:39:19Z</time>
      </trkpt>
      <trkpt lat="45.7504" lon="6.51036">
        <ele>1868</ele>
        <time>2025-06-05T15:39:21Z</time>
      </trkpt>
      <trkpt lat="45.75034" lon="6.50998">
        <ele>1867</ele>
        <time>2025-06-05T15:39:27Z</time>
      </trkpt>
      <trkpt lat="45.75027" lon="6.50929">
        <ele>1867</ele>
        <time>2025-06-05T15:39:39Z</time>
      </trkpt>
      <trkpt lat="45.75023" lon="6.50875">
        <ele>1868</ele>
        <time>2025-06-05T15:39:48Z</time>
      </trkpt>
      <trkpt lat="45.75029" lon="6.50864">
        <ele>1868</ele>
        <time>2025-06-05T15:39:50Z</time>
      </trkpt>
      <trkpt lat="45.75041" lon="6.50853">
        <ele>1866</ele>
        <time>2025-06-05T15:39:53Z</time>
      </trkpt>
      <trkpt lat="45.75055" lon="6.5085">
        <ele>1863</ele>
        <time>2025-06-05T15:39:57Z</time>
      </trkpt>
      <trkpt lat="45.7506" lon="6.50846">
        <ele>1863</ele>
        <time>2025-06-05T15:39:58Z</time>
      </trkpt>
      <trkpt lat="45.7506" lon="6.50832">
        <ele>1863</ele>
        <time>2025-06-05T15:40:00Z</time>
      </trkpt>
      <trkpt lat="45.7505" lon="6.50809">
        <ele>1864</ele>
        <time>2025-06-05T15:40:05Z</time>
      </trkpt>
      <trkpt lat="45.75038" lon="6.50786">
        <ele>1866</ele>
        <time>2025-06-05T15:40:09Z</time>
      </trkpt>
      <trkpt lat="45.75035" lon="6.50771">
        <ele>1867</ele>
        <time>2025-06-05T15:40:12Z</time>
      </trkpt>
      <trkpt lat="45.75035" lon="6.50737">
        <ele>1866</ele>
        <time>2025-06-05T15:40:17Z</time>
      </trkpt>
      <trkpt lat="45.75024" lon="6.50706">
        <ele>1865</ele>
        <time>2025-06-05T15:40:23Z</time>
      </trkpt>
      <trkpt lat="45.75017" lon="6.50689">
        <ele>1866</ele>
        <time>2025-06-05T15:40:26Z</time>
      </trkpt>
      <trkpt lat="45.75009" lon="6.50655">
        <ele>1864</ele>
        <time>2025-06-05T15:40:32Z</time>
      </trkpt>
      <trkpt lat="45.75002" lon="6.50638">
        <ele>1863</ele>
        <time>2025-06-05T15:40:35Z</time>
      </trkpt>
      <trkpt lat="45.74982" lon="6.50616">
        <ele>1865</ele>
        <time>2025-06-05T15:40:41Z</time>
      </trkpt>
      <trkpt lat="45.74955" lon="6.50589">
        <ele>1869</ele>
        <time>2025-06-05T15:40:49Z</time>
      </trkpt>
      <trkpt lat="45.74931" lon="6.50563">
        <ele>1871</ele>
        <time>2025-06-05T15:40:56Z</time>
      </trkpt>
      <trkpt lat="45.74921" lon="6.50546">
        <ele>1871</ele>
        <time>2025-06-05T15:41:00Z</time>
      </trkpt>
      <trkpt lat="45.74902" lon="6.50487">
        <ele>1867</ele>
        <time>2025-06-05T15:41:10Z</time>
      </trkpt>
      <trkpt lat="45.74897" lon="6.50461">
        <ele>1866</ele>
        <time>2025-06-05T15:41:15Z</time>
      </trkpt>
      <trkpt lat="45.74866" lon="6.50417">
        <ele>1869</ele>
        <time>2025-06-05T15:41:25Z</time>
      </trkpt>
      <trkpt lat="45.74842" lon="6.5038">
        <ele>1872</ele>
        <time>2025-06-05T15:41:33Z</time>
      </trkpt>
      <trkpt lat="45.74827" lon="6.50352">
        <ele>1874</ele>
        <time>2025-06-05T15:41:39Z</time>
      </trkpt>
      <trkpt lat="45.74822" lon="6.5034">
        <ele>1874</ele>
        <time>2025-06-05T15:41:41Z</time>
      </trkpt>
      <trkpt lat="45.74816" lon="6.50308">
        <ele>1873</ele>
        <time>2025-06-05T15:41:46Z</time>
      </trkpt>
      <trkpt lat="45.74811" lon="6.50295">
        <ele>1873</ele>
        <time>2025-06-05T15:41:49Z</time>
      </trkpt>
      <trkpt lat="45.74801" lon="6.50289">
        <ele>1875</ele>
        <time>2025-06-05T15:41:51Z</time>
      </trkpt>
      <trkpt lat="45.7479" lon="6.50283">
        <ele>1877</ele>
        <time>2025-06-05T15:41:54Z</time>
      </trkpt>
      <trkpt lat="45.74782" lon="6.50272">
        <ele>1877</ele>
        <time>2025-06-05T15:41:57Z</time>
      </trkpt>
      <trkpt lat="45.74769" lon="6.50238">
        <ele>1875</ele>
        <time>2025-06-05T15:42:03Z</time>
      </trkpt>
      <trkpt lat="45.74757" lon="6.5022">
        <ele>1876</ele>
        <time>2025-06-05T15:42:07Z</time>
      </trkpt>
      <trkpt lat="45.74749" lon="6.50209">
        <ele>1876</ele>
        <time>2025-06-05T15:42:10Z</time>
      </trkpt>
      <trkpt lat="45.74744" lon="6.50202">
        <ele>1876</ele>
        <time>2025-06-05T15:42:11Z</time>
      </trkpt>
      <trkpt lat="45.74722" lon="6.50188">
        <ele>1875</ele>
        <time>2025-06-05T15:42:17Z</time>
      </trkpt>
      <trkpt lat="45.74686" lon="6.50169">
        <ele>1873</ele>
        <time>2025-06-05T15:42:26Z</time>
      </trkpt>
      <trkpt lat="45.74666" lon="6.50165">
        <ele>1873</ele>
        <time>2025-06-05T15:42:31Z</time>
      </trkpt>
      <trkpt lat="45.74651" lon="6.50159">
        <ele>1872</ele>
        <time>2025-06-05T15:42:34Z</time>
      </trkpt>
      <trkpt lat="45.74644" lon="6.50149">
        <ele>1871</ele>
        <time>2025-06-05T15:42:37Z</time>
      </trkpt>
      <trkpt lat="45.74635" lon="6.50137">
        <ele>1869</ele>
        <time>2025-06-05T15:42:39Z</time>
      </trkpt>
      <trkpt lat="45.74617" lon="6.50125">
        <ele>1867</ele>
        <time>2025-06-05T15:42:44Z</time>
      </trkpt>
      <trkpt lat="45.74601" lon="6.50117">
        <ele>1866</ele>
        <time>2025-06-05T15:42:48Z</time>
      </trkpt>
      <trkpt lat="45.74587" lon="6.50117">
        <ele>1866</ele>
        <time>2025-06-05T15:42:51Z</time>
      </trkpt>
      <trkpt lat="45.74565" lon="6.50122">
        <ele>1866</ele>
        <time>2025-06-05T15:42:56Z</time>
      </trkpt>
      <trkpt lat="45.7455" lon="6.50123">
        <ele>1866</ele>
        <time>2025-06-05T15:43:00Z</time>
      </trkpt>
      <trkpt lat="45.7454" lon="6.50121">
        <ele>1866</ele>
        <time>2025-06-05T15:43:02Z</time>
      </trkpt>
      <trkpt lat="45.74534" lon="6.50117">
        <ele>1865</ele>
        <time>2025-06-05T15:43:04Z</time>
      </trkpt>
      <trkpt lat="45.74531" lon="6.50115">
        <ele>1865</ele>
        <time>2025-06-05T15:43:05Z</time>
      </trkpt>
      <trkpt lat="45.74524" lon="6.50105">
        <ele>1863</ele>
        <time>2025-06-05T15:43:07Z</time>
      </trkpt>
      <trkpt lat="45.74518" lon="6.50094">
        <ele>1862</ele>
        <time>2025-06-05T15:43:09Z</time>
      </trkpt>
      <trkpt lat="45.74513" lon="6.50073">
        <ele>1859</ele>
        <time>2025-06-05T15:43:13Z</time>
      </trkpt>
      <trkpt lat="45.74513" lon="6.50028">
        <ele>1852</ele>
        <time>2025-06-05T15:43:20Z</time>
      </trkpt>
      <trkpt lat="45.74513" lon="6.50011">
        <ele>1849</ele>
        <time>2025-06-05T15:43:23Z</time>
      </trkpt>
      <trkpt lat="45.74511" lon="6.49999">
        <ele>1848</ele>
        <time>2025-06-05T15:43:25Z</time>
      </trkpt>
      <trkpt lat="45.74503" lon="6.49968">
        <ele>1845</ele>
        <time>2025-06-05T15:43:30Z</time>
      </trkpt>
      <trkpt lat="45.74494" lon="6.49932">
        <ele>1841</ele>
        <time>2025-06-05T15:43:37Z</time>
      </trkpt>
      <trkpt lat="45.74489" lon="6.49898">
        <ele>1837</ele>
        <time>2025-06-05T15:43:42Z</time>
      </trkpt>
      <trkpt lat="45.74481" lon="6.4987">
        <ele>1835</ele>
        <time>2025-06-05T15:43:47Z</time>
      </trkpt>
      <trkpt lat="45.7447" lon="6.49851">
        <ele>1834</ele>
        <time>2025-06-05T15:43:51Z</time>
      </trkpt>
      <trkpt lat="45.74455" lon="6.49827">
        <ele>1833</ele>
        <time>2025-06-05T15:43:56Z</time>
      </trkpt>
      <trkpt lat="45.7445" lon="6.49817">
        <ele>1832</ele>
        <time>2025-06-05T15:43:58Z</time>
      </trkpt>
      <trkpt lat="45.74447" lon="6.49812">
        <ele>1832</ele>
        <time>2025-06-05T15:44:00Z</time>
      </trkpt>
      <trkpt lat="45.7445" lon="6.49817">
        <ele>1832</ele>
        <time>2025-06-05T15:44:01Z</time>
      </trkpt>
      <trkpt lat="45.74463" lon="6.49804">
        <ele>1828</ele>
        <time>2025-06-05T15:44:04Z</time>
      </trkpt>
      <trkpt lat="45.74477" lon="6.49807">
        <ele>1826</ele>
        <time>2025-06-05T15:44:08Z</time>
      </trkpt>
      <trkpt lat="45.74486" lon="6.49822">
        <ele>1828</ele>
        <time>2025-06-05T15:44:11Z</time>
      </trkpt>
      <trkpt lat="45.74491" lon="6.49811">
        <ele>1825</ele>
        <time>2025-06-05T15:44:13Z</time>
      </trkpt>
      <trkpt lat="45.745" lon="6.49817">
        <ele>1825</ele>
        <time>2025-06-05T15:44:15Z</time>
      </trkpt>
      <trkpt lat="45.74502" lon="6.49812">
        <ele>1824</ele>
        <time>2025-06-05T15:44:16Z</time>
      </trkpt>
      <trkpt lat="45.74488" lon="6.49784">
        <ele>1820</ele>
        <time>2025-06-05T15:44:22Z</time>
      </trkpt>
      <trkpt lat="45.74442" lon="6.49754">
        <ele>1823</ele>
        <time>2025-06-05T15:44:34Z</time>
      </trkpt>
      <trkpt lat="45.74426" lon="6.49726">
        <ele>1824</ele>
        <time>2025-06-05T15:44:40Z</time>
      </trkpt>
      <trkpt lat="45.74407" lon="6.49703">
        <ele>1826</ele>
        <time>2025-06-05T15:44:45Z</time>
      </trkpt>
      <trkpt lat="45.74407" lon="6.49699">
        <ele>1826</ele>
        <time>2025-06-05T15:44:46Z</time>
      </trkpt>
      <trkpt lat="45.74409" lon="6.4969">
        <ele>1825</ele>
        <time>2025-06-05T15:44:48Z</time>
      </trkpt>
      <trkpt lat="45.74407" lon="6.49684">
        <ele>1825</ele>
        <time>2025-06-05T15:44:49Z</time>
      </trkpt>
      <trkpt lat="45.74404" lon="6.4965">
        <ele>1823</ele>
        <time>2025-06-05T15:44:54Z</time>
      </trkpt>
      <trkpt lat="45.74406" lon="6.49631">
        <ele>1821</ele>
        <time>2025-06-05T15:44:57Z</time>
      </trkpt>
      <trkpt lat="45.74394" lon="6.49616">
        <ele>1820</ele>
        <time>2025-06-05T15:45:01Z</time>
      </trkpt>
      <trkpt lat="45.74374" lon="6.49603">
        <ele>1820</ele>
        <time>2025-06-05T15:45:06Z</time>
      </trkpt>
      <trkpt lat="45.74362" lon="6.49591">
        <ele>1820</ele>
        <time>2025-06-05T15:45:10Z</time>
      </trkpt>
      <trkpt lat="45.74357" lon="6.49567">
        <ele>1818</ele>
        <time>2025-06-05T15:45:14Z</time>
      </trkpt>
      <trkpt lat="45.7435" lon="6.4955">
        <ele>1816</ele>
        <time>2025-06-05T15:45:17Z</time>
      </trkpt>
      <trkpt lat="45.74349" lon="6.49546">
        <ele>1816</ele>
        <time>2025-06-05T15:45:18Z</time>
      </trkpt>
      <trkpt lat="45.74342" lon="6.49537">
        <ele>1816</ele>
        <time>2025-06-05T15:45:20Z</time>
      </trkpt>
      <trkpt lat="45.74334" lon="6.49536">
        <ele>1817</ele>
        <time>2025-06-05T15:45:22Z</time>
      </trkpt>
      <trkpt lat="45.74332" lon="6.49532">
        <ele>1816</ele>
        <time>2025-06-05T15:45:22Z</time>
      </trkpt>
      <trkpt lat="45.74323" lon="6.49517">
        <ele>1815</ele>
        <time>2025-06-05T15:45:26Z</time>
      </trkpt>
      <trkpt lat="45.74294" lon="6.49484">
        <ele>1812</ele>
        <time>2025-06-05T15:45:34Z</time>
      </trkpt>
      <trkpt lat="45.74289" lon="6.49507">
        <ele>1814</ele>
        <time>2025-06-05T15:45:38Z</time>
      </trkpt>
      <trkpt lat="45.74283" lon="6.49513">
        <ele>1814</ele>
        <time>2025-06-05T15:45:40Z</time>
      </trkpt>
      <trkpt lat="45.74284" lon="6.49505">
        <ele>1814</ele>
        <time>2025-06-05T15:45:41Z</time>
      </trkpt>
      <trkpt lat="45.74262" lon="6.4948">
        <ele>1813</ele>
        <time>2025-06-05T15:45:48Z</time>
      </trkpt>
      <trkpt lat="45.74256" lon="6.49463">
        <ele>1812</ele>
        <time>2025-06-05T15:45:51Z</time>
      </trkpt>
      <trkpt lat="45.74244" lon="6.49443">
        <ele>1811</ele>
        <time>2025-06-05T15:45:55Z</time>
      </trkpt>
      <trkpt lat="45.74244" lon="6.49404">
        <ele>1808</ele>
        <time>2025-06-05T15:46:02Z</time>
      </trkpt>
      <trkpt lat="45.74248" lon="6.49394">
        <ele>1807</ele>
        <time>2025-06-05T15:46:04Z</time>
      </trkpt>
      <trkpt lat="45.74243" lon="6.49376">
        <ele>1805</ele>
        <time>2025-06-05T15:46:07Z</time>
      </trkpt>
      <trkpt lat="45.74216" lon="6.4933">
        <ele>1801</ele>
        <time>2025-06-05T15:46:16Z</time>
      </trkpt>
      <trkpt lat="45.74206" lon="6.49322">
        <ele>1801</ele>
        <time>2025-06-05T15:46:19Z</time>
      </trkpt>
      <trkpt lat="45.74206" lon="6.49306">
        <ele>1798</ele>
        <time>2025-06-05T15:46:22Z</time>
      </trkpt>
      <trkpt lat="45.74195" lon="6.49285">
        <ele>1797</ele>
        <time>2025-06-05T15:46:26Z</time>
      </trkpt>
      <trkpt lat="45.74194" lon="6.49282">
        <ele>1797</ele>
        <time>2025-06-05T15:46:27Z</time>
      </trkpt>
      <trkpt lat="45.74175" lon="6.49275">
        <ele>1799</ele>
        <time>2025-06-05T15:46:31Z</time>
      </trkpt>
      <trkpt lat="45.74161" lon="6.49267">
        <ele>1800</ele>
        <time>2025-06-05T15:46:35Z</time>
      </trkpt>
      <trkpt lat="45.74152" lon="6.49272">
        <ele>1799</ele>
        <time>2025-06-05T15:46:37Z</time>
      </trkpt>
      <trkpt lat="45.74149" lon="6.49289">
        <ele>1800</ele>
        <time>2025-06-05T15:46:40Z</time>
      </trkpt>
      <trkpt lat="45.74155" lon="6.49309">
        <ele>1801</ele>
        <time>2025-06-05T15:46:43Z</time>
      </trkpt>
      <trkpt lat="45.74154" lon="6.49321">
        <ele>1802</ele>
        <time>2025-06-05T15:46:45Z</time>
      </trkpt>
      <trkpt lat="45.74147" lon="6.49337">
        <ele>1801</ele>
        <time>2025-06-05T15:46:48Z</time>
      </trkpt>
      <trkpt lat="45.74143" lon="6.49377">
        <ele>1798</ele>
        <time>2025-06-05T15:46:55Z</time>
      </trkpt>
      <trkpt lat="45.74137" lon="6.49377">
        <ele>1797</ele>
        <time>2025-06-05T15:46:56Z</time>
      </trkpt>
      <trkpt lat="45.74126" lon="6.49362">
        <ele>1796</ele>
        <time>2025-06-05T15:47:00Z</time>
      </trkpt>
      <trkpt lat="45.74108" lon="6.49348">
        <ele>1793</ele>
        <time>2025-06-05T15:47:05Z</time>
      </trkpt>
      <trkpt lat="45.74094" lon="6.49324">
        <ele>1792</ele>
        <time>2025-06-05T15:47:10Z</time>
      </trkpt>
      <trkpt lat="45.74092" lon="6.49346">
        <ele>1790</ele>
        <time>2025-06-05T15:47:13Z</time>
      </trkpt>
      <trkpt lat="45.74097" lon="6.4935">
        <ele>1791</ele>
        <time>2025-06-05T15:47:15Z</time>
      </trkpt>
      <trkpt lat="45.74085" lon="6.49355">
        <ele>1788</ele>
        <time>2025-06-05T15:47:18Z</time>
      </trkpt>
      <trkpt lat="45.74072" lon="6.49355">
        <ele>1783</ele>
        <time>2025-06-05T15:47:21Z</time>
      </trkpt>
      <trkpt lat="45.74089" lon="6.49372">
        <ele>1787</ele>
        <time>2025-06-05T15:47:26Z</time>
      </trkpt>
      <trkpt lat="45.74106" lon="6.49396">
        <ele>1789</ele>
        <time>2025-06-05T15:47:31Z</time>
      </trkpt>
      <trkpt lat="45.74116" lon="6.49425">
        <ele>1790</ele>
        <time>2025-06-05T15:47:36Z</time>
      </trkpt>
      <trkpt lat="45.74125" lon="6.49448">
        <ele>1792</ele>
        <time>2025-06-05T15:47:41Z</time>
      </trkpt>
      <trkpt lat="45.74116" lon="6.49425">
        <ele>1790</ele>
        <time>2025-06-05T15:47:45Z</time>
      </trkpt>
      <trkpt lat="45.74106" lon="6.49396">
        <ele>1789</ele>
        <time>2025-06-05T15:47:50Z</time>
      </trkpt>
      <trkpt lat="45.74089" lon="6.49372">
        <ele>1787</ele>
        <time>2025-06-05T15:47:56Z</time>
      </trkpt>
      <trkpt lat="45.74072" lon="6.49355">
        <ele>1783</ele>
        <time>2025-06-05T15:48:01Z</time>
      </trkpt>
      <trkpt lat="45.74024" lon="6.49303">
        <ele>1774</ele>
        <time>2025-06-05T15:48:15Z</time>
      </trkpt>
      <trkpt lat="45.73976" lon="6.49223">
        <ele>1769</ele>
        <time>2025-06-05T15:48:32Z</time>
      </trkpt>
      <trkpt lat="45.73962" lon="6.49194">
        <ele>1768</ele>
        <time>2025-06-05T15:48:38Z</time>
      </trkpt>
      <trkpt lat="45.73949" lon="6.49153">
        <ele>1770</ele>
        <time>2025-06-05T15:48:45Z</time>
      </trkpt>
      <trkpt lat="45.73934" lon="6.49128">
        <ele>1768</ele>
        <time>2025-06-05T15:48:50Z</time>
      </trkpt>
      <trkpt lat="45.73914" lon="6.49112">
        <ele>1764</ele>
        <time>2025-06-05T15:48:56Z</time>
      </trkpt>
      <trkpt lat="45.7392" lon="6.49165">
        <ele>1757</ele>
        <time>2025-06-05T15:49:04Z</time>
      </trkpt>
      <trkpt lat="45.73914" lon="6.49204">
        <ele>1747</ele>
        <time>2025-06-05T15:49:11Z</time>
      </trkpt>
      <trkpt lat="45.73893" lon="6.49174">
        <ele>1745</ele>
        <time>2025-06-05T15:49:18Z</time>
      </trkpt>
      <trkpt lat="45.73863" lon="6.49163">
        <ele>1735</ele>
        <time>2025-06-05T15:49:25Z</time>
      </trkpt>
      <trkpt lat="45.73848" lon="6.49142">
        <ele>1733</ele>
        <time>2025-06-05T15:49:30Z</time>
      </trkpt>
      <trkpt lat="45.73831" lon="6.49142">
        <ele>1727</ele>
        <time>2025-06-05T15:49:34Z</time>
      </trkpt>
      <trkpt lat="45.73846" lon="6.49187">
        <ele>1724</ele>
        <time>2025-06-05T15:49:42Z</time>
      </trkpt>
      <trkpt lat="45.7386" lon="6.49225">
        <ele>1722</ele>
        <time>2025-06-05T15:49:49Z</time>
      </trkpt>
      <trkpt lat="45.73884" lon="6.4926">
        <ele>1724</ele>
        <time>2025-06-05T15:49:57Z</time>
      </trkpt>
      <trkpt lat="45.73897" lon="6.49296">
        <ele>1721</ele>
        <time>2025-06-05T15:50:04Z</time>
      </trkpt>
      <trkpt lat="45.739" lon="6.49337">
        <ele>1713</ele>
        <time>2025-06-05T15:50:10Z</time>
      </trkpt>
      <trkpt lat="45.7392" lon="6.49397">
        <ele>1710</ele>
        <time>2025-06-05T15:50:21Z</time>
      </trkpt>
      <trkpt lat="45.73927" lon="6.49421">
        <ele>1709</ele>
        <time>2025-06-05T15:50:26Z</time>
      </trkpt>
      <trkpt lat="45.73899" lon="6.49479">
        <ele>1692</ele>
        <time>2025-06-05T15:50:37Z</time>
      </trkpt>
      <trkpt lat="45.73878" lon="6.4947">
        <ele>1686</ele>
        <time>2025-06-05T15:50:42Z</time>
      </trkpt>
      <trkpt lat="45.73764" lon="6.4943">
        <ele>1656</ele>
        <time>2025-06-05T15:51:10Z</time>
      </trkpt>
      <trkpt lat="45.73653" lon="6.49428">
        <ele>1636</ele>
        <time>2025-06-05T15:51:35Z</time>
      </trkpt>
      <trkpt lat="45.73645" lon="6.49436">
        <ele>1633</ele>
        <time>2025-06-05T15:51:38Z</time>
      </trkpt>
      <trkpt lat="45.7363" lon="6.49445">
        <ele>1629</ele>
        <time>2025-06-05T15:51:42Z</time>
      </trkpt>
      <trkpt lat="45.73626" lon="6.49457">
        <ele>1626</ele>
        <time>2025-06-05T15:51:44Z</time>
      </trkpt>
      <trkpt lat="45.73623" lon="6.49474">
        <ele>1622</ele>
        <time>2025-06-05T15:51:47Z</time>
      </trkpt>
      <trkpt lat="45.73612" lon="6.49472">
        <ele>1621</ele>
        <time>2025-06-05T15:51:49Z</time>
      </trkpt>
      <trkpt lat="45.73603" lon="6.49463">
        <ele>1621</ele>
        <time>2025-06-05T15:51:52Z</time>
      </trkpt>
      <trkpt lat="45.73596" lon="6.49461">
        <ele>1620</ele>
        <time>2025-06-05T15:51:53Z</time>
      </trkpt>
      <trkpt lat="45.73593" lon="6.49452">
        <ele>1622</ele>
        <time>2025-06-05T15:51:55Z</time>
      </trkpt>
      <trkpt lat="45.73587" lon="6.49469">
        <ele>1617</ele>
        <time>2025-06-05T15:51:58Z</time>
      </trkpt>
      <trkpt lat="45.73584" lon="6.49477">
        <ele>1615</ele>
        <time>2025-06-05T15:52:00Z</time>
      </trkpt>
      <trkpt lat="45.73587" lon="6.49506">
        <ele>1610</ele>
        <time>2025-06-05T15:52:04Z</time>
      </trkpt>
      <trkpt lat="45.73591" lon="6.49522">
        <ele>1608</ele>
        <time>2025-06-05T15:52:07Z</time>
      </trkpt>
      <trkpt lat="45.73601" lon="6.49543">
        <ele>1606</ele>
        <time>2025-06-05T15:52:11Z</time>
      </trkpt>
      <trkpt lat="45.73614" lon="6.4958">
        <ele>1603</ele>
        <time>2025-06-05T15:52:18Z</time>
      </trkpt>
      <trkpt lat="45.73618" lon="6.49589">
        <ele>1602</ele>
        <time>2025-06-05T15:52:20Z</time>
      </trkpt>
      <trkpt lat="45.73616" lon="6.49602">
        <ele>1600</ele>
        <time>2025-06-05T15:52:22Z</time>
      </trkpt>
      <trkpt lat="45.7361" lon="6.49596">
        <ele>1600</ele>
        <time>2025-06-05T15:52:24Z</time>
      </trkpt>
      <trkpt lat="45.73602" lon="6.49586">
        <ele>1600</ele>
        <time>2025-06-05T15:52:26Z</time>
      </trkpt>
      <trkpt lat="45.73592" lon="6.49581">
        <ele>1599</ele>
        <time>2025-06-05T15:52:29Z</time>
      </trkpt>
      <trkpt lat="45.73579" lon="6.49568">
        <ele>1598</ele>
        <time>2025-06-05T15:52:32Z</time>
      </trkpt>
      <trkpt lat="45.73566" lon="6.49563">
        <ele>1594</ele>
        <time>2025-06-05T15:52:35Z</time>
      </trkpt>
      <trkpt lat="45.73561" lon="6.49558">
        <ele>1593</ele>
        <time>2025-06-05T15:52:37Z</time>
      </trkpt>
      <trkpt lat="45.73556" lon="6.49555">
        <ele>1592</ele>
        <time>2025-06-05T15:52:38Z</time>
      </trkpt>
      <trkpt lat="45.73549" lon="6.49547">
        <ele>1591</ele>
        <time>2025-06-05T15:52:40Z</time>
      </trkpt>
      <trkpt lat="45.73541" lon="6.49528">
        <ele>1590</ele>
        <time>2025-06-05T15:52:44Z</time>
      </trkpt>
      <trkpt lat="45.73535" lon="6.49516">
        <ele>1589</ele>
        <time>2025-06-05T15:52:46Z</time>
      </trkpt>
      <trkpt lat="45.7353" lon="6.49516">
        <ele>1587</ele>
        <time>2025-06-05T15:52:47Z</time>
      </trkpt>
      <trkpt lat="45.73515" lon="6.49513">
        <ele>1582</ele>
        <time>2025-06-05T15:52:51Z</time>
      </trkpt>
      <trkpt lat="45.7351" lon="6.49508">
        <ele>1580</ele>
        <time>2025-06-05T15:52:52Z</time>
      </trkpt>
      <trkpt lat="45.73488" lon="6.49461">
        <ele>1579</ele>
        <time>2025-06-05T15:53:02Z</time>
      </trkpt>
      <trkpt lat="45.73478" lon="6.49425">
        <ele>1580</ele>
        <time>2025-06-05T15:53:08Z</time>
      </trkpt>
      <trkpt lat="45.73464" lon="6.49407">
        <ele>1576</ele>
        <time>2025-06-05T15:53:12Z</time>
      </trkpt>
      <trkpt lat="45.73453" lon="6.49394">
        <ele>1574</ele>
        <time>2025-06-05T15:53:16Z</time>
      </trkpt>
      <trkpt lat="45.73447" lon="6.49391">
        <ele>1571</ele>
        <time>2025-06-05T15:53:17Z</time>
      </trkpt>
      <trkpt lat="45.73436" lon="6.49379">
        <ele>1568</ele>
        <time>2025-06-05T15:53:20Z</time>
      </trkpt>
      <trkpt lat="45.73434" lon="6.49366">
        <ele>1569</ele>
        <time>2025-06-05T15:53:23Z</time>
      </trkpt>
      <trkpt lat="45.7343" lon="6.49362">
        <ele>1568</ele>
        <time>2025-06-05T15:53:24Z</time>
      </trkpt>
      <trkpt lat="45.73426" lon="6.49364">
        <ele>1566</ele>
        <time>2025-06-05T15:53:25Z</time>
      </trkpt>
      <trkpt lat="45.73423" lon="6.49373">
        <ele>1563</ele>
        <time>2025-06-05T15:53:26Z</time>
      </trkpt>
      <trkpt lat="45.73428" lon="6.49423">
        <ele>1557</ele>
        <time>2025-06-05T15:53:35Z</time>
      </trkpt>
      <trkpt lat="45.73429" lon="6.49443">
        <ele>1556</ele>
        <time>2025-06-05T15:53:38Z</time>
      </trkpt>
      <trkpt lat="45.73426" lon="6.49459">
        <ele>1553</ele>
        <time>2025-06-05T15:53:41Z</time>
      </trkpt>
      <trkpt lat="45.73419" lon="6.4948">
        <ele>1549</ele>
        <time>2025-06-05T15:53:44Z</time>
      </trkpt>
      <trkpt lat="45.73413" lon="6.49492">
        <ele>1546</ele>
        <time>2025-06-05T15:53:47Z</time>
      </trkpt>
      <trkpt lat="45.73407" lon="6.49501">
        <ele>1542</ele>
        <time>2025-06-05T15:53:49Z</time>
      </trkpt>
      <trkpt lat="45.73402" lon="6.49515">
        <ele>1539</ele>
        <time>2025-06-05T15:53:51Z</time>
      </trkpt>
      <trkpt lat="45.73405" lon="6.49536">
        <ele>1539</ele>
        <time>2025-06-05T15:53:55Z</time>
      </trkpt>
      <trkpt lat="45.73401" lon="6.49575">
        <ele>1534</ele>
        <time>2025-06-05T15:54:01Z</time>
      </trkpt>
      <trkpt lat="45.73396" lon="6.49589">
        <ele>1530</ele>
        <time>2025-06-05T15:54:04Z</time>
      </trkpt>
      <trkpt lat="45.73394" lon="6.49606">
        <ele>1529</ele>
        <time>2025-06-05T15:54:07Z</time>
      </trkpt>
      <trkpt lat="45.73393" lon="6.49653">
        <ele>1528</ele>
        <time>2025-06-05T15:54:14Z</time>
      </trkpt>
      <trkpt lat="45.73395" lon="6.49676">
        <ele>1528</ele>
        <time>2025-06-05T15:54:18Z</time>
      </trkpt>
      <trkpt lat="45.734" lon="6.49692">
        <ele>1528</ele>
        <time>2025-06-05T15:54:21Z</time>
      </trkpt>
      <trkpt lat="45.73404" lon="6.49712">
        <ele>1528</ele>
        <time>2025-06-05T15:54:24Z</time>
      </trkpt>
      <trkpt lat="45.73409" lon="6.49727">
        <ele>1529</ele>
        <time>2025-06-05T15:54:27Z</time>
      </trkpt>
      <trkpt lat="45.73413" lon="6.49758">
        <ele>1527</ele>
        <time>2025-06-05T15:54:32Z</time>
      </trkpt>
      <trkpt lat="45.73426" lon="6.49795">
        <ele>1526</ele>
        <time>2025-06-05T15:54:39Z</time>
      </trkpt>
      <trkpt lat="45.73432" lon="6.49819">
        <ele>1525</ele>
        <time>2025-06-05T15:54:43Z</time>
      </trkpt>
      <trkpt lat="45.73433" lon="6.49829">
        <ele>1524</ele>
        <time>2025-06-05T15:54:45Z</time>
      </trkpt>
      <trkpt lat="45.73431" lon="6.49842">
        <ele>1522</ele>
        <time>2025-06-05T15:54:47Z</time>
      </trkpt>
      <trkpt lat="45.73428" lon="6.49859">
        <ele>1519</ele>
        <time>2025-06-05T15:54:50Z</time>
      </trkpt>
      <trkpt lat="45.73418" lon="6.49866">
        <ele>1516</ele>
        <time>2025-06-05T15:54:52Z</time>
      </trkpt>
      <trkpt lat="45.73411" lon="6.49874">
        <ele>1512</ele>
        <time>2025-06-05T15:54:54Z</time>
      </trkpt>
      <trkpt lat="45.73393" lon="6.49915">
        <ele>1500</ele>
        <time>2025-06-05T15:55:02Z</time>
      </trkpt>
      <trkpt lat="45.7339" lon="6.49942">
        <ele>1496</ele>
        <time>2025-06-05T15:55:07Z</time>
      </trkpt>
      <trkpt lat="45.73387" lon="6.49985">
        <ele>1490</ele>
        <time>2025-06-05T15:55:14Z</time>
      </trkpt>
      <trkpt lat="45.73383" lon="6.4999">
        <ele>1488</ele>
        <time>2025-06-05T15:55:15Z</time>
      </trkpt>
      <trkpt lat="45.7337" lon="6.49987">
        <ele>1484</ele>
        <time>2025-06-05T15:55:18Z</time>
      </trkpt>
      <trkpt lat="45.73361" lon="6.49986">
        <ele>1481</ele>
        <time>2025-06-05T15:55:20Z</time>
      </trkpt>
      <trkpt lat="45.73353" lon="6.49989">
        <ele>1478</ele>
        <time>2025-06-05T15:55:22Z</time>
      </trkpt>
      <trkpt lat="45.73356" lon="6.50015">
        <ele>1476</ele>
        <time>2025-06-05T15:55:26Z</time>
      </trkpt>
      <trkpt lat="45.73355" lon="6.50026">
        <ele>1474</ele>
        <time>2025-06-05T15:55:28Z</time>
      </trkpt>
      <trkpt lat="45.73345" lon="6.50033">
        <ele>1470</ele>
        <time>2025-06-05T15:55:31Z</time>
      </trkpt>
      <trkpt lat="45.73325" lon="6.50039">
        <ele>1463</ele>
        <time>2025-06-05T15:55:36Z</time>
      </trkpt>
      <trkpt lat="45.73309" lon="6.50041">
        <ele>1457</ele>
        <time>2025-06-05T15:55:39Z</time>
      </trkpt>
      <trkpt lat="45.73298" lon="6.50038">
        <ele>1454</ele>
        <time>2025-06-05T15:55:42Z</time>
      </trkpt>
      <trkpt lat="45.73271" lon="6.50028">
        <ele>1446</ele>
        <time>2025-06-05T15:55:49Z</time>
      </trkpt>
      <trkpt lat="45.73258" lon="6.50025">
        <ele>1442</ele>
        <time>2025-06-05T15:55:52Z</time>
      </trkpt>
      <trkpt lat="45.7323" lon="6.50026">
        <ele>1432</ele>
        <time>2025-06-05T15:55:58Z</time>
      </trkpt>
      <trkpt lat="45.73217" lon="6.50024">
        <ele>1427</ele>
        <time>2025-06-05T15:56:01Z</time>
      </trkpt>
      <trkpt lat="45.73188" lon="6.5001">
        <ele>1418</ele>
        <time>2025-06-05T15:56:08Z</time>
      </trkpt>
      <trkpt lat="45.73181" lon="6.50011">
        <ele>1415</ele>
        <time>2025-06-05T15:56:10Z</time>
      </trkpt>
      <trkpt lat="45.73174" lon="6.50017">
        <ele>1412</ele>
        <time>2025-06-05T15:56:12Z</time>
      </trkpt>
      <trkpt lat="45.73164" lon="6.50035">
        <ele>1406</ele>
        <time>2025-06-05T15:56:16Z</time>
      </trkpt>
      <trkpt lat="45.73158" lon="6.50055">
        <ele>1401</ele>
        <time>2025-06-05T15:56:19Z</time>
      </trkpt>
      <trkpt lat="45.73157" lon="6.50063">
        <ele>1400</ele>
        <time>2025-06-05T15:56:21Z</time>
      </trkpt>
      <trkpt lat="45.73159" lon="6.50076">
        <ele>1400</ele>
        <time>2025-06-05T15:56:23Z</time>
      </trkpt>
      <trkpt lat="45.73161" lon="6.501">
        <ele>1395</ele>
        <time>2025-06-05T15:56:27Z</time>
      </trkpt>
      <trkpt lat="45.73163" lon="6.50127">
        <ele>1388</ele>
        <time>2025-06-05T15:56:31Z</time>
      </trkpt>
      <trkpt lat="45.73168" lon="6.50138">
        <ele>1387</ele>
        <time>2025-06-05T15:56:33Z</time>
      </trkpt>
      <trkpt lat="45.73173" lon="6.50153">
        <ele>1384</ele>
        <time>2025-06-05T15:56:36Z</time>
      </trkpt>
      <trkpt lat="45.7318" lon="6.50205">
        <ele>1369</ele>
        <time>2025-06-05T15:56:45Z</time>
      </trkpt>
      <trkpt lat="45.73195" lon="6.5024">
        <ele>1362</ele>
        <time>2025-06-05T15:56:51Z</time>
      </trkpt>
      <trkpt lat="45.73205" lon="6.50274">
        <ele>1358</ele>
        <time>2025-06-05T15:56:57Z</time>
      </trkpt>
      <trkpt lat="45.73205" lon="6.50307">
        <ele>1353</ele>
        <time>2025-06-05T15:57:03Z</time>
      </trkpt>
      <trkpt lat="45.73209" lon="6.50316">
        <ele>1353</ele>
        <time>2025-06-05T15:57:04Z</time>
      </trkpt>
      <trkpt lat="45.73211" lon="6.50349">
        <ele>1348</ele>
        <time>2025-06-05T15:57:10Z</time>
      </trkpt>
      <trkpt lat="45.73214" lon="6.50391">
        <ele>1344</ele>
        <time>2025-06-05T15:57:17Z</time>
      </trkpt>
      <trkpt lat="45.73225" lon="6.50427">
        <ele>1342</ele>
        <time>2025-06-05T15:57:23Z</time>
      </trkpt>
      <trkpt lat="45.73223" lon="6.50486">
        <ele>1331</ele>
        <time>2025-06-05T15:57:33Z</time>
      </trkpt>
      <trkpt lat="45.73221" lon="6.50526">
        <ele>1324</ele>
        <time>2025-06-05T15:57:39Z</time>
      </trkpt>
      <trkpt lat="45.73228" lon="6.50561">
        <ele>1319</ele>
        <time>2025-06-05T15:57:45Z</time>
      </trkpt>
      <trkpt lat="45.73246" lon="6.50601">
        <ele>1314</ele>
        <time>2025-06-05T15:57:53Z</time>
      </trkpt>
      <trkpt lat="45.73261" lon="6.50626">
        <ele>1314</ele>
        <time>2025-06-05T15:57:58Z</time>
      </trkpt>
      <trkpt lat="45.73262" lon="6.50632">
        <ele>1314</ele>
        <time>2025-06-05T15:57:59Z</time>
      </trkpt>
      <trkpt lat="45.73272" lon="6.50645">
        <ele>1314</ele>
        <time>2025-06-05T15:58:02Z</time>
      </trkpt>
      <trkpt lat="45.73279" lon="6.50667">
        <ele>1312</ele>
        <time>2025-06-05T15:58:06Z</time>
      </trkpt>
      <trkpt lat="45.7329" lon="6.50679">
        <ele>1314</ele>
        <time>2025-06-05T15:58:10Z</time>
      </trkpt>
      <trkpt lat="45.73313" lon="6.50711">
        <ele>1316</ele>
        <time>2025-06-05T15:58:17Z</time>
      </trkpt>
      <trkpt lat="45.73326" lon="6.50737">
        <ele>1316</ele>
        <time>2025-06-05T15:58:22Z</time>
      </trkpt>
      <trkpt lat="45.73333" lon="6.50744">
        <ele>1317</ele>
        <time>2025-06-05T15:58:24Z</time>
      </trkpt>
      <trkpt lat="45.73343" lon="6.50743">
        <ele>1320</ele>
        <time>2025-06-05T15:58:27Z</time>
      </trkpt>
      <trkpt lat="45.73353" lon="6.50738">
        <ele>1325</ele>
        <time>2025-06-05T15:58:29Z</time>
      </trkpt>
      <trkpt lat="45.7336" lon="6.50742">
        <ele>1326</ele>
        <time>2025-06-05T15:58:31Z</time>
      </trkpt>
      <trkpt lat="45.73363" lon="6.50748">
        <ele>1326</ele>
        <time>2025-06-05T15:58:32Z</time>
      </trkpt>
      <trkpt lat="45.73362" lon="6.50756">
        <ele>1325</ele>
        <time>2025-06-05T15:58:33Z</time>
      </trkpt>
      <trkpt lat="45.73359" lon="6.50768">
        <ele>1324</ele>
        <time>2025-06-05T15:58:35Z</time>
      </trkpt>
      <trkpt lat="45.73359" lon="6.50781">
        <ele>1323</ele>
        <time>2025-06-05T15:58:38Z</time>
      </trkpt>
      <trkpt lat="45.73357" lon="6.50819">
        <ele>1320</ele>
        <time>2025-06-05T15:58:44Z</time>
      </trkpt>
      <trkpt lat="45.73377" lon="6.50861">
        <ele>1324</ele>
        <time>2025-06-05T15:58:52Z</time>
      </trkpt>
      <trkpt lat="45.73432" lon="6.50933">
        <ele>1335</ele>
        <time>2025-06-05T15:59:09Z</time>
      </trkpt>
      <trkpt lat="45.73487" lon="6.50954">
        <ele>1348</ele>
        <time>2025-06-05T15:59:23Z</time>
      </trkpt>
      <trkpt lat="45.73457" lon="6.51025">
        <ele>1324</ele>
        <time>2025-06-05T15:59:36Z</time>
      </trkpt>
      <trkpt lat="45.73433" lon="6.51139">
        <ele>1310</ele>
        <time>2025-06-05T15:59:56Z</time>
      </trkpt>
      <trkpt lat="45.73427" lon="6.51201">
        <ele>1311</ele>
        <time>2025-06-05T16:00:06Z</time>
      </trkpt>
      <trkpt lat="45.73416" lon="6.51299">
        <ele>1309</ele>
        <time>2025-06-05T16:00:22Z</time>
      </trkpt>
      <trkpt lat="45.73401" lon="6.51345">
        <ele>1300</ele>
        <time>2025-06-05T16:00:30Z</time>
      </trkpt>
      <trkpt lat="45.73409" lon="6.51474">
        <ele>1291</ele>
        <time>2025-06-05T16:00:51Z</time>
      </trkpt>
      <trkpt lat="45.73419" lon="6.51511">
        <ele>1295</ele>
        <time>2025-06-05T16:00:58Z</time>
      </trkpt>
      <trkpt lat="45.73426" lon="6.51528">
        <ele>1298</ele>
        <time>2025-06-05T16:01:01Z</time>
      </trkpt>
      <trkpt lat="45.73441" lon="6.51593">
        <ele>1303</ele>
        <time>2025-06-05T16:01:12Z</time>
      </trkpt>
      <trkpt lat="45.73443" lon="6.51619">
        <ele>1301</ele>
        <time>2025-06-05T16:01:17Z</time>
      </trkpt>
      <trkpt lat="45.73453" lon="6.51677">
        <ele>1300</ele>
        <time>2025-06-05T16:01:26Z</time>
      </trkpt>
      <trkpt lat="45.73462" lon="6.51707">
        <ele>1302</ele>
        <time>2025-06-05T16:01:32Z</time>
      </trkpt>
      <trkpt lat="45.73469" lon="6.51738">
        <ele>1302</ele>
        <time>2025-06-05T16:01:37Z</time>
      </trkpt>
      <trkpt lat="45.73482" lon="6.51772">
        <ele>1308</ele>
        <time>2025-06-05T16:01:43Z</time>
      </trkpt>
      <trkpt lat="45.73484" lon="6.51787">
        <ele>1310</ele>
        <time>2025-06-05T16:01:46Z</time>
      </trkpt>
      <trkpt lat="45.73482" lon="6.51814">
        <ele>1308</ele>
        <time>2025-06-05T16:01:50Z</time>
      </trkpt>
      <trkpt lat="45.73484" lon="6.51845">
        <ele>1307</ele>
        <time>2025-06-05T16:01:55Z</time>
      </trkpt>
      <trkpt lat="45.73498" lon="6.51886">
        <ele>1308</ele>
        <time>2025-06-05T16:02:03Z</time>
      </trkpt>
      <trkpt lat="45.73497" lon="6.51924">
        <ele>1298</ele>
        <time>2025-06-05T16:02:09Z</time>
      </trkpt>
      <trkpt lat="45.73496" lon="6.51935">
        <ele>1294</ele>
        <time>2025-06-05T16:02:11Z</time>
      </trkpt>
      <trkpt lat="45.73497" lon="6.51957">
        <ele>1287</ele>
        <time>2025-06-05T16:02:14Z</time>
      </trkpt>
      <trkpt lat="45.73502" lon="6.51968">
        <ele>1284</ele>
        <time>2025-06-05T16:02:16Z</time>
      </trkpt>
      <trkpt lat="45.73516" lon="6.51975">
        <ele>1284</ele>
        <time>2025-06-05T16:02:20Z</time>
      </trkpt>
      <trkpt lat="45.73524" lon="6.51974">
        <ele>1286</ele>
        <time>2025-06-05T16:02:22Z</time>
      </trkpt>
      <trkpt lat="45.73535" lon="6.51972">
        <ele>1288</ele>
        <time>2025-06-05T16:02:24Z</time>
      </trkpt>
      <trkpt lat="45.73548" lon="6.51979">
        <ele>1287</ele>
        <time>2025-06-05T16:02:28Z</time>
      </trkpt>
      <trkpt lat="45.7356" lon="6.51995">
        <ele>1281</ele>
        <time>2025-06-05T16:02:31Z</time>
      </trkpt>
      <trkpt lat="45.73573" lon="6.52032">
        <ele>1274</ele>
        <time>2025-06-05T16:02:38Z</time>
      </trkpt>
      <trkpt lat="45.73589" lon="6.52051">
        <ele>1274</ele>
        <time>2025-06-05T16:02:43Z</time>
      </trkpt>
      <trkpt lat="45.73637" lon="6.5208">
        <ele>1277</ele>
        <time>2025-06-05T16:02:55Z</time>
      </trkpt>
      <trkpt lat="45.73644" lon="6.52086">
        <ele>1277</ele>
        <time>2025-06-05T16:02:57Z</time>
      </trkpt>
      <trkpt lat="45.73649" lon="6.52094">
        <ele>1276</ele>
        <time>2025-06-05T16:02:59Z</time>
      </trkpt>
      <trkpt lat="45.73657" lon="6.5211">
        <ele>1276</ele>
        <time>2025-06-05T16:03:02Z</time>
      </trkpt>
      <trkpt lat="45.73679" lon="6.52134">
        <ele>1279</ele>
        <time>2025-06-05T16:03:09Z</time>
      </trkpt>
      <trkpt lat="45.73683" lon="6.52141">
        <ele>1279</ele>
        <time>2025-06-05T16:03:10Z</time>
      </trkpt>
      <trkpt lat="45.73684" lon="6.52146">
        <ele>1279</ele>
        <time>2025-06-05T16:03:11Z</time>
      </trkpt>
      <trkpt lat="45.737" lon="6.52155">
        <ele>1282</ele>
        <time>2025-06-05T16:03:15Z</time>
      </trkpt>
      <trkpt lat="45.73714" lon="6.52167">
        <ele>1283</ele>
        <time>2025-06-05T16:03:19Z</time>
      </trkpt>
      <trkpt lat="45.73743" lon="6.52192">
        <ele>1287</ele>
        <time>2025-06-05T16:03:27Z</time>
      </trkpt>
      <trkpt lat="45.73762" lon="6.52205">
        <ele>1290</ele>
        <time>2025-06-05T16:03:32Z</time>
      </trkpt>
      <trkpt lat="45.73769" lon="6.52211">
        <ele>1292</ele>
        <time>2025-06-05T16:03:33Z</time>
      </trkpt>
      <trkpt lat="45.73776" lon="6.52221">
        <ele>1293</ele>
        <time>2025-06-05T16:03:36Z</time>
      </trkpt>
      <trkpt lat="45.73798" lon="6.52271">
        <ele>1295</ele>
        <time>2025-06-05T16:03:45Z</time>
      </trkpt>
      <trkpt lat="45.73804" lon="6.52291">
        <ele>1295</ele>
        <time>2025-06-05T16:03:49Z</time>
      </trkpt>
      <trkpt lat="45.73807" lon="6.52333">
        <ele>1292</ele>
        <time>2025-06-05T16:03:56Z</time>
      </trkpt>
      <trkpt lat="45.7381" lon="6.52346">
        <ele>1293</ele>
        <time>2025-06-05T16:03:58Z</time>
      </trkpt>
      <trkpt lat="45.73817" lon="6.52361">
        <ele>1295</ele>
        <time>2025-06-05T16:04:01Z</time>
      </trkpt>
      <trkpt lat="45.73823" lon="6.52373">
        <ele>1296</ele>
        <time>2025-06-05T16:04:03Z</time>
      </trkpt>
      <trkpt lat="45.73837" lon="6.52394">
        <ele>1300</ele>
        <time>2025-06-05T16:04:08Z</time>
      </trkpt>
      <trkpt lat="45.73876" lon="6.52447">
        <ele>1317</ele>
        <time>2025-06-05T16:04:21Z</time>
      </trkpt>
      <trkpt lat="45.73883" lon="6.52458">
        <ele>1320</ele>
        <time>2025-06-05T16:04:23Z</time>
      </trkpt>
      <trkpt lat="45.73889" lon="6.5247">
        <ele>1323</ele>
        <time>2025-06-05T16:04:25Z</time>
      </trkpt>
      <trkpt lat="45.73892" lon="6.52486">
        <ele>1325</ele>
        <time>2025-06-05T16:04:28Z</time>
      </trkpt>
      <trkpt lat="45.73895" lon="6.52549">
        <ele>1324</ele>
        <time>2025-06-05T16:04:38Z</time>
      </trkpt>
      <trkpt lat="45.739" lon="6.52603">
        <ele>1323</ele>
        <time>2025-06-05T16:04:47Z</time>
      </trkpt>
      <trkpt lat="45.73903" lon="6.52618">
        <ele>1323</ele>
        <time>2025-06-05T16:04:50Z</time>
      </trkpt>
      <trkpt lat="45.73908" lon="6.52635">
        <ele>1324</ele>
        <time>2025-06-05T16:04:53Z</time>
      </trkpt>
      <trkpt lat="45.73915" lon="6.52653">
        <ele>1326</ele>
        <time>2025-06-05T16:04:56Z</time>
      </trkpt>
      <trkpt lat="45.73923" lon="6.52668">
        <ele>1328</ele>
        <time>2025-06-05T16:04:59Z</time>
      </trkpt>
      <trkpt lat="45.7393" lon="6.52677">
        <ele>1331</ele>
        <time>2025-06-05T16:05:02Z</time>
      </trkpt>
      <trkpt lat="45.73944" lon="6.52691">
        <ele>1337</ele>
        <time>2025-06-05T16:05:06Z</time>
      </trkpt>
      <trkpt lat="45.73952" lon="6.52702">
        <ele>1340</ele>
        <time>2025-06-05T16:05:08Z</time>
      </trkpt>
      <trkpt lat="45.73957" lon="6.52714">
        <ele>1341</ele>
        <time>2025-06-05T16:05:10Z</time>
      </trkpt>
      <trkpt lat="45.73961" lon="6.52726">
        <ele>1341</ele>
        <time>2025-06-05T16:05:13Z</time>
      </trkpt>
      <trkpt lat="45.73962" lon="6.52735">
        <ele>1341</ele>
        <time>2025-06-05T16:05:14Z</time>
      </trkpt>
      <trkpt lat="45.73963" lon="6.5275">
        <ele>1339</ele>
        <time>2025-06-05T16:05:17Z</time>
      </trkpt>
      <trkpt lat="45.73961" lon="6.52778">
        <ele>1334</ele>
        <time>2025-06-05T16:05:21Z</time>
      </trkpt>
      <trkpt lat="45.73964" lon="6.528">
        <ele>1333</ele>
        <time>2025-06-05T16:05:25Z</time>
      </trkpt>
      <trkpt lat="45.73975" lon="6.52839">
        <ele>1332</ele>
        <time>2025-06-05T16:05:32Z</time>
      </trkpt>
      <trkpt lat="45.73978" lon="6.52845">
        <ele>1332</ele>
        <time>2025-06-05T16:05:33Z</time>
      </trkpt>
      <trkpt lat="45.73981" lon="6.52848">
        <ele>1333</ele>
        <time>2025-06-05T16:05:34Z</time>
      </trkpt>
      <trkpt lat="45.73983" lon="6.52849">
        <ele>1334</ele>
        <time>2025-06-05T16:05:34Z</time>
      </trkpt>
      <trkpt lat="45.73985" lon="6.52858">
        <ele>1333</ele>
        <time>2025-06-05T16:05:36Z</time>
      </trkpt>
      <trkpt lat="45.73988" lon="6.52865">
        <ele>1333</ele>
        <time>2025-06-05T16:05:37Z</time>
      </trkpt>
      <trkpt lat="45.74006" lon="6.52888">
        <ele>1336</ele>
        <time>2025-06-05T16:05:43Z</time>
      </trkpt>
      <trkpt lat="45.74037" lon="6.52911">
        <ele>1340</ele>
        <time>2025-06-05T16:05:51Z</time>
      </trkpt>
      <trkpt lat="45.74048" lon="6.52917">
        <ele>1342</ele>
        <time>2025-06-05T16:05:54Z</time>
      </trkpt>
      <trkpt lat="45.7406" lon="6.52922">
        <ele>1344</ele>
        <time>2025-06-05T16:05:56Z</time>
      </trkpt>
      <trkpt lat="45.74086" lon="6.52928">
        <ele>1351</ele>
        <time>2025-06-05T16:06:03Z</time>
      </trkpt>
      <trkpt lat="45.74098" lon="6.52933">
        <ele>1356</ele>
        <time>2025-06-05T16:06:06Z</time>
      </trkpt>
      <trkpt lat="45.74113" lon="6.5294">
        <ele>1361</ele>
        <time>2025-06-05T16:06:09Z</time>
      </trkpt>
      <trkpt lat="45.74127" lon="6.52949">
        <ele>1366</ele>
        <time>2025-06-05T16:06:13Z</time>
      </trkpt>
      <trkpt lat="45.74133" lon="6.52956">
        <ele>1367</ele>
        <time>2025-06-05T16:06:15Z</time>
      </trkpt>
      <trkpt lat="45.74137" lon="6.52963">
        <ele>1367</ele>
        <time>2025-06-05T16:06:16Z</time>
      </trkpt>
      <trkpt lat="45.74138" lon="6.52971">
        <ele>1366</ele>
        <time>2025-06-05T16:06:17Z</time>
      </trkpt>
      <trkpt lat="45.74136" lon="6.52988">
        <ele>1361</ele>
        <time>2025-06-05T16:06:20Z</time>
      </trkpt>
      <trkpt lat="45.74131" lon="6.53006">
        <ele>1356</ele>
        <time>2025-06-05T16:06:23Z</time>
      </trkpt>
      <trkpt lat="45.74129" lon="6.53023">
        <ele>1355</ele>
        <time>2025-06-05T16:06:26Z</time>
      </trkpt>
      <trkpt lat="45.74128" lon="6.53052">
        <ele>1353</ele>
        <time>2025-06-05T16:06:31Z</time>
      </trkpt>
      <trkpt lat="45.74128" lon="6.53064">
        <ele>1353</ele>
        <time>2025-06-05T16:06:33Z</time>
      </trkpt>
      <trkpt lat="45.7413" lon="6.53069">
        <ele>1354</ele>
        <time>2025-06-05T16:06:34Z</time>
      </trkpt>
      <trkpt lat="45.74133" lon="6.53076">
        <ele>1355</ele>
        <time>2025-06-05T16:06:35Z</time>
      </trkpt>
      <trkpt lat="45.74162" lon="6.53094">
        <ele>1365</ele>
        <time>2025-06-05T16:06:43Z</time>
      </trkpt>
      <trkpt lat="45.74167" lon="6.53099">
        <ele>1367</ele>
        <time>2025-06-05T16:06:44Z</time>
      </trkpt>
      <trkpt lat="45.74174" lon="6.53114">
        <ele>1372</ele>
        <time>2025-06-05T16:06:47Z</time>
      </trkpt>
      <trkpt lat="45.74177" lon="6.53119">
        <ele>1374</ele>
        <time>2025-06-05T16:06:48Z</time>
      </trkpt>
      <trkpt lat="45.74179" lon="6.53121">
        <ele>1375</ele>
        <time>2025-06-05T16:06:49Z</time>
      </trkpt>
      <trkpt lat="45.74184" lon="6.53121">
        <ele>1378</ele>
        <time>2025-06-05T16:06:50Z</time>
      </trkpt>
      <trkpt lat="45.74188" lon="6.53116">
        <ele>1380</ele>
        <time>2025-06-05T16:06:51Z</time>
      </trkpt>
      <trkpt lat="45.74188" lon="6.53112">
        <ele>1379</ele>
        <time>2025-06-05T16:06:52Z</time>
      </trkpt>
      <trkpt lat="45.74188" lon="6.53108">
        <ele>1379</ele>
        <time>2025-06-05T16:06:52Z</time>
      </trkpt>
      <trkpt lat="45.74186" lon="6.53104">
        <ele>1378</ele>
        <time>2025-06-05T16:06:53Z</time>
      </trkpt>
      <trkpt lat="45.74176" lon="6.53086">
        <ele>1372</ele>
        <time>2025-06-05T16:06:57Z</time>
      </trkpt>
      <trkpt lat="45.74171" lon="6.53072">
        <ele>1369</ele>
        <time>2025-06-05T16:06:59Z</time>
      </trkpt>
      <trkpt lat="45.74167" lon="6.53043">
        <ele>1369</ele>
        <time>2025-06-05T16:07:04Z</time>
      </trkpt>
      <trkpt lat="45.74168" lon="6.53032">
        <ele>1370</ele>
        <time>2025-06-05T16:07:06Z</time>
      </trkpt>
      <trkpt lat="45.74169" lon="6.53021">
        <ele>1371</ele>
        <time>2025-06-05T16:07:08Z</time>
      </trkpt>
      <trkpt lat="45.74182" lon="6.52958">
        <ele>1391</ele>
        <time>2025-06-05T16:07:19Z</time>
      </trkpt>
      <trkpt lat="45.74183" lon="6.52947">
        <ele>1394</ele>
        <time>2025-06-05T16:07:20Z</time>
      </trkpt>
      <trkpt lat="45.74182" lon="6.52939">
        <ele>1396</ele>
        <time>2025-06-05T16:07:22Z</time>
      </trkpt>
      <trkpt lat="45.74181" lon="6.52931">
        <ele>1397</ele>
        <time>2025-06-05T16:07:23Z</time>
      </trkpt>
      <trkpt lat="45.74179" lon="6.52922">
        <ele>1398</ele>
        <time>2025-06-05T16:07:25Z</time>
      </trkpt>
      <trkpt lat="45.74171" lon="6.52904">
        <ele>1397</ele>
        <time>2025-06-05T16:07:28Z</time>
      </trkpt>
      <trkpt lat="45.74165" lon="6.52898">
        <ele>1395</ele>
        <time>2025-06-05T16:07:30Z</time>
      </trkpt>
      <trkpt lat="45.74159" lon="6.52892">
        <ele>1394</ele>
        <time>2025-06-05T16:07:31Z</time>
      </trkpt>
      <trkpt lat="45.7414" lon="6.52877">
        <ele>1389</ele>
        <time>2025-06-05T16:07:36Z</time>
      </trkpt>
      <trkpt lat="45.74123" lon="6.52857">
        <ele>1388</ele>
        <time>2025-06-05T16:07:42Z</time>
      </trkpt>
      <trkpt lat="45.74109" lon="6.52836">
        <ele>1388</ele>
        <time>2025-06-05T16:07:46Z</time>
      </trkpt>
      <trkpt lat="45.74105" lon="6.52828">
        <ele>1389</ele>
        <time>2025-06-05T16:07:48Z</time>
      </trkpt>
      <trkpt lat="45.74102" lon="6.52816">
        <ele>1390</ele>
        <time>2025-06-05T16:07:50Z</time>
      </trkpt>
      <trkpt lat="45.74091" lon="6.52771">
        <ele>1393</ele>
        <time>2025-06-05T16:07:58Z</time>
      </trkpt>
      <trkpt lat="45.7409" lon="6.52762">
        <ele>1394</ele>
        <time>2025-06-05T16:07:59Z</time>
      </trkpt>
      <trkpt lat="45.74091" lon="6.52756">
        <ele>1396</ele>
        <time>2025-06-05T16:08:00Z</time>
      </trkpt>
      <trkpt lat="45.74092" lon="6.52753">
        <ele>1397</ele>
        <time>2025-06-05T16:08:01Z</time>
      </trkpt>
      <trkpt lat="45.74095" lon="6.5275">
        <ele>1398</ele>
        <time>2025-06-05T16:08:02Z</time>
      </trkpt>
      <trkpt lat="45.74098" lon="6.52748">
        <ele>1400</ele>
        <time>2025-06-05T16:08:02Z</time>
      </trkpt>
      <trkpt lat="45.74102" lon="6.52748">
        <ele>1401</ele>
        <time>2025-06-05T16:08:03Z</time>
      </trkpt>
      <trkpt lat="45.74105" lon="6.52751">
        <ele>1402</ele>
        <time>2025-06-05T16:08:04Z</time>
      </trkpt>
      <trkpt lat="45.74108" lon="6.52757">
        <ele>1402</ele>
        <time>2025-06-05T16:08:05Z</time>
      </trkpt>
      <trkpt lat="45.74118" lon="6.52791">
        <ele>1400</ele>
        <time>2025-06-05T16:08:11Z</time>
      </trkpt>
      <trkpt lat="45.74122" lon="6.528">
        <ele>1400</ele>
        <time>2025-06-05T16:08:13Z</time>
      </trkpt>
      <trkpt lat="45.74127" lon="6.52808">
        <ele>1400</ele>
        <time>2025-06-05T16:08:15Z</time>
      </trkpt>
      <trkpt lat="45.7414" lon="6.52819">
        <ele>1403</ele>
        <time>2025-06-05T16:08:18Z</time>
      </trkpt>
      <trkpt lat="45.74155" lon="6.52826">
        <ele>1407</ele>
        <time>2025-06-05T16:08:22Z</time>
      </trkpt>
      <trkpt lat="45.74181" lon="6.52836">
        <ele>1415</ele>
        <time>2025-06-05T16:08:28Z</time>
      </trkpt>
      <trkpt lat="45.74203" lon="6.52847">
        <ele>1421</ele>
        <time>2025-06-05T16:08:34Z</time>
      </trkpt>
      <trkpt lat="45.74209" lon="6.52851">
        <ele>1423</ele>
        <time>2025-06-05T16:08:35Z</time>
      </trkpt>
      <trkpt lat="45.74214" lon="6.52856">
        <ele>1425</ele>
        <time>2025-06-05T16:08:37Z</time>
      </trkpt>
      <trkpt lat="45.74218" lon="6.52863">
        <ele>1426</ele>
        <time>2025-06-05T16:08:38Z</time>
      </trkpt>
      <trkpt lat="45.74224" lon="6.52879">
        <ele>1428</ele>
        <time>2025-06-05T16:08:41Z</time>
      </trkpt>
      <trkpt lat="45.74225" lon="6.52895">
        <ele>1427</ele>
        <time>2025-06-05T16:08:44Z</time>
      </trkpt>
      <trkpt lat="45.74224" lon="6.52929">
        <ele>1423</ele>
        <time>2025-06-05T16:08:49Z</time>
      </trkpt>
      <trkpt lat="45.74225" lon="6.52941">
        <ele>1421</ele>
        <time>2025-06-05T16:08:51Z</time>
      </trkpt>
      <trkpt lat="45.74229" lon="6.52953">
        <ele>1422</ele>
        <time>2025-06-05T16:08:54Z</time>
      </trkpt>
      <trkpt lat="45.74232" lon="6.52962">
        <ele>1422</ele>
        <time>2025-06-05T16:08:55Z</time>
      </trkpt>
      <trkpt lat="45.74236" lon="6.52969">
        <ele>1423</ele>
        <time>2025-06-05T16:08:57Z</time>
      </trkpt>
      <trkpt lat="45.7424" lon="6.52974">
        <ele>1425</ele>
        <time>2025-06-05T16:08:58Z</time>
      </trkpt>
      <trkpt lat="45.74243" lon="6.52976">
        <ele>1427</ele>
        <time>2025-06-05T16:08:59Z</time>
      </trkpt>
      <trkpt lat="45.74247" lon="6.52974">
        <ele>1430</ele>
        <time>2025-06-05T16:09:00Z</time>
      </trkpt>
      <trkpt lat="45.7425" lon="6.52983">
        <ele>1430</ele>
        <time>2025-06-05T16:09:01Z</time>
      </trkpt>
      <trkpt lat="45.74262" lon="6.53003">
        <ele>1436</ele>
        <time>2025-06-05T16:09:06Z</time>
      </trkpt>
      <trkpt lat="45.74271" lon="6.53014">
        <ele>1441</ele>
        <time>2025-06-05T16:09:08Z</time>
      </trkpt>
      <trkpt lat="45.74285" lon="6.53025">
        <ele>1449</ele>
        <time>2025-06-05T16:09:12Z</time>
      </trkpt>
      <trkpt lat="45.74305" lon="6.5305">
        <ele>1457</ele>
        <time>2025-06-05T16:09:18Z</time>
      </trkpt>
      <trkpt lat="45.7431" lon="6.53067">
        <ele>1457</ele>
        <time>2025-06-05T16:09:21Z</time>
      </trkpt>
      <trkpt lat="45.74311" lon="6.53081">
        <ele>1454</ele>
        <time>2025-06-05T16:09:24Z</time>
      </trkpt>
      <trkpt lat="45.7431" lon="6.53101">
        <ele>1452</ele>
        <time>2025-06-05T16:09:27Z</time>
      </trkpt>
      <trkpt lat="45.74315" lon="6.53137">
        <ele>1453</ele>
        <time>2025-06-05T16:09:33Z</time>
      </trkpt>
      <trkpt lat="45.74333" lon="6.5317">
        <ele>1464</ele>
        <time>2025-06-05T16:09:40Z</time>
      </trkpt>
      <trkpt lat="45.74344" lon="6.53192">
        <ele>1471</ele>
        <time>2025-06-05T16:09:44Z</time>
      </trkpt>
      <trkpt lat="45.7435" lon="6.53226">
        <ele>1474</ele>
        <time>2025-06-05T16:09:50Z</time>
      </trkpt>
      <trkpt lat="45.74347" lon="6.53263">
        <ele>1470</ele>
        <time>2025-06-05T16:09:56Z</time>
      </trkpt>
      <trkpt lat="45.74335" lon="6.53307">
        <ele>1462</ele>
        <time>2025-06-05T16:10:04Z</time>
      </trkpt>
      <trkpt lat="45.74339" lon="6.53389">
        <ele>1475</ele>
        <time>2025-06-05T16:10:17Z</time>
      </trkpt>
      <trkpt lat="45.74327" lon="6.53448">
        <ele>1480</ele>
        <time>2025-06-05T16:10:27Z</time>
      </trkpt>
      <trkpt lat="45.74307" lon="6.53497">
        <ele>1477</ele>
        <time>2025-06-05T16:10:36Z</time>
      </trkpt>
      <trkpt lat="45.74306" lon="6.53522">
        <ele>1482</ele>
        <time>2025-06-05T16:10:40Z</time>
      </trkpt>
      <trkpt lat="45.74297" lon="6.53557">
        <ele>1482</ele>
        <time>2025-06-05T16:10:46Z</time>
      </trkpt>
      <trkpt lat="45.74291" lon="6.5361">
        <ele>1491</ele>
        <time>2025-06-05T16:10:55Z</time>
      </trkpt>
      <trkpt lat="45.74291" lon="6.5366">
        <ele>1506</ele>
        <time>2025-06-05T16:11:03Z</time>
      </trkpt>
      <trkpt lat="45.7428" lon="6.53707">
        <ele>1513</ele>
        <time>2025-06-05T16:11:11Z</time>
      </trkpt>
      <trkpt lat="45.74255" lon="6.53765">
        <ele>1517</ele>
        <time>2025-06-05T16:11:23Z</time>
      </trkpt>
      <trkpt lat="45.74242" lon="6.53805">
        <ele>1522</ele>
        <time>2025-06-05T16:11:30Z</time>
      </trkpt>
      <trkpt lat="45.74202" lon="6.53877">
        <ele>1523</ele>
        <time>2025-06-05T16:11:45Z</time>
      </trkpt>
      <trkpt lat="45.74182" lon="6.53909">
        <ele>1523</ele>
        <time>2025-06-05T16:11:52Z</time>
      </trkpt>
      <trkpt lat="45.74159" lon="6.53945">
        <ele>1525</ele>
        <time>2025-06-05T16:12:00Z</time>
      </trkpt>
      <trkpt lat="45.74152" lon="6.5395">
        <ele>1522</ele>
        <time>2025-06-05T16:12:01Z</time>
      </trkpt>
      <trkpt lat="45.74147" lon="6.53978">
        <ele>1529</ele>
        <time>2025-06-05T16:12:06Z</time>
      </trkpt>
      <trkpt lat="45.74135" lon="6.53993">
        <ele>1527</ele>
        <time>2025-06-05T16:12:10Z</time>
      </trkpt>
      <trkpt lat="45.74135" lon="6.54005">
        <ele>1530</ele>
        <time>2025-06-05T16:12:12Z</time>
      </trkpt>
      <trkpt lat="45.7414" lon="6.54009">
        <ele>1534</ele>
        <time>2025-06-05T16:12:13Z</time>
      </trkpt>
      <trkpt lat="45.74151" lon="6.54007">
        <ele>1540</ele>
        <time>2025-06-05T16:12:16Z</time>
      </trkpt>
      <trkpt lat="45.7416" lon="6.54006">
        <ele>1545</ele>
        <time>2025-06-05T16:12:18Z</time>
      </trkpt>
      <trkpt lat="45.74197" lon="6.54003">
        <ele>1558</ele>
        <time>2025-06-05T16:12:27Z</time>
      </trkpt>
      <trkpt lat="45.74212" lon="6.53994">
        <ele>1561</ele>
        <time>2025-06-05T16:12:30Z</time>
      </trkpt>
      <trkpt lat="45.74219" lon="6.53996">
        <ele>1564</ele>
        <time>2025-06-05T16:12:32Z</time>
      </trkpt>
      <trkpt lat="45.74219" lon="6.54005">
        <ele>1566</ele>
        <time>2025-06-05T16:12:33Z</time>
      </trkpt>
      <trkpt lat="45.74201" lon="6.5403">
        <ele>1567</ele>
        <time>2025-06-05T16:12:39Z</time>
      </trkpt>
      <trkpt lat="45.74195" lon="6.54044">
        <ele>1568</ele>
        <time>2025-06-05T16:12:42Z</time>
      </trkpt>
      <trkpt lat="45.74187" lon="6.54068">
        <ele>1572</ele>
        <time>2025-06-05T16:12:46Z</time>
      </trkpt>
      <trkpt lat="45.7417" lon="6.5408">
        <ele>1569</ele>
        <time>2025-06-05T16:12:51Z</time>
      </trkpt>
      <trkpt lat="45.74157" lon="6.54084">
        <ele>1564</ele>
        <time>2025-06-05T16:12:54Z</time>
      </trkpt>
      <trkpt lat="45.74149" lon="6.54096">
        <ele>1562</ele>
        <time>2025-06-05T16:12:57Z</time>
      </trkpt>
      <trkpt lat="45.74145" lon="6.5412">
        <ele>1563</ele>
        <time>2025-06-05T16:13:01Z</time>
      </trkpt>
      <trkpt lat="45.74129" lon="6.54158">
        <ele>1559</ele>
        <time>2025-06-05T16:13:08Z</time>
      </trkpt>
      <trkpt lat="45.74129" lon="6.54193">
        <ele>1561</ele>
        <time>2025-06-05T16:13:14Z</time>
      </trkpt>
      <trkpt lat="45.74132" lon="6.54218">
        <ele>1563</ele>
        <time>2025-06-05T16:13:18Z</time>
      </trkpt>
      <trkpt lat="45.74131" lon="6.54236">
        <ele>1563</ele>
        <time>2025-06-05T16:13:21Z</time>
      </trkpt>
      <trkpt lat="45.74142" lon="6.54277">
        <ele>1568</ele>
        <time>2025-06-05T16:13:28Z</time>
      </trkpt>
      <trkpt lat="45.74149" lon="6.54297">
        <ele>1570</ele>
        <time>2025-06-05T16:13:31Z</time>
      </trkpt>
      <trkpt lat="45.74154" lon="6.54304">
        <ele>1572</ele>
        <time>2025-06-05T16:13:33Z</time>
      </trkpt>
      <trkpt lat="45.74156" lon="6.54314">
        <ele>1573</ele>
        <time>2025-06-05T16:13:35Z</time>
      </trkpt>
      <trkpt lat="45.74153" lon="6.54335">
        <ele>1569</ele>
        <time>2025-06-05T16:13:38Z</time>
      </trkpt>
      <trkpt lat="45.74157" lon="6.54354">
        <ele>1569</ele>
        <time>2025-06-05T16:13:41Z</time>
      </trkpt>
      <trkpt lat="45.74167" lon="6.54366">
        <ele>1574</ele>
        <time>2025-06-05T16:13:45Z</time>
      </trkpt>
      <trkpt lat="45.74188" lon="6.54373">
        <ele>1578</ele>
        <time>2025-06-05T16:13:50Z</time>
      </trkpt>
      <trkpt lat="45.7421" lon="6.54375">
        <ele>1584</ele>
        <time>2025-06-05T16:13:55Z</time>
      </trkpt>
      <trkpt lat="45.74221" lon="6.54379">
        <ele>1586</ele>
        <time>2025-06-05T16:13:57Z</time>
      </trkpt>
      <trkpt lat="45.74235" lon="6.54391">
        <ele>1589</ele>
        <time>2025-06-05T16:14:01Z</time>
      </trkpt>
      <trkpt lat="45.7426" lon="6.54417">
        <ele>1591</ele>
        <time>2025-06-05T16:14:08Z</time>
      </trkpt>
      <trkpt lat="45.74282" lon="6.54424">
        <ele>1591</ele>
        <time>2025-06-05T16:14:14Z</time>
      </trkpt>
      <trkpt lat="45.74322" lon="6.54427">
        <ele>1593</ele>
        <time>2025-06-05T16:14:23Z</time>
      </trkpt>
      <trkpt lat="45.74353" lon="6.54434">
        <ele>1594</ele>
        <time>2025-06-05T16:14:30Z</time>
      </trkpt>
      <trkpt lat="45.74403" lon="6.54448">
        <ele>1594</ele>
        <time>2025-06-05T16:14:42Z</time>
      </trkpt>
      <trkpt lat="45.74396" lon="6.54468">
        <ele>1590</ele>
        <time>2025-06-05T16:14:46Z</time>
      </trkpt>
      <trkpt lat="45.74389" lon="6.54472">
        <ele>1589</ele>
        <time>2025-06-05T16:14:48Z</time>
      </trkpt>
      <trkpt lat="45.74396" lon="6.54468">
        <ele>1590</ele>
        <time>2025-06-05T16:14:49Z</time>
      </trkpt>
      <trkpt lat="45.74403" lon="6.54448">
        <ele>1594</ele>
        <time>2025-06-05T16:14:53Z</time>
      </trkpt>
      <trkpt lat="45.74411" lon="6.54447">
        <ele>1594</ele>
        <time>2025-06-05T16:14:55Z</time>
      </trkpt>
      <trkpt lat="45.74458" lon="6.54438">
        <ele>1596</ele>
        <time>2025-06-05T16:15:06Z</time>
      </trkpt>
      <trkpt lat="45.74484" lon="6.5443">
        <ele>1597</ele>
        <time>2025-06-05T16:15:12Z</time>
      </trkpt>
      <trkpt lat="45.745" lon="6.5442">
        <ele>1599</ele>
        <time>2025-06-05T16:15:16Z</time>
      </trkpt>
      <trkpt lat="45.74507" lon="6.54417">
        <ele>1600</ele>
        <time>2025-06-05T16:15:18Z</time>
      </trkpt>
      <trkpt lat="45.74516" lon="6.54417">
        <ele>1600</ele>
        <time>2025-06-05T16:15:20Z</time>
      </trkpt>
      <trkpt lat="45.74525" lon="6.54419">
        <ele>1599</ele>
        <time>2025-06-05T16:15:22Z</time>
      </trkpt>
      <trkpt lat="45.74529" lon="6.5442">
        <ele>1599</ele>
        <time>2025-06-05T16:15:23Z</time>
      </trkpt>
      <trkpt lat="45.74533" lon="6.54419">
        <ele>1599</ele>
        <time>2025-06-05T16:15:24Z</time>
      </trkpt>
      <trkpt lat="45.74536" lon="6.54414">
        <ele>1600</ele>
        <time>2025-06-05T16:15:25Z</time>
      </trkpt>
      <trkpt lat="45.74536" lon="6.54408">
        <ele>1601</ele>
        <time>2025-06-05T16:15:26Z</time>
      </trkpt>
      <trkpt lat="45.7453" lon="6.54405">
        <ele>1601</ele>
        <time>2025-06-05T16:15:28Z</time>
      </trkpt>
      <trkpt lat="45.74488" lon="6.54396">
        <ele>1603</ele>
        <time>2025-06-05T16:15:38Z</time>
      </trkpt>
      <trkpt lat="45.74467" lon="6.54384">
        <ele>1605</ele>
        <time>2025-06-05T16:15:43Z</time>
      </trkpt>
      <trkpt lat="45.74456" lon="6.5438">
        <ele>1605</ele>
        <time>2025-06-05T16:15:45Z</time>
      </trkpt>
      <trkpt lat="45.74446" lon="6.54366">
        <ele>1607</ele>
        <time>2025-06-05T16:15:49Z</time>
      </trkpt>
      <trkpt lat="45.74425" lon="6.54348">
        <ele>1609</ele>
        <time>2025-06-05T16:15:54Z</time>
      </trkpt>
      <trkpt lat="45.74414" lon="6.54331">
        <ele>1610</ele>
        <time>2025-06-05T16:15:58Z</time>
      </trkpt>
      <trkpt lat="45.74395" lon="6.54301">
        <ele>1614</ele>
        <time>2025-06-05T16:16:05Z</time>
      </trkpt>
      <trkpt lat="45.74386" lon="6.54277">
        <ele>1617</ele>
        <time>2025-06-05T16:16:09Z</time>
      </trkpt>
      <trkpt lat="45.74377" lon="6.54257">
        <ele>1619</ele>
        <time>2025-06-05T16:16:13Z</time>
      </trkpt>
      <trkpt lat="45.74348" lon="6.54211">
        <ele>1619</ele>
        <time>2025-06-05T16:16:23Z</time>
      </trkpt>
      <trkpt lat="45.74334" lon="6.5417">
        <ele>1620</ele>
        <time>2025-06-05T16:16:31Z</time>
      </trkpt>
      <trkpt lat="45.7433" lon="6.54155">
        <ele>1619</ele>
        <time>2025-06-05T16:16:33Z</time>
      </trkpt>
      <trkpt lat="45.74336" lon="6.54127">
        <ele>1620</ele>
        <time>2025-06-05T16:16:38Z</time>
      </trkpt>
      <trkpt lat="45.74349" lon="6.54114">
        <ele>1622</ele>
        <time>2025-06-05T16:16:42Z</time>
      </trkpt>
      <trkpt lat="45.74361" lon="6.54117">
        <ele>1624</ele>
        <time>2025-06-05T16:16:45Z</time>
      </trkpt>
      <trkpt lat="45.74381" lon="6.54123">
        <ele>1627</ele>
        <time>2025-06-05T16:16:49Z</time>
      </trkpt>
      <trkpt lat="45.74404" lon="6.54169">
        <ele>1629</ele>
        <time>2025-06-05T16:16:59Z</time>
      </trkpt>
      <trkpt lat="45.74417" lon="6.54175">
        <ele>1630</ele>
        <time>2025-06-05T16:17:02Z</time>
      </trkpt>
      <trkpt lat="45.7444" lon="6.54175">
        <ele>1630</ele>
        <time>2025-06-05T16:17:07Z</time>
      </trkpt>
      <trkpt lat="45.74469" lon="6.54179">
        <ele>1629</ele>
        <time>2025-06-05T16:17:14Z</time>
      </trkpt>
      <trkpt lat="45.74491" lon="6.54184">
        <ele>1627</ele>
        <time>2025-06-05T16:17:19Z</time>
      </trkpt>
      <trkpt lat="45.74512" lon="6.54183">
        <ele>1627</ele>
        <time>2025-06-05T16:17:24Z</time>
      </trkpt>
      <trkpt lat="45.74536" lon="6.54177">
        <ele>1628</ele>
        <time>2025-06-05T16:17:30Z</time>
      </trkpt>
      <trkpt lat="45.74601" lon="6.54163">
        <ele>1630</ele>
        <time>2025-06-05T16:17:45Z</time>
      </trkpt>
      <trkpt lat="45.74643" lon="6.54155">
        <ele>1632</ele>
        <time>2025-06-05T16:17:55Z</time>
      </trkpt>
      <trkpt lat="45.74588" lon="6.54099">
        <ele>1641</ele>
        <time>2025-06-05T16:18:11Z</time>
      </trkpt>
      <trkpt lat="45.74559" lon="6.54071">
        <ele>1645</ele>
        <time>2025-06-05T16:18:19Z</time>
      </trkpt>
      <trkpt lat="45.74556" lon="6.54067">
        <ele>1645</ele>
        <time>2025-06-05T16:18:20Z</time>
      </trkpt>
      <trkpt lat="45.74547" lon="6.54055">
        <ele>1645</ele>
        <time>2025-06-05T16:18:23Z</time>
      </trkpt>
      <trkpt lat="45.74525" lon="6.54014">
        <ele>1648</ele>
        <time>2025-06-05T16:18:31Z</time>
      </trkpt>
      <trkpt lat="45.7452" lon="6.53993">
        <ele>1649</ele>
        <time>2025-06-05T16:18:35Z</time>
      </trkpt>
      <trkpt lat="45.74519" lon="6.53977">
        <ele>1650</ele>
        <time>2025-06-05T16:18:37Z</time>
      </trkpt>
      <trkpt lat="45.74519" lon="6.5396">
        <ele>1650</ele>
        <time>2025-06-05T16:18:40Z</time>
      </trkpt>
      <trkpt lat="45.74521" lon="6.53938">
        <ele>1651</ele>
        <time>2025-06-05T16:18:44Z</time>
      </trkpt>
      <trkpt lat="45.74543" lon="6.53817">
        <ele>1658</ele>
        <time>2025-06-05T16:19:04Z</time>
      </trkpt>
      <trkpt lat="45.74548" lon="6.53799">
        <ele>1660</ele>
        <time>2025-06-05T16:19:07Z</time>
      </trkpt>
      <trkpt lat="45.74558" lon="6.53779">
        <ele>1662</ele>
        <time>2025-06-05T16:19:11Z</time>
      </trkpt>
      <trkpt lat="45.74607" lon="6.53711">
        <ele>1669</ele>
        <time>2025-06-05T16:19:27Z</time>
      </trkpt>
      <trkpt lat="45.74619" lon="6.53681">
        <ele>1670</ele>
        <time>2025-06-05T16:19:33Z</time>
      </trkpt>
      <trkpt lat="45.74626" lon="6.53655">
        <ele>1671</ele>
        <time>2025-06-05T16:19:38Z</time>
      </trkpt>
      <trkpt lat="45.74638" lon="6.53662">
        <ele>1670</ele>
        <time>2025-06-05T16:19:41Z</time>
      </trkpt>
      <trkpt lat="45.74648" lon="6.53668">
        <ele>1669</ele>
        <time>2025-06-05T16:19:43Z</time>
      </trkpt>
      <trkpt lat="45.74673" lon="6.53676">
        <ele>1667</ele>
        <time>2025-06-05T16:19:49Z</time>
      </trkpt>
      <trkpt lat="45.74695" lon="6.53672">
        <ele>1665</ele>
        <time>2025-06-05T16:19:54Z</time>
      </trkpt>
      <trkpt lat="45.74715" lon="6.53665">
        <ele>1664</ele>
        <time>2025-06-05T16:19:59Z</time>
      </trkpt>
      <trkpt lat="45.74737" lon="6.53649">
        <ele>1664</ele>
        <time>2025-06-05T16:20:05Z</time>
      </trkpt>
      <trkpt lat="45.74761" lon="6.53637">
        <ele>1662</ele>
        <time>2025-06-05T16:20:11Z</time>
      </trkpt>
      <trkpt lat="45.74781" lon="6.53611">
        <ele>1662</ele>
        <time>2025-06-05T16:20:17Z</time>
      </trkpt>
      <trkpt lat="45.74797" lon="6.53595">
        <ele>1660</ele>
        <time>2025-06-05T16:20:22Z</time>
      </trkpt>
      <trkpt lat="45.74814" lon="6.53556">
        <ele>1662</ele>
        <time>2025-06-05T16:20:29Z</time>
      </trkpt>
      <trkpt lat="45.7487" lon="6.53466">
        <ele>1665</ele>
        <time>2025-06-05T16:20:49Z</time>
      </trkpt>
      <trkpt lat="45.7489" lon="6.53427">
        <ele>1667</ele>
        <time>2025-06-05T16:20:57Z</time>
      </trkpt>
      <trkpt lat="45.74902" lon="6.53415">
        <ele>1668</ele>
        <time>2025-06-05T16:21:00Z</time>
      </trkpt>
      <trkpt lat="45.74908" lon="6.53409">
        <ele>1668</ele>
        <time>2025-06-05T16:21:02Z</time>
      </trkpt>
      <trkpt lat="45.74961" lon="6.53352">
        <ele>1666</ele>
        <time>2025-06-05T16:21:17Z</time>
      </trkpt>
      <trkpt lat="45.74973" lon="6.5335">
        <ele>1664</ele>
        <time>2025-06-05T16:21:20Z</time>
      </trkpt>
      <trkpt lat="45.75013" lon="6.53355">
        <ele>1657</ele>
        <time>2025-06-05T16:21:29Z</time>
      </trkpt>
      <trkpt lat="45.75044" lon="6.53357">
        <ele>1653</ele>
        <time>2025-06-05T16:21:37Z</time>
      </trkpt>
      <trkpt lat="45.75053" lon="6.53358">
        <ele>1652</ele>
        <time>2025-06-05T16:21:39Z</time>
      </trkpt>
      <trkpt lat="45.75075" lon="6.53352">
        <ele>1650</ele>
        <time>2025-06-05T16:21:44Z</time>
      </trkpt>
      <trkpt lat="45.75082" lon="6.53352">
        <ele>1649</ele>
        <time>2025-06-05T16:21:46Z</time>
      </trkpt>
      <trkpt lat="45.75089" lon="6.5335">
        <ele>1648</ele>
        <time>2025-06-05T16:21:47Z</time>
      </trkpt>
      <trkpt lat="45.75098" lon="6.53344">
        <ele>1648</ele>
        <time>2025-06-05T16:21:50Z</time>
      </trkpt>
      <trkpt lat="45.75116" lon="6.53338">
        <ele>1647</ele>
        <time>2025-06-05T16:21:54Z</time>
      </trkpt>
      <trkpt lat="45.75133" lon="6.53329">
        <ele>1646</ele>
        <time>2025-06-05T16:21:58Z</time>
      </trkpt>
      <trkpt lat="45.75158" lon="6.53321">
        <ele>1644</ele>
        <time>2025-06-05T16:22:04Z</time>
      </trkpt>
      <trkpt lat="45.75177" lon="6.53313">
        <ele>1642</ele>
        <time>2025-06-05T16:22:09Z</time>
      </trkpt>
      <trkpt lat="45.75226" lon="6.5329">
        <ele>1638</ele>
        <time>2025-06-05T16:22:21Z</time>
      </trkpt>
      <trkpt lat="45.75238" lon="6.53275">
        <ele>1637</ele>
        <time>2025-06-05T16:22:25Z</time>
      </trkpt>
      <trkpt lat="45.7526" lon="6.53259">
        <ele>1635</ele>
        <time>2025-06-05T16:22:30Z</time>
      </trkpt>
      <trkpt lat="45.75274" lon="6.53243">
        <ele>1634</ele>
        <time>2025-06-05T16:22:34Z</time>
      </trkpt>
      <trkpt lat="45.75284" lon="6.53235">
        <ele>1632</ele>
        <time>2025-06-05T16:22:37Z</time>
      </trkpt>
      <trkpt lat="45.75286" lon="6.53235">
        <ele>1632</ele>
        <time>2025-06-05T16:22:38Z</time>
      </trkpt>
      <trkpt lat="45.7529" lon="6.53236">
        <ele>1632</ele>
        <time>2025-06-05T16:22:39Z</time>
      </trkpt>
      <trkpt lat="45.75304" lon="6.53245">
        <ele>1630</ele>
        <time>2025-06-05T16:22:42Z</time>
      </trkpt>
      <trkpt lat="45.75323" lon="6.53262">
        <ele>1628</ele>
        <time>2025-06-05T16:22:47Z</time>
      </trkpt>
      <trkpt lat="45.75342" lon="6.53277">
        <ele>1625</ele>
        <time>2025-06-05T16:22:52Z</time>
      </trkpt>
      <trkpt lat="45.7537" lon="6.53295">
        <ele>1622</ele>
        <time>2025-06-05T16:23:00Z</time>
      </trkpt>
      <trkpt lat="45.75395" lon="6.5331">
        <ele>1618</ele>
        <time>2025-06-05T16:23:06Z</time>
      </trkpt>
      <trkpt lat="45.75439" lon="6.53334">
        <ele>1614</ele>
        <time>2025-06-05T16:23:17Z</time>
      </trkpt>
      <trkpt lat="45.75454" lon="6.53341">
        <ele>1614</ele>
        <time>2025-06-05T16:23:21Z</time>
      </trkpt>
      <trkpt lat="45.75463" lon="6.53346">
        <ele>1614</ele>
        <time>2025-06-05T16:23:23Z</time>
      </trkpt>
      <trkpt lat="45.75466" lon="6.53331">
        <ele>1614</ele>
        <time>2025-06-05T16:23:25Z</time>
      </trkpt>
      <trkpt lat="45.75475" lon="6.5332">
        <ele>1614</ele>
        <time>2025-06-05T16:23:28Z</time>
      </trkpt>
      <trkpt lat="45.7548" lon="6.53309">
        <ele>1614</ele>
        <time>2025-06-05T16:23:30Z</time>
      </trkpt>
      <trkpt lat="45.75483" lon="6.53273">
        <ele>1614</ele>
        <time>2025-06-05T16:23:36Z</time>
      </trkpt>
      <trkpt lat="45.75485" lon="6.53259">
        <ele>1614</ele>
        <time>2025-06-05T16:23:39Z</time>
      </trkpt>
      <trkpt lat="45.75482" lon="6.53247">
        <ele>1614</ele>
        <time>2025-06-05T16:23:41Z</time>
      </trkpt>
      <trkpt lat="45.75483" lon="6.53235">
        <ele>1614</ele>
        <time>2025-06-05T16:23:43Z</time>
      </trkpt>
      <trkpt lat="45.75485" lon="6.53222">
        <ele>1615</ele>
        <time>2025-06-05T16:23:45Z</time>
      </trkpt>
      <trkpt lat="45.75503" lon="6.53187">
        <ele>1615</ele>
        <time>2025-06-05T16:23:52Z</time>
      </trkpt>
      <trkpt lat="45.75526" lon="6.53168">
        <ele>1616</ele>
        <time>2025-06-05T16:23:58Z</time>
      </trkpt>
      <trkpt lat="45.75555" lon="6.5314">
        <ele>1617</ele>
        <time>2025-06-05T16:24:06Z</time>
      </trkpt>
      <trkpt lat="45.75568" lon="6.53126">
        <ele>1618</ele>
        <time>2025-06-05T16:24:10Z</time>
      </trkpt>
      <trkpt lat="45.75575" lon="6.53114">
        <ele>1618</ele>
        <time>2025-06-05T16:24:13Z</time>
      </trkpt>
      <trkpt lat="45.75586" lon="6.53091">
        <ele>1618</ele>
        <time>2025-06-05T16:24:17Z</time>
      </trkpt>
      <trkpt lat="45.75588" lon="6.53087">
        <ele>1618</ele>
        <time>2025-06-05T16:24:18Z</time>
      </trkpt>
      <trkpt lat="45.75594" lon="6.53079">
        <ele>1619</ele>
        <time>2025-06-05T16:24:20Z</time>
      </trkpt>
      <trkpt lat="45.75604" lon="6.53073">
        <ele>1620</ele>
        <time>2025-06-05T16:24:22Z</time>
      </trkpt>
      <trkpt lat="45.7561" lon="6.53068">
        <ele>1620</ele>
        <time>2025-06-05T16:24:24Z</time>
      </trkpt>
      <trkpt lat="45.75618" lon="6.53069">
        <ele>1621</ele>
        <time>2025-06-05T16:24:26Z</time>
      </trkpt>
      <trkpt lat="45.75627" lon="6.53072">
        <ele>1622</ele>
        <time>2025-06-05T16:24:28Z</time>
      </trkpt>
      <trkpt lat="45.75632" lon="6.53077">
        <ele>1622</ele>
        <time>2025-06-05T16:24:29Z</time>
      </trkpt>
      <trkpt lat="45.75644" lon="6.53095">
        <ele>1623</ele>
        <time>2025-06-05T16:24:33Z</time>
      </trkpt>
      <trkpt lat="45.75658" lon="6.53122">
        <ele>1625</ele>
        <time>2025-06-05T16:24:39Z</time>
      </trkpt>
      <trkpt lat="45.75665" lon="6.5314">
        <ele>1626</ele>
        <time>2025-06-05T16:24:42Z</time>
      </trkpt>
      <trkpt lat="45.75666" lon="6.53155">
        <ele>1627</ele>
        <time>2025-06-05T16:24:45Z</time>
      </trkpt>
      <trkpt lat="45.75664" lon="6.5319">
        <ele>1626</ele>
        <time>2025-06-05T16:24:51Z</time>
      </trkpt>
      <trkpt lat="45.75666" lon="6.53217">
        <ele>1626</ele>
        <time>2025-06-05T16:24:55Z</time>
      </trkpt>
      <trkpt lat="45.75666" lon="6.53262">
        <ele>1626</ele>
        <time>2025-06-05T16:25:02Z</time>
      </trkpt>
      <trkpt lat="45.75667" lon="6.53294">
        <ele>1626</ele>
        <time>2025-06-05T16:25:07Z</time>
      </trkpt>
      <trkpt lat="45.75667" lon="6.53309">
        <ele>1625</ele>
        <time>2025-06-05T16:25:10Z</time>
      </trkpt>
      <trkpt lat="45.75667" lon="6.53315">
        <ele>1625</ele>
        <time>2025-06-05T16:25:11Z</time>
      </trkpt>
      <trkpt lat="45.75663" lon="6.53332">
        <ele>1625</ele>
        <time>2025-06-05T16:25:14Z</time>
      </trkpt>
      <trkpt lat="45.75663" lon="6.5334">
        <ele>1624</ele>
        <time>2025-06-05T16:25:15Z</time>
      </trkpt>
      <trkpt lat="45.75665" lon="6.53358">
        <ele>1624</ele>
        <time>2025-06-05T16:25:18Z</time>
      </trkpt>
      <trkpt lat="45.75672" lon="6.53396">
        <ele>1624</ele>
        <time>2025-06-05T16:25:25Z</time>
      </trkpt>
      <trkpt lat="45.75676" lon="6.53423">
        <ele>1625</ele>
        <time>2025-06-05T16:25:29Z</time>
      </trkpt>
      <trkpt lat="45.75677" lon="6.53449">
        <ele>1625</ele>
        <time>2025-06-05T16:25:33Z</time>
      </trkpt>
      <trkpt lat="45.75675" lon="6.53472">
        <ele>1626</ele>
        <time>2025-06-05T16:25:37Z</time>
      </trkpt>
      <trkpt lat="45.75671" lon="6.53488">
        <ele>1625</ele>
        <time>2025-06-05T16:25:40Z</time>
      </trkpt>
      <trkpt lat="45.75682" lon="6.53479">
        <ele>1627</ele>
        <time>2025-06-05T16:25:43Z</time>
      </trkpt>
      <trkpt lat="45.75707" lon="6.53461">
        <ele>1631</ele>
        <time>2025-06-05T16:25:49Z</time>
      </trkpt>
      <trkpt lat="45.75721" lon="6.53456">
        <ele>1633</ele>
        <time>2025-06-05T16:25:53Z</time>
      </trkpt>
      <trkpt lat="45.75781" lon="6.53398">
        <ele>1642</ele>
        <time>2025-06-05T16:26:10Z</time>
      </trkpt>
      <trkpt lat="45.75781" lon="6.53391">
        <ele>1642</ele>
        <time>2025-06-05T16:26:11Z</time>
      </trkpt>
      <trkpt lat="45.75786" lon="6.53376">
        <ele>1644</ele>
        <time>2025-06-05T16:26:13Z</time>
      </trkpt>
      <trkpt lat="45.75783" lon="6.53348">
        <ele>1644</ele>
        <time>2025-06-05T16:26:18Z</time>
      </trkpt>
      <trkpt lat="45.75786" lon="6.53336">
        <ele>1645</ele>
        <time>2025-06-05T16:26:20Z</time>
      </trkpt>
      <trkpt lat="45.75798" lon="6.53353">
        <ele>1646</ele>
        <time>2025-06-05T16:26:24Z</time>
      </trkpt>
      <trkpt lat="45.75802" lon="6.53356">
        <ele>1647</ele>
        <time>2025-06-05T16:26:25Z</time>
      </trkpt>
      <trkpt lat="45.75807" lon="6.53358">
        <ele>1647</ele>
        <time>2025-06-05T16:26:26Z</time>
      </trkpt>
      <trkpt lat="45.75818" lon="6.53357">
        <ele>1649</ele>
        <time>2025-06-05T16:26:29Z</time>
      </trkpt>
      <trkpt lat="45.7583" lon="6.53354">
        <ele>1651</ele>
        <time>2025-06-05T16:26:32Z</time>
      </trkpt>
      <trkpt lat="45.75888" lon="6.53387">
        <ele>1654</ele>
        <time>2025-06-05T16:26:46Z</time>
      </trkpt>
      <trkpt lat="45.7591" lon="6.53407">
        <ele>1655</ele>
        <time>2025-06-05T16:26:52Z</time>
      </trkpt>
      <trkpt lat="45.75935" lon="6.53425">
        <ele>1657</ele>
        <time>2025-06-05T16:26:59Z</time>
      </trkpt>
      <trkpt lat="45.75939" lon="6.53426">
        <ele>1658</ele>
        <time>2025-06-05T16:27:00Z</time>
      </trkpt>
      <trkpt lat="45.75939" lon="6.53421">
        <ele>1657</ele>
        <time>2025-06-05T16:27:01Z</time>
      </trkpt>
      <trkpt lat="45.75941" lon="6.53418">
        <ele>1657</ele>
        <time>2025-06-05T16:27:01Z</time>
      </trkpt>
      <trkpt lat="45.75944" lon="6.53415">
        <ele>1658</ele>
        <time>2025-06-05T16:27:02Z</time>
      </trkpt>
      <trkpt lat="45.75947" lon="6.53414">
        <ele>1658</ele>
        <time>2025-06-05T16:27:03Z</time>
      </trkpt>
      <trkpt lat="45.7595" lon="6.53414">
        <ele>1658</ele>
        <time>2025-06-05T16:27:04Z</time>
      </trkpt>
      <trkpt lat="45.75952" lon="6.53416">
        <ele>1658</ele>
        <time>2025-06-05T16:27:04Z</time>
      </trkpt>
      <trkpt lat="45.75955" lon="6.53419">
        <ele>1658</ele>
        <time>2025-06-05T16:27:05Z</time>
      </trkpt>
      <trkpt lat="45.75982" lon="6.5339">
        <ele>1659</ele>
        <time>2025-06-05T16:27:13Z</time>
      </trkpt>
      <trkpt lat="45.75991" lon="6.53383">
        <ele>1659</ele>
        <time>2025-06-05T16:27:15Z</time>
      </trkpt>
    </trkseg>
  </trk>
</gpx>